[[{"header":{"parameterUnit":"m.s-1","parameterCategory":1,"la1":30.6,"la2":29.2853,"lo1":-89.7004,"lo2":-87.6739,"dy":0.0162,"dx":0.0183,"nx":112,"ny":82,"refTime":"2024-07-23T06:00:00:Z","depth":0,"parameterNumber":2,"parameterNumberName":"U-component_of_WINDS"},"data":[0.0,0.0,0.0,0.0,0.0,0.0,0.0,0.0,0.0,0.0,0.0,0.0,0.0,0.0,0.0,0.0,0.0,0.0,0.0,0.0,0.0,0.0,0.0,0.0,0.0,0.0,0.0,0.0,0.0,0.0,0.0,0.0,0.0,0.0,0.0,0.0,0.0,0.0,0.0,0.0,0.0,0.0,0.0,0.0,0.0,0.0,0.0,0.0,0.0,0.0,0.0,0.0,0.0,0.0,0.0,0.0,0.0,0.0,0.0,0.0,0.0,0.0,0.0,0.0,0.0,0.0,0.0,0.0,0.0,0.0,0.0,0.0,0.0,0.0,0.0,0.0,0.0,0.0,0.0,0.0,0.0,0.0,0.0,0.0,0.0,0.0,0.0,0.0,0.0,0.0,-2.8829,-3.0703,-3.1445,-3.1504,-3.0762,-3.0586,-2.9805,-2.8203,0.0,0.0,0.0,0.0,0.0,0.0,0.0,0.0,0.0,0.0,0.0,0.0,0.0,0.0,0.0,0.0,0.0,0.0,0.0,0.0,0.0,0.0,0.0,0.0,0.0,0.0,0.0,0.0,0.0,0.0,0.0,0.0,0.0,0.0,0.0,0.0,0.0,0.0,0.0,0.0,0.0,0.0,0.0,0.0,0.0,0.0,0.0,0.0,0.0,0.0,0.0,0.0,0.0,0.0,0.0,0.0,0.0,0.0,0.0,0.0,0.0,0.0,0.0,0.0,0.0,0.0,0.0,0.0,0.0,0.0,0.0,0.0,0.0,0.0,0.0,0.0,0.0,0.0,0.0,0.0,0.0,0.0,0.0,0.0,0.0,0.0,0.0,0.0,0.0,0.0,0.0,0.0,0.0,0.0,0.0,0.0,0.0,0.0,0.0,0.0,0.0,0.0,0.0,0.0,-2.8819,-3.0703,-3.0351,-2.9941,-2.9805,-2.9121,-2.8262,-2.7266,0.0,0.0,0.0,0.0,0.0,0.0,0.0,0.0,0.0,0.0,0.0,0.0,0.0,0.0,0.0,0.0,0.0,0.0,0.0,0.0,0.0,0.0,0.0,0.0,0.0,0.0,0.0,0.0,0.0,0.0,0.0,0.0,0.0,0.0,0.0,0.0,0.0,0.0,0.0,0.0,0.0,0.0,0.0,0.0,0.0,0.0,0.0,0.0,0.0,0.0,0.0,0.0,0.0,0.0,0.0,0.0,0.0,0.0,0.0,0.0,0.0,0.0,0.0,0.0,0.0,0.0,0.0,0.0,0.0,0.0,0.0,0.0,0.0,0.0,0.0,0.0,0.0,0.0,0.0,0.0,0.0,0.0,0.0,0.0,0.0,0.0,0.0,0.0,0.0,0.0,0.0,0.0,0.0,0.0,0.0,0.0,0.0,0.0,0.0,0.0,0.0,0.0,0.0,-2.8218,-2.8721,-3.0058,-2.9414,-2.8906,-2.8906,-2.8535,-2.793,-2.7051,-2.6934,0.0,0.0,0.0,0.0,0.0,0.0,0.0,0.0,0.0,0.0,0.0,0.0,0.0,0.0,0.0,0.0,0.0,0.0,0.0,0.0,0.0,0.0,0.0,0.0,0.0,0.0,0.0,0.0,0.0,0.0,0.0,0.0,0.0,0.0,0.0,0.0,0.0,0.0,0.0,0.0,0.0,0.0,0.0,0.0,0.0,0.0,0.0,0.0,0.0,0.0,0.0,0.0,0.0,0.0,0.0,0.0,0.0,0.0,0.0,0.0,0.0,0.0,0.0,0.0,0.0,0.0,0.0,0.0,0.0,0.0,0.0,0.0,0.0,0.0,0.0,0.0,0.0,0.0,0.0,0.0,0.0,0.0,0.0,0.0,0.0,0.0,0.0,0.0,0.0,0.0,0.0,0.0,0.0,0.0,0.0,0.0,0.0,0.0,0.0,0.0,0.0,0.0,-2.8498,-2.8555,-2.9219,-2.8516,-2.7988,-2.7988,-2.7793,-2.7402,-2.6738,-2.5879,0.0,0.0,0.0,0.0,0.0,0.0,0.0,0.0,0.0,0.0,0.0,0.0,0.0,0.0,0.0,0.0,0.0,0.0,0.0,0.0,0.0,0.0,0.0,0.0,0.0,0.0,0.0,0.0,0.0,0.0,0.0,0.0,0.0,0.0,0.0,0.0,0.0,0.0,0.0,0.0,0.0,0.0,0.0,0.0,0.0,0.0,0.0,0.0,0.0,0.0,0.0,0.0,0.0,0.0,0.0,0.0,0.0,0.0,0.0,0.0,0.0,0.0,0.0,0.0,0.0,0.0,0.0,0.0,0.0,0.0,0.0,0.0,0.0,0.0,0.0,0.0,0.0,0.0,0.0,0.0,0.0,0.0,0.0,0.0,0.0,0.0,0.0,0.0,0.0,0.0,0.0,0.0,0.0,0.0,0.0,0.0,0.0,0.0,0.0,0.0,0.0,0.0,-2.7759,-2.832,-2.8379,-2.7617,-2.709,-2.709,-2.6348,-2.5859,-2.5801,-2.4961,0.0,0.0,0.0,0.0,0.0,0.0,0.0,0.0,0.0,0.0,0.0,0.0,0.0,0.0,0.0,0.0,0.0,0.0,0.0,0.0,0.0,0.0,0.0,0.0,0.0,0.0,0.0,0.0,0.0,0.0,0.0,0.0,0.0,0.0,0.0,0.0,0.0,0.0,0.0,0.0,0.0,0.0,0.0,0.0,0.0,0.0,0.0,0.0,0.0,0.0,0.0,0.0,0.0,0.0,0.0,0.0,0.0,0.0,0.0,0.0,0.0,0.0,0.0,0.0,0.0,0.0,0.0,0.0,0.0,0.0,0.0,0.0,0.0,0.0,0.0,0.0,0.0,0.0,0.0,0.0,0.0,0.0,0.0,0.0,0.0,0.0,0.0,0.0,0.0,0.0,0.0,0.0,0.0,0.0,0.0,0.0,0.0,0.0,0.0,0.0,0.0,0.0,-2.6723,-2.6894,-2.7422,-2.6719,-2.6191,-2.6191,-2.5898,-2.5703,-2.5703,0.0,0.0,0.0,0.0,0.0,0.0,0.0,0.0,0.0,0.0,0.0,0.0,0.0,0.0,0.0,0.0,0.0,0.0,0.0,0.0,0.0,0.0,0.0,0.0,0.0,0.0,0.0,0.0,0.0,0.0,0.0,0.0,0.0,0.0,0.0,0.0,0.0,0.0,0.0,0.0,0.0,0.0,0.0,0.0,0.0,0.0,0.0,0.0,0.0,0.0,0.0,0.0,0.0,0.0,0.0,0.0,0.0,0.0,0.0,0.0,0.0,0.0,0.0,0.0,0.0,0.0,0.0,0.0,0.0,0.0,0.0,0.0,0.0,0.0,0.0,0.0,0.0,0.0,0.0,0.0,0.0,0.0,0.0,0.0,0.0,0.0,0.0,0.0,0.0,0.0,0.0,0.0,0.0,0.0,0.0,0.0,0.0,0.0,0.0,0.0,0.0,0.0,-2.6131,-2.6004,-2.5937,-2.6523,-2.6055,-2.5703,-2.5703,-2.5683,-2.5565,-2.5293,0.0,0.0,0.0,0.0,0.0,0.0,0.0,0.0,0.0,0.0,0.0,0.0,0.0,0.0,0.0,0.0,0.0,0.0,0.0,0.0,0.0,0.0,0.0,0.0,0.0,0.0,0.0,0.0,0.0,0.0,0.0,0.0,0.0,0.0,0.0,0.0,0.0,0.0,0.0,0.0,0.0,0.0,0.0,0.0,0.0,0.0,0.0,0.0,0.0,0.0,0.0,0.0,0.0,0.0,0.0,0.0,0.0,0.0,0.0,0.0,0.0,0.0,0.0,0.0,0.0,0.0,0.0,0.0,0.0,0.0,0.0,0.0,0.0,0.0,0.0,0.0,0.0,0.0,0.0,0.0,0.0,0.0,0.0,0.0,0.0,0.0,0.0,0.0,0.0,0.0,0.0,0.0,0.0,0.0,0.0,0.0,0.0,0.0,0.0,0.0,0.0,0.0,-2.5368,-2.5641,-2.5703,-2.5703,-2.5703,-2.5703,-2.5703,-2.5636,-2.5261,0.0,0.0,0.0,0.0,0.0,0.0,0.0,0.0,0.0,0.0,0.0,0.0,0.0,0.0,0.0,0.0,0.0,0.0,0.0,0.0,0.0,0.0,0.0,0.0,0.0,0.0,0.0,0.0,0.0,0.0,0.0,0.0,0.0,0.0,0.0,0.0,0.0,0.0,0.0,0.0,0.0,0.0,0.0,0.0,0.0,0.0,0.0,0.0,0.0,0.0,0.0,0.0,0.0,0.0,0.0,0.0,0.0,0.0,0.0,0.0,0.0,0.0,0.0,0.0,0.0,0.0,0.0,0.0,0.0,0.0,0.0,0.0,0.0,0.0,0.0,0.0,0.0,0.0,0.0,0.0,0.0,0.0,0.0,0.0,0.0,0.0,0.0,0.0,0.0,0.0,0.0,0.0,0.0,0.0,0.0,0.0,0.0,0.0,0.0,0.0,0.0,0.0,0.0,-2.4549,-2.5289,-2.5703,-2.5703,-2.5703,-2.5683,-2.5634,-2.5606,-2.5246,-2.4375,0.0,0.0,0.0,0.0,0.0,0.0,0.0,0.0,0.0,0.0,0.0,0.0,0.0,0.0,0.0,0.0,0.0,0.0,0.0,0.0,0.0,0.0,0.0,0.0,0.0,0.0,0.0,0.0,0.0,0.0,0.0,0.0,0.0,0.0,0.0,0.0,0.0,0.0,0.0,0.0,0.0,0.0,0.0,0.0,0.0,0.0,0.0,0.0,0.0,0.0,0.0,0.0,0.0,0.0,0.0,0.0,0.0,0.0,0.0,0.0,0.0,0.0,0.0,0.0,0.0,0.0,0.0,0.0,0.0,0.0,0.0,0.0,0.0,0.0,0.0,0.0,0.0,0.0,0.0,0.0,0.0,0.0,0.0,0.0,0.0,0.0,0.0,0.0,0.0,0.0,0.0,0.0,0.0,0.0,0.0,0.0,0.0,0.0,0.0,0.0,0.0,0.0,-2.4231,-2.5135,-2.5703,-2.5703,-2.5682,-2.5637,-2.5603,-2.5551,-2.5016,-2.3861,0.0,0.0,0.0,0.0,0.0,0.0,0.0,0.0,0.0,0.0,0.0,0.0,0.0,0.0,0.0,0.0,0.0,0.0,0.0,0.0,0.0,0.0,0.0,0.0,0.0,0.0,0.0,0.0,0.0,0.0,0.0,0.0,0.0,0.0,0.0,0.0,0.0,0.0,0.0,0.0,0.0,0.0,0.0,0.0,0.0,0.0,0.0,0.0,0.0,0.0,0.0,0.0,0.0,0.0,0.0,0.0,0.0,0.0,0.0,0.0,0.0,0.0,0.0,0.0,0.0,0.0,0.0,0.0,0.0,0.0,0.0,0.0,0.0,0.0,0.0,0.0,0.0,0.0,0.0,0.0,0.0,0.0,0.0,0.0,0.0,0.0,0.0,0.0,0.0,0.0,0.0,0.0,0.0,0.0,0.0,0.0,0.0,0.0,0.0,0.0,0.0,0.0,-2.4297,-2.5156,-2.5703,-2.5683,-2.5635,-2.5599,-2.5572,-2.5474,-2.4733,-2.3191,0.0,0.0,0.0,0.0,0.0,0.0,0.0,0.0,0.0,0.0,0.0,0.0,0.0,0.0,0.0,0.0,0.0,0.0,0.0,0.0,0.0,0.0,0.0,0.0,0.0,0.0,0.0,0.0,0.0,0.0,0.0,0.0,0.0,0.0,0.0,0.0,0.0,0.0,0.0,0.0,0.0,0.0,0.0,0.0,0.0,0.0,0.0,0.0,0.0,0.0,0.0,0.0,0.0,0.0,0.0,0.0,0.0,0.0,0.0,0.0,-2.589,0.0,0.0,0.0,0.0,0.0,0.0,0.0,0.0,0.0,0.0,0.0,0.0,0.0,0.0,0.0,0.0,0.0,0.0,0.0,0.0,0.0,0.0,0.0,0.0,0.0,0.0,0.0,0.0,0.0,0.0,0.0,0.0,0.0,0.0,0.0,0.0,0.0,0.0,0.0,0.0,0.0,-2.4297,-2.5156,-2.5683,-2.5632,-2.5605,-2.5556,-2.545,-2.5424,-2.495,-2.3933,-2.3208,0.0,0.0,0.0,0.0,0.0,0.0,0.0,0.0,0.0,0.0,0.0,0.0,0.0,0.0,0.0,0.0,0.0,0.0,0.0,0.0,0.0,0.0,0.0,0.0,0.0,0.0,0.0,0.0,0.0,0.0,0.0,0.0,0.0,0.0,0.0,0.0,0.0,0.0,0.0,0.0,0.0,0.0,0.0,0.0,0.0,0.0,0.0,0.0,0.0,0.0,0.0,0.0,0.0,0.0,0.0,0.0,0.0,0.0,0.0,0.0,-2.6225,0.0,0.0,0.0,0.0,0.0,0.0,0.0,0.0,0.0,0.0,0.0,0.0,0.0,0.0,0.0,0.0,0.0,0.0,0.0,0.0,0.0,0.0,0.0,0.0,0.0,0.0,0.0,0.0,0.0,0.0,0.0,0.0,0.0,0.0,0.0,0.0,0.0,0.0,0.0,0.0,-2.4297,-2.5156,-2.5662,-2.5604,-2.5566,-2.5517,-2.5413,-2.5371,-2.4992,-2.4153,-2.3687,0.0,0.0,0.0,0.0,0.0,0.0,0.0,0.0,0.0,0.0,0.0,0.0,0.0,0.0,0.0,0.0,0.0,0.0,0.0,0.0,0.0,0.0,0.0,0.0,0.0,0.0,0.0,0.0,0.0,0.0,0.0,0.0,0.0,0.0,0.0,0.0,0.0,0.0,0.0,0.0,0.0,0.0,0.0,0.0,0.0,0.0,0.0,0.0,0.0,0.0,0.0,0.0,0.0,-2.8185,-2.8037,-2.7871,-2.7635,-2.7499,-2.7535,-2.7736,-2.721,-2.6225,-2.6506,0.0,0.0,0.0,0.0,0.0,0.0,0.0,0.0,0.0,0.0,0.0,0.0,0.0,0.0,0.0,0.0,0.0,0.0,0.0,0.0,0.0,0.0,0.0,0.0,-2.5333,-2.5011,-2.3691,0.0,0.0,0.0,0.0,0.0,0.0,0.0,0.0,0.0,0.0,0.0,-2.4512,-2.5234,-2.566,-2.5597,-2.5511,-2.5462,-2.5383,-2.5326,-2.5019,-2.4356,-2.4187,-2.3783,0.0,0.0,0.0,0.0,0.0,0.0,0.0,0.0,0.0,0.0,0.0,0.0,0.0,0.0,0.0,0.0,0.0,0.0,0.0,0.0,0.0,0.0,0.0,0.0,0.0,0.0,0.0,0.0,0.0,0.0,0.0,0.0,-2.4809,-2.5706,0.0,0.0,0.0,0.0,0.0,0.0,0.0,0.0,0.0,0.0,0.0,0.0,0.0,-2.8838,-2.8934,-3.0448,-3.0814,-3.0071,-3.0396,-3.0143,-2.941,-2.8967,-2.8758,-2.8769,-2.9047,0.0,-2.6212,-2.631,0.0,0.0,0.0,0.0,0.0,0.0,0.0,0.0,0.0,0.0,0.0,0.0,0.0,0.0,0.0,0.0,0.0,0.0,0.0,0.0,0.0,0.0,-2.5173,-2.5269,-2.5303,-2.526,0.0,-2.5098,-2.4944,-2.4209,-2.4092,0.0,0.0,0.0,0.0,0.0,0.0,0.0,-2.543,-2.558,-2.5595,-2.5529,-2.5443,-2.5387,-2.5322,-2.5317,-2.525,-2.5154,-2.449,-2.4052,-2.3937,-2.3086,0.0,0.0,0.0,0.0,0.0,0.0,0.0,0.0,0.0,0.0,0.0,0.0,0.0,0.0,0.0,0.0,0.0,0.0,0.0,0.0,0.0,0.0,0.0,0.0,0.0,0.0,0.0,0.0,0.0,-2.4636,-2.5606,-2.5366,-2.5033,-2.4733,0.0,0.0,0.0,0.0,0.0,0.0,0.0,0.0,0.0,-2.9261,-2.966,-3.0275,-3.1237,-3.1545,-3.1437,-3.0897,-3.0479,-3.0,-2.9523,-2.916,-2.9005,-2.9005,-2.9123,-2.845,-2.7244,-2.7056,-2.6503,-2.578,0.0,0.0,0.0,0.0,-2.5615,-2.5962,-2.5462,-2.5615,-2.5952,-2.5489,0.0,0.0,0.0,0.0,0.0,0.0,0.0,0.0,0.0,0.0,-2.5308,-2.5308,-2.5308,-2.5308,-2.5308,-2.5357,-2.5286,0.0,-2.4905,-2.4948,-2.5027,0.0,0.0,0.0,0.0,-2.4706,-2.5541,-2.5629,-2.5559,-2.5443,-2.5418,-2.5368,-2.5317,-2.5308,-2.5308,-2.5308,-2.4962,-2.4774,-2.4774,-2.3875,-2.3237,0.0,0.0,0.0,0.0,0.0,0.0,0.0,0.0,0.0,0.0,0.0,0.0,0.0,0.0,0.0,0.0,0.0,0.0,0.0,0.0,0.0,0.0,0.0,0.0,0.0,0.0,0.0,0.0,-2.5839,-2.6326,-2.5258,-2.5282,-2.5266,0.0,0.0,0.0,0.0,0.0,0.0,-2.7963,-2.8573,-2.9464,-3.0722,-3.1158,-3.1968,-3.3218,-3.2852,-3.2326,-3.1623,-3.0741,-3.0002,-2.9392,-2.9123,-2.9005,-2.9005,-2.9005,-2.8751,-2.8307,-2.7889,-2.7136,-2.6162,-2.5784,-2.55,-2.5327,-2.5558,-2.5904,-2.6212,-2.5788,-2.5904,-2.6154,-2.5519,-2.5308,-2.5308,-2.5308,0.0,0.0,0.0,0.0,-2.5308,-2.5308,-2.5308,-2.5308,-2.5308,-2.5308,-2.5308,-2.5308,-2.5308,-2.5317,0.0,-2.5387,-2.5425,-2.5537,0.0,0.0,0.0,-2.5091,-2.4891,-2.5494,-2.5559,-2.55,-2.5404,-2.5387,-2.5354,-2.5293,-2.5308,-2.5308,-2.5308,-2.5308,-2.5308,-2.5308,-2.4525,-2.4083,-2.4015,0.0,0.0,0.0,0.0,0.0,0.0,0.0,0.0,0.0,0.0,0.0,0.0,0.0,0.0,0.0,0.0,0.0,0.0,0.0,0.0,0.0,0.0,0.0,0.0,0.0,0.0,0.0,0.0,0.0,-2.6155,-2.6596,0.0,0.0,0.0,0.0,-2.672,-2.7151,-2.7895,-2.923,-3.0775,-3.1639,-3.1733,-3.3201,-3.4052,-3.4129,-3.493,-3.4386,-3.2535,-3.2215,-3.113,-2.9392,-2.9123,-2.9005,-2.9005,-2.9005,-2.8968,-2.8915,-2.853,-2.7506,-2.6219,-2.6461,-2.6019,-2.5404,-2.6231,-2.6038,-2.5481,-2.625,-2.6019,-2.5365,-2.5308,-2.5308,-2.5308,-2.5308,-2.5308,0.0,0.0,-2.5308,-2.5308,-2.5308,-2.5308,-2.5308,-2.5308,-2.5308,-2.5308,-2.5308,-2.5308,-2.5308,0.0,-2.537,-2.5406,-2.5404,0.0,-2.5457,-2.55,-2.5461,-2.5459,-2.5496,-2.5456,-2.542,-2.5402,-2.5348,-2.5293,-2.5308,-2.5308,-2.5308,-2.5308,-2.5308,-2.5308,-2.5308,-2.5067,-2.4585,-2.3822,-2.3562,0.0,0.0,0.0,0.0,0.0,0.0,0.0,0.0,0.0,0.0,0.0,0.0,0.0,0.0,0.0,0.0,0.0,0.0,0.0,0.0,0.0,0.0,0.0,0.0,0.0,0.0,0.0,0.0,-2.6638,-2.657,0.0,-2.5248,-2.4739,-2.4971,-2.617,-2.7816,-2.9167,-3.0065,-3.1625,-3.2789,-3.3393,-3.3921,-3.4468,-3.5026,-3.4618,-3.3718,-3.2338,-3.1543,-3.0447,-2.9145,-2.9033,-2.9005,-2.9005,-2.9005,-2.8712,-2.8272,-2.8961,-2.8296,-2.6824,-2.6665,-2.6409,-2.6231,-2.7121,-2.7236,-2.6948,-2.6697,-2.6409,-2.6038,-2.5481,-2.5308,-2.5308,-2.5308,-2.5308,-2.5308,-2.5308,-2.5308,-2.5308,-2.5308,-2.5308,-2.5308,-2.5308,-2.5308,-2.5308,-2.5308,-2.5308,-2.5308,-2.5308,-2.5322,-2.5357,-2.5391,-2.5415,-2.5456,-2.5486,-2.5491,-2.5476,-2.5447,-2.5411,-2.5383,-2.5344,-2.5313,-2.5308,-2.5308,-2.5308,-2.5308,-2.5308,-2.5308,-2.5308,-2.5308,-2.5024,-2.4784,-2.4579,-2.4155,-2.3505,0.0,0.0,0.0,0.0,0.0,0.0,0.0,0.0,0.0,0.0,0.0,0.0,0.0,0.0,0.0,0.0,0.0,0.0,0.0,0.0,0.0,0.0,0.0,0.0,0.0,-2.7572,-2.7783,-2.6891,-2.6918,-2.6549,-2.5345,-2.5023,-2.5353,-2.6555,-2.8471,-2.9906,-3.0663,-3.2569,-3.3793,-3.4149,-3.4391,-3.4774,-3.5369,-3.4625,-3.3544,-3.2184,-3.1395,-3.0305,-2.9005,-2.9005,-2.9005,-2.9005,-2.9005,-2.8528,-2.7868,-2.8773,-2.8394,-2.7212,-2.7381,-2.7274,-2.714,-2.7992,-2.7953,-2.7332,-2.6467,-2.6154,-2.6077,-2.55,-2.5308,-2.5308,-2.5308,-2.5308,-2.5308,-2.5308,-2.5259,-2.5203,-2.5203,-2.5165,-2.5143,-2.5192,-2.5203,-2.5214,-2.5298,-2.5308,-2.5308,-2.5308,-2.5308,-2.5313,-2.5354,-2.5371,-2.5379,-2.5425,-2.5431,-2.5411,-2.5364,-2.5375,-2.5346,-2.5298,-2.5308,-2.5308,-2.5308,-2.5308,-2.5308,-2.5308,-2.5308,-2.5308,-2.5308,-2.4708,-2.4539,-2.4924,-2.4172,-2.3638,-2.3325,0.0,0.0,0.0,0.0,0.0,0.0,0.0,0.0,0.0,0.0,0.0,0.0,0.0,0.0,0.0,0.0,0.0,0.0,0.0,0.0,0.0,0.0,0.0,-2.7061,-2.8063,-2.8351,-2.6976,-2.7707,-2.7778,-2.6387,-2.5699,-2.6078,-2.7883,-2.8996,-3.0033,-3.1059,-3.3638,-3.4737,-3.3968,-3.4698,-3.5096,-3.5105,-3.5088,-3.4116,-3.2203,-3.1911,-3.0798,-2.9005,-2.9005,-2.9005,-2.9005,-2.9005,-2.8528,-2.7809,-2.8044,-2.7773,-2.7349,-2.8587,-2.8615,-2.8019,-2.8827,-2.8052,-2.649,-2.5581,-2.5298,-2.5279,-2.5279,-2.5284,-2.5308,-2.5308,-2.5303,-2.5279,-2.5279,-2.5152,-2.4979,-2.4979,-2.4897,-2.4828,-2.4962,-2.5004,-2.5046,-2.5253,-2.5303,-2.5308,-2.5308,-2.5308,-2.5308,-2.5308,-2.5308,-2.5308,-2.5308,-2.5308,0.0,-2.5308,-2.5308,-2.5308,-2.5308,-2.5308,-2.5308,-2.5308,-2.5308,-2.5308,-2.5308,-2.5308,-2.5308,-2.5308,-2.4163,-2.3936,-2.4763,-2.3623,-2.3024,-2.3006,0.0,0.0,0.0,0.0,0.0,0.0,0.0,0.0,0.0,0.0,0.0,0.0,0.0,0.0,0.0,0.0,0.0,0.0,0.0,0.0,0.0,-2.7832,-2.8769,-2.8401,-2.8286,-2.7995,-2.7332,-2.6797,-2.609,-2.5022,-2.4421,-2.4615,-2.5899,-2.8224,-3.0063,-3.1121,-3.3664,-3.5013,-3.484,-3.4824,-3.4908,-3.5096,-3.4666,-3.3677,-3.2194,-3.1734,-3.0636,-2.9005,-2.9005,-2.9005,-2.9005,-2.9005,-2.8528,-2.7857,-2.8695,-2.8566,-2.7894,-2.8401,-2.8591,-2.8637,-2.9296,-2.8465,-2.6833,-2.5435,-2.5006,-2.5088,-2.5088,-2.5173,-2.5308,-2.5308,-2.5203,-2.5088,-2.5088,-2.4974,-2.4855,-2.4855,-2.4821,-2.4811,-2.4849,-2.4936,-2.5016,-2.5077,-2.5203,-2.5308,-2.5308,-2.5308,-2.5308,-2.5308,-2.5308,-2.5308,-2.5308,-2.5308,0.0,-2.5308,-2.5308,-2.5308,-2.5308,-2.5308,-2.5308,-2.5308,-2.5308,-2.5308,-2.5308,-2.5308,-2.5308,-2.5308,-2.4746,-2.4418,-2.4366,-2.4045,-2.3584,0.0,0.0,0.0,0.0,0.0,0.0,0.0,0.0,0.0,0.0,0.0,0.0,0.0,0.0,0.0,0.0,0.0,0.0,0.0,0.0,0.0,0.0,-2.8838,-2.97,-2.9474,-2.8886,-2.8277,-2.7789,-2.6804,-2.5982,-2.5484,-2.5071,-2.5133,-2.586,-2.8679,-3.0591,-3.1124,-3.3568,-3.4853,-3.4702,-3.4552,-3.4481,-3.4478,-3.396,-3.3145,-3.2032,-3.1261,-3.0228,-2.9005,-2.9005,-2.9005,-2.9005,-2.9005,-2.8528,-2.7882,-2.8827,-2.879,0.0,0.0,0.0,0.0,0.0,-2.7827,-2.6514,-2.5231,-2.4884,-2.5004,-2.5004,-2.5141,-2.5279,-2.5203,-2.5094,-2.4992,-2.4924,-2.4806,-2.467,-2.467,-2.4607,-2.4559,-2.4654,-2.4806,-2.4924,-2.4992,-2.5157,-2.5308,-2.5308,-2.5308,0.0,-2.5308,-2.5308,-2.5308,-2.5308,-2.5308,-2.5308,-2.5308,-2.5308,-2.5269,-2.5173,-2.5253,-2.5264,-2.5173,-2.5259,0.0,0.0,0.0,-2.507,-2.4574,-2.4707,0.0,0.0,0.0,0.0,0.0,0.0,0.0,0.0,-2.336,-2.3731,0.0,0.0,0.0,0.0,0.0,0.0,0.0,0.0,0.0,0.0,0.0,0.0,0.0,0.0,0.0,0.0,-2.9952,-3.0501,-3.0221,-2.9563,-2.8849,-2.8193,-2.7259,-2.6749,-2.6907,-2.6684,-2.6729,-2.7165,-2.9832,-3.1403,-3.132,0.0,0.0,0.0,0.0,-3.4048,-3.3671,-3.3185,-3.2575,-3.1792,-3.0706,-2.9776,-2.9005,-2.9005,-2.9005,-2.9005,-2.9005,-2.8528,-2.786,-2.8675,-2.8684,-2.8285,-2.9166,-2.9501,-2.9286,-2.7602,-2.6556,-2.5811,-2.502,0.0,0.0,-2.493,-2.5071,-2.5203,-2.5022,-2.4968,-2.4917,-2.4799,-2.4615,-2.4461,-2.4461,-2.4321,-2.4228,-2.4409,-2.4631,-2.4828,-2.4949,-2.5146,-2.5308,-2.5308,-2.5308,-2.5308,-2.5308,-2.5308,-2.5308,-2.5308,-2.5308,-2.5308,-2.5308,-2.5274,-2.5203,-2.5022,0.0,0.0,-2.4992,-2.5135,-2.5248,-2.5264,-2.5298,-2.4815,-2.3706,-2.4403,-2.4286,-2.3189,-2.386,-2.419,-2.419,-2.4161,-2.4151,-2.4141,-2.3886,-2.4198,0.0,0.0,0.0,0.0,0.0,0.0,0.0,0.0,0.0,0.0,0.0,0.0,0.0,0.0,0.0,-2.9237,-3.0002,-3.0475,-3.0093,-2.949,-2.8728,-2.7674,-2.6957,-2.6652,-2.6945,-2.6939,-2.7489,-2.8887,-3.0642,-3.191,-3.2522,-3.3968,-3.4706,-3.4569,-3.4434,-3.4266,-3.4086,-3.3148,-3.2372,-3.1792,0.0,0.0,-2.9005,-2.9005,-2.9005,-2.9005,-2.9005,-2.8528,-2.786,-2.8675,-2.8929,-2.8798,-2.8517,-2.8311,-2.7959,-2.6344,-2.5642,-2.5402,-2.4598,-2.4444,-2.4588,-2.4588,-2.4734,-2.4902,-2.4849,-2.4727,0.0,-2.4559,-2.44,-2.4266,-2.4266,-2.4228,-2.4209,-2.4256,-2.4545,-2.4811,-2.4828,-2.5072,-2.5308,-2.5308,-2.5308,-2.5308,-2.5308,-2.5308,-2.5308,-2.5308,-2.5308,-2.5308,-2.5308,-2.5157,-2.504,-2.4991,-2.493,-2.4876,-2.4842,-2.4869,-2.4949,-2.504,-2.5214,-2.5121,-2.4726,-2.4768,-2.461,-2.4221,-2.4201,-2.419,-2.419,-2.3927,-2.3795,-2.3806,-2.4006,-2.4524,0.0,0.0,0.0,0.0,0.0,0.0,0.0,0.0,0.0,0.0,0.0,-2.6496,-2.76,0.0,-2.95,-2.9938,-3.0336,-3.0524,-3.0276,-2.9763,-2.9082,-2.8214,-2.7341,-2.7014,-2.7561,-2.8091,-2.8686,-2.9396,-3.156,-3.2801,-3.2703,-3.4008,-3.4629,-3.4359,-3.4315,-3.417,-3.3913,-3.2648,-3.1857,-3.1575,-3.0237,-2.939,-2.9005,-2.9005,-2.9005,-2.9005,-2.9005,-2.8767,-2.8429,-2.8822,-2.8649,-2.8092,-2.7556,-2.729,-2.7053,-2.5833,-2.5154,-2.475,-2.4337,-2.4321,-2.4503,-2.4503,-2.4631,-2.4782,-2.4678,-2.4575,-2.4478,-2.4375,-2.4275,-2.419,-2.419,-2.419,-2.419,-2.419,-2.4512,-2.4804,-2.4804,-2.5068,-2.5308,-2.5308,-2.5308,-2.5308,-2.5308,-2.5308,-2.5308,-2.5308,-2.5308,-2.5264,-2.5163,-2.5052,-2.4943,-2.4762,-2.4778,-2.476,-2.4654,-2.4746,-2.4821,-2.4897,-2.4993,-2.4962,-2.4766,-2.4682,-2.4561,-2.4348,-2.4256,-2.419,-2.419,-2.4026,-2.3937,-2.3947,-2.4113,-2.4762,0.0,0.0,0.0,0.0,0.0,0.0,0.0,-2.0069,-2.2199,-2.3261,-2.5358,-2.7426,-2.88,-2.9438,-2.9934,-3.0575,-3.065,-3.0594,-3.052,-3.0087,-2.9612,-2.9084,-2.8083,-2.7734,-2.8476,-2.9399,-2.9999,-3.0159,-3.2444,-3.3551,-3.2968,-3.4077,-3.4546,-3.4169,-3.4313,-3.4187,-3.3771,-3.2238,-3.1415,-3.1278,-2.9733,-2.8952,-2.8893,-2.8952,-2.9005,-2.8987,-2.8675,-2.8677,-2.8857,-2.8393,-2.7821,-2.7139,-2.6519,-2.6271,-2.619,-2.5446,-2.4768,-2.419,-2.419,-2.4312,-2.4435,-2.4435,-2.4543,-2.4654,-2.4495,-2.4435,-2.441,-2.4247,-2.419,-2.419,-2.419,-2.419,-2.419,-2.419,-2.4512,-2.4804,-2.4804,-2.5068,-2.5308,-2.5308,-2.5308,-2.5308,-2.5308,-2.5308,-2.5308,-2.5308,-2.5308,-2.5224,-2.5028,-2.498,-2.4838,-2.4526,-2.4607,-2.4615,-2.4452,-2.4623,-2.4746,-2.4746,-2.4782,-2.4731,-2.4559,-2.4528,-2.4409,-2.4257,-2.4218,-2.419,-2.419,-2.419,-2.419,-2.419,-2.419,-2.4923,-0.7197,-1.016,-1.2938,-1.4343,-1.6323,-1.7933,0.0,-2.0065,-2.2203,-2.3201,-2.5504,-2.7669,-2.8723,-2.9817,-3.0571,-3.0605,-3.0652,-3.0635,-3.0513,-3.0285,-3.0075,-2.9893,-2.912,-2.8924,-2.9722,-3.0169,-3.1136,-3.2818,-3.3112,-3.3576,-3.4411,-3.4672,-3.4759,-3.471,-3.4961,-3.4839,-3.4321,-3.2614,-3.1493,-3.0935,-2.9625,-2.8797,-2.8471,-2.8839,-2.9005,-2.8932,-2.7482,-2.7472,-2.8296,-2.6223,-2.5955,-2.6739,-2.5547,-2.5084,-2.5027,-2.4523,-2.4281,-2.419,-2.419,-2.4209,-2.4237,-2.4237,-2.4256,-2.4257,-2.4247,-2.4237,-2.4228,-2.4199,-2.419,-2.419,-2.419,-2.419,-2.419,-2.419,-2.4512,-2.4804,-2.4804,-2.5068,-2.5308,-2.5308,-2.5308,-2.5308,-2.5308,-2.5308,-2.5308,-2.5308,-2.5308,-2.5224,-2.5028,-2.4897,-2.4746,-2.4528,-2.4357,-2.4266,-2.4237,-2.4428,-2.4518,-2.4518,-2.47,-2.479,-2.4768,-2.4591,-2.4486,-2.4461,-2.4294,-2.419,-2.419,-2.419,-2.419,-2.419,-2.419,-2.5032,-0.813,-1.0454,-1.2614,-1.4654,-1.6139,-1.743,-1.8688,-2.0495,-2.2256,-2.354,-2.5948,-2.8043,-2.8816,-2.9911,-3.0681,-3.0653,-3.0681,-3.0673,-3.0571,-3.0342,-3.0175,-3.012,-3.0206,-3.0224,-3.0135,-3.0744,-3.1456,-3.2234,-3.2604,-3.2892,-3.3071,-3.3805,-3.4185,-3.4107,-3.4784,-3.4742,-3.3937,-3.2528,-3.1358,-3.0487,-2.9478,-2.8785,-2.8407,-2.8577,-2.8304,-2.7671,-2.7011,-2.6733,-2.6685,-2.572,-2.5253,-2.5121,-2.477,-2.4325,-2.3936,-2.4134,-2.419,-2.419,-2.419,-2.419,-2.419,-2.419,-2.419,-2.419,-2.419,-2.419,-2.419,-2.419,-2.419,-2.419,-2.419,-2.419,-2.419,-2.419,-2.4428,-2.4654,-2.4775,-2.4962,-2.5157,-2.5274,-2.5308,-2.5308,-2.5308,-2.5308,-2.5308,-2.5308,-2.5308,-2.5192,-2.491,-2.4828,-2.4678,-2.4357,-2.4256,-2.419,-2.419,-2.4275,-2.433,-2.433,-2.441,-2.4444,-2.4444,-2.4366,-2.433,-2.433,-2.4247,-2.419,-2.419,-2.419,-2.419,-2.419,-2.419,-2.4814,-0.9794,-1.1494,-1.3,-1.5193,-1.6507,-1.7692,-1.9251,-2.0805,-2.235,-2.3731,-2.5811,-2.7695,-2.869,-2.9641,-3.0369,-3.0636,-3.0681,-3.0687,-3.0628,-3.0438,-3.0283,-3.0206,-3.0742,-3.0944,-3.0478,-3.1159,-3.1715,-3.1873,-3.2149,-3.2205,-3.1988,-3.2926,-3.3407,-3.3267,-3.407,-3.4237,-3.3712,-3.2288,-3.1224,-3.0491,-2.9374,-2.8633,-2.8264,-2.8264,-2.7732,-2.6787,-2.6543,-2.6074,-2.5425,-2.4983,-2.4423,-2.3836,-2.3906,-2.3624,-2.3259,-2.3837,-2.4113,-2.419,-2.419,-2.419,-2.419,-2.419,-2.419,-2.419,-2.419,-2.419,-2.419,-2.419,-2.419,-2.419,-2.419,-2.419,-2.419,-2.419,-2.4348,-2.4545,-2.4685,-2.4871,-2.504,-2.5198,-2.5264,-2.5308,-2.5308,-2.5308,-2.5308,-2.5308,-2.5259,-2.5126,-2.484,-2.47,-2.4528,-2.4228,-2.419,-2.419,-2.419,-2.419,-2.419,-2.419,-2.419,-2.419,-2.419,-2.419,-2.419,-2.419,-2.419,-2.419,-2.419,-2.419,-2.419,-2.419,-2.419,-2.4511,-1.2147,-1.3538,-1.4733,-1.604,-1.7956,-1.9516,-1.9588,-2.0895,-2.2425,-2.3561,-2.4744,-2.6172,-2.8145,-2.8916,-2.954,-3.0461,-3.0667,-3.0696,-3.0703,-3.0637,-3.0488,-3.0234,-3.0508,-3.0786,-3.0959,-3.1465,-3.2094,-3.2793,-3.2048,-3.1728,-3.2167,-3.2474,-3.2571,-3.2442,-3.2775,-3.3305,-3.3978,-3.2023,-3.1105,-3.1231,-2.933,-2.825,-2.7926,-2.7926,-2.7518,-2.6752,-2.591,-2.5389,-2.4997,-2.3428,-2.3045,-2.3367,-2.2923,-2.294,-2.3236,-2.3588,-2.3917,-2.419,-2.419,-2.419,-2.419,-2.419,-2.419,-2.419,-2.419,-2.419,-2.419,-2.419,-2.419,-2.419,-2.419,-2.419,-2.419,-2.419,-2.4348,-2.4503,-2.4512,-2.4762,-2.501,-2.501,-2.5163,-2.5308,-2.5308,-2.5308,-2.5308,-2.5308,-2.5122,-2.4955,-2.4825,-2.4452,-2.4209,-2.419,-2.419,-2.419,-2.419,-2.419,-2.419,-2.419,-2.419,-2.419,-2.419,-2.419,-2.419,-2.419,-2.419,-2.419,-2.419,-2.419,-2.419,-2.419,-2.419,-2.4208,-1.176,-1.3543,-1.5471,-1.6959,-1.848,-1.9836,-2.0717,-2.1544,-2.2341,-2.3215,-2.4522,-2.5781,-2.6679,-2.8136,-2.9295,-2.9621,-3.0208,-3.0611,-3.056,-3.0427,-3.0382,-3.0529,-3.0584,-3.0789,-3.1162,-3.0804,-3.1109,-3.2463,-3.17,-3.1405,-3.1973,-3.2935,-3.312,-3.2357,-3.3138,-3.3162,-3.2359,-3.1495,-3.0602,-2.9627,-2.8308,-2.7601,-2.7485,-2.7225,-2.6427,-2.5254,-2.4964,-2.4222,-2.3201,-2.2658,-2.2541,-2.2663,-2.25,-2.2616,-2.291,-2.3236,-2.3577,-2.3896,-2.4113,-2.419,-2.419,-2.419,-2.419,-2.419,-2.419,-2.419,-2.419,-2.419,-2.419,-2.419,-2.419,-2.419,-2.419,-2.419,-2.4256,-2.4348,-2.4469,-2.458,-2.47,-2.483,-2.4993,-2.5099,-2.5099,-2.5214,-2.5228,-2.4993,-2.491,-2.4806,-2.4623,-2.4164,-2.3876,-2.3876,-2.3671,-2.3639,-2.3837,-2.3876,-2.3947,-2.418,-2.419,-2.419,-2.419,-2.419,-2.419,-2.419,-2.419,-2.419,-2.419,-2.419,-2.419,-2.419,-2.419,-2.419,-1.1731,-1.3825,-1.6115,-1.7746,-1.9227,-2.0538,-2.1547,-2.2152,-2.2656,-2.3259,-2.4217,-2.5148,-2.5786,-2.7128,-2.8386,-2.9028,-2.9859,-3.0513,-3.0814,-3.0586,-3.042,-3.0544,-3.0043,-2.9849,-3.0234,-2.9449,-2.9835,-3.2014,-3.1482,-3.1235,-3.159,-3.2666,-3.2704,-3.1519,-3.2293,-3.2328,-3.1475,-3.0886,-2.9892,-2.8474,-2.7669,-2.7208,-2.7067,-2.6808,-2.6129,-2.5094,-2.4806,-2.4059,-2.303,-2.2741,-2.2624,-2.2611,-2.249,-2.263,-2.291,-2.3117,-2.3403,-2.3789,-2.4413,-2.4438,-2.4245,-2.4548,-2.4428,-2.419,-2.419,-2.419,-2.419,-2.419,-2.419,-2.419,-2.419,-2.4103,-2.4054,-2.417,-2.4103,-2.4085,-2.4348,-2.4444,-2.4545,-2.467,-2.4816,-2.4937,-2.4998,-2.5105,-2.5101,-2.4847,-2.464,-2.4445,-2.4247,-2.3903,-2.366,-2.3533,-2.3335,-2.3288,-2.3493,-2.3621,-2.3795,-2.4006,-2.4123,-2.419,-2.419,-2.419,-2.419,-2.419,-2.419,-2.419,-2.419,-2.419,-2.419,-2.419,-2.419,-2.419,-1.1989,-1.4361,-1.669,-1.8374,-2.0145,-2.1617,-2.2026,-2.266,-2.3247,-2.3555,-2.3769,-2.4256,-2.5345,-2.5963,-2.688,-2.861,-2.9604,-3.0448,-3.1327,-3.0999,-3.0561,-3.0261,-2.8905,-2.8034,-2.8221,-2.7482,-2.8245,-3.1309,-3.1342,-3.1183,-3.1074,-3.1737,-3.1458,-3.0053,-3.0387,-3.0814,-3.1309,-3.0203,-2.9059,-2.7897,-2.747,-2.7067,-2.6691,-2.6691,-2.6513,-2.6157,-2.5351,-2.4776,-2.4329,-2.3537,-2.32,-2.3165,-2.286,-2.2923,-2.32,-2.3212,-2.3426,-2.3872,-2.5045,-2.4934,-2.4373,-2.5099,-2.4842,-2.4245,-2.4208,-2.419,-2.419,-2.419,-2.419,-2.419,-2.419,-2.3947,-2.3785,-2.4113,-2.3937,-2.3795,-2.4141,-2.4348,-2.4486,-2.4486,-2.4647,-2.4828,-2.4968,-2.4992,-2.4937,-2.4818,-2.4341,-2.3919,-2.3735,-2.3671,-2.3533,-2.32,-2.3153,-2.3153,-2.3177,-2.3477,-2.3671,-2.3692,-2.3996,-2.418,-2.419,-2.419,-2.419,-2.419,-2.419,-2.419,-2.419,-2.419,-2.419,-2.419,-2.419,-2.419,-1.0739,-1.3649,-1.6594,-1.8177,-2.0053,-2.1634,-2.2127,-2.2512,-2.271,-2.2535,-2.2591,-2.2841,-2.349,-2.5171,-2.6695,-2.7469,-2.9503,-3.0967,-3.085,-3.0546,-3.0087,-2.9402,-2.7456,-2.6083,-2.5897,-2.4693,-2.5071,-2.7866,-3.0209,-3.1295,-3.0838,-3.1719,-3.1538,-2.9969,-3.0274,-3.0349,-3.0136,-2.9308,-2.8546,-2.7897,-2.7194,-2.6791,-2.6691,-2.6691,-2.6513,-2.6157,-2.5351,-2.4776,-2.4329,-2.3537,-2.32,-2.3189,-2.3105,-2.3129,-2.3224,-2.3488,-2.3639,-2.3945,-2.5693,-2.5768,-2.5026,-2.464,-2.4768,-2.4989,-2.4373,-2.419,-2.419,-2.419,-2.419,-2.419,-2.419,-2.3947,-2.3785,-2.4113,-2.3937,-2.3795,-2.4141,-2.4247,-2.4275,-2.4275,-2.4435,-2.4639,-2.4821,-2.4855,-2.4792,-2.4599,-2.4255,-2.3919,-2.3735,-2.3259,-2.2923,-2.2835,-2.2643,-2.2607,-2.281,-2.291,-2.3165,-2.3671,-2.3785,-2.3937,-2.418,-2.419,-2.419,-2.419,-2.419,-2.419,-2.419,-2.419,-2.419,-2.419,-2.419,-2.419,-0.8857,-1.204,-1.5408,-1.7279,-1.955,-2.1529,-2.2266,-2.263,-2.2708,-2.2279,-2.2124,-2.2134,-2.2369,-2.4293,-2.6107,-2.6881,-2.9443,-3.1325,-3.1319,-3.0879,-3.0276,-2.9367,-2.6663,-2.4514,-2.3563,-2.2402,-2.2328,-2.3832,-2.8078,-3.0383,-2.9933,-3.0837,-3.0484,-2.8527,-2.8768,-2.9136,-2.9563,-2.8957,-2.839,-2.7897,-2.6872,-2.6487,-2.6691,-2.6504,-2.6602,-2.6892,0.0,-2.5537,-2.5932,-2.4682,-2.4216,-2.4268,-2.404,-2.3718,-2.3437,-2.3639,-2.3703,-2.3869,-2.4954,-2.5262,-2.5152,-2.5061,-2.4871,-2.4579,-2.4113,-2.4084,-2.419,-2.419,-2.419,-2.419,-2.419,-2.3947,-2.3785,-2.4113,-2.3937,-2.3795,-2.4141,-2.419,-2.419,-2.419,-2.4357,-2.4545,-2.4647,-2.467,-2.458,-2.4317,-2.4052,-2.3715,-2.3305,-2.2935,-2.2643,-2.2537,-2.2402,-2.236,-2.2514,-2.2621,-2.286,-2.3242,-2.3403,-2.3621,-2.3976,-2.3986,-2.4054,-2.4208,-2.419,-2.419,-2.419,-2.419,-2.419,-2.419,-2.419,-2.419,-0.6744,-0.9927,-1.3444,-1.5923,-1.8673,-2.1087,-2.2217,-2.2633,-2.2616,-2.2026,-2.1631,-2.1369,-2.128,-2.3075,-2.4976,-2.631,-2.8988,-3.1165,-3.1868,-3.1428,-3.065,-2.9626,-2.6323,-2.3389,-2.1527,-2.0306,-1.9629,-1.9724,-2.4899,-2.8002,-2.7913,-2.8812,-2.8421,-2.6397,-2.6885,-2.7945,-2.9496,-2.8963,-2.8427,-2.7883,-2.6623,-2.6209,-2.659,-2.6104,-2.6556,-2.763,-2.619,-2.6501,-2.7911,-2.6279,-2.5643,-2.5649,-2.5181,-2.4494,-2.3774,-2.3774,-2.3774,-2.3774,-2.3883,-2.4245,-2.4784,-2.548,-2.4872,-2.3848,-2.3739,-2.3927,-2.419,-2.419,-2.419,-2.419,-2.419,-2.3947,-2.3785,-2.4113,-2.3907,-2.3742,-2.4064,-2.4123,-2.4151,-2.419,-2.433,-2.4452,-2.4452,-2.4408,-2.4301,-2.3997,-2.3775,-2.3426,-2.2848,-2.2733,-2.2599,-2.2321,-2.2296,-2.2296,-2.2296,-2.2514,-2.2656,-2.2695,-2.2972,-2.3294,-2.3682,-2.3703,-2.3865,-2.419,-2.419,-2.419,-2.419,-2.419,-2.419,-2.419,-2.419,-2.419,-0.5212,-0.7846,-1.0844,-1.4281,-1.7148,-1.9573,-2.1369,-2.1431,-2.0872,-1.9996,-1.9245,-1.871,-1.8541,-2.051,-2.2694,-2.4251,-2.6662,-2.893,-3.0571,-3.067,-3.0214,-2.9157,-2.6257,-2.333,-2.0753,-1.7766,-1.6212,-1.6711,-1.9725,-2.1876,-2.2665,-2.4054,-2.4859,-2.4932,-2.6778,-2.8504,-3.0058,-2.9098,-2.8379,-2.7883,-2.6623,-2.6033,-2.6086,-2.5596,-2.5844,-2.6718,-2.6107,0.0,-2.7638,-2.6933,-2.6264,-2.5702,-2.5596,-2.4968,-2.4103,-2.4103,-2.4103,-2.4223,-2.4864,-2.4407,-2.3513,-2.3655,-2.4151,-2.457,-2.3902,-2.3927,-2.419,-2.419,-2.419,-2.419,-2.419,-2.3947,-2.3785,-2.4113,-2.3724,-2.338,-2.3714,-2.3785,-2.3876,-2.4151,-2.4228,-2.4256,-2.4256,-2.4027,-2.3829,-2.3759,-2.3493,-2.3236,-2.3129,-2.2873,-2.2599,-2.2321,-2.2296,-2.2296,-2.2296,-2.2349,-2.2463,-2.2682,-2.2759,-2.3057,-2.3671,-2.3703,-2.3865,-2.419,-2.419,-2.419,-2.419,-2.419,-2.419,-2.419,-2.419,-2.419,-0.3359,-0.5984,-0.8976,-1.1751,-1.5245,-1.8376,-1.993,-2.0317,-2.004,-1.8992,-1.8166,-1.7672,-1.7771,-1.9647,-2.1691,-2.3268,-2.57,-2.8066,-2.9956,-3.0297,-3.0333,-3.0313,-2.7664,-2.4593,-2.1385,-1.8245,-1.6285,-1.5959,-1.708,-1.7952,-1.8359,-2.0407,-2.2095,-2.3263,-2.611,-2.8254,-2.9517,-2.882,-2.8158,-2.7574,-2.6231,-2.5726,-2.5961,-2.5163,-2.5274,-2.6115,-2.5742,-2.643,-2.7783,-2.7406,-2.7138,-2.6953,-2.6953,-2.6089,-2.4824,-2.4824,-2.4566,-2.4225,-2.4444,-2.406,-2.3403,-2.3057,-2.3304,-2.3708,-2.3499,-2.3671,-2.3986,-2.4151,-2.419,-2.419,-2.419,-2.4084,-2.3996,-2.4161,-2.3816,-2.3555,-2.3896,-2.3816,-2.3795,-2.4123,-2.419,-2.419,-2.419,-2.3917,-2.3703,-2.3703,-2.3566,-2.3392,-2.3212,-2.3057,-2.2835,-2.2537,-2.2388,-2.2296,-2.2296,-2.2296,-2.2346,-2.2473,-2.2487,-2.2691,-2.3153,-2.3346,-2.3606,-2.3927,-2.4103,-2.419,-2.419,-2.419,-2.419,-2.419,-2.419,-2.419,-0.2329,-0.4574,-0.7284,-0.9543,-1.3159,-1.6585,-1.8065,-1.8802,-1.8861,-1.7852,-1.7217,-1.6912,-1.7089,-1.8835,-2.0732,-2.2293,-2.4642,-2.7119,-2.9566,-3.0143,-3.0713,-3.181,-2.9591,-2.6681,-2.3391,-2.0543,-1.8259,-1.6753,-1.6153,-1.6034,-1.6401,-1.8688,-2.0796,-2.2589,-2.5871,-2.802,-2.8872,-2.8484,-2.7882,-2.7111,-2.5806,-2.5354,-2.5615,-2.4672,-2.4689,-2.5491,-2.5428,-2.6346,0.0,-2.786,-2.7951,-2.8109,-2.8109,-2.6958,-2.5293,-2.5373,-2.4849,-2.4074,-2.3858,-2.3764,-2.3599,-2.3009,-2.281,-2.2848,-2.3033,-2.338,-2.3746,-2.4016,-2.4133,-2.419,-2.419,-2.419,-2.418,-2.4103,-2.3896,-2.3774,-2.4044,-2.3886,-2.3795,-2.4123,-2.419,-2.419,-2.419,-2.3917,-2.3703,-2.3703,-2.3703,-2.3599,-2.3346,-2.3236,-2.3105,-2.2835,-2.2504,-2.2296,-2.2296,-2.2296,-2.2296,-2.2296,-2.2296,-2.2426,-2.2682,-2.296,-2.3247,-2.3577,-2.3847,-2.4016,-2.4094,-2.4094,-2.4141,-2.419,-2.419,-2.419,-0.3415,-0.3963,-0.5457,-0.8671,-1.1045,-1.3198,-1.5637,-1.6342,-1.6274,-1.5627,-1.5627,-1.5586,-1.5073,-1.6829,-1.8879,-2.0479,-2.2329,-2.4983,-2.9057,-3.0212,-3.1253,-3.2863,-3.1505,-2.9616,-2.7473,-2.4657,-2.1878,-1.9283,-1.721,-1.6933,-1.8944,-2.0503,-2.225,-2.4311,-2.6934,-2.8469,-2.8805,-2.8406,-2.7656,-2.6555,-2.5644,-2.4969,-2.4532,-2.3927,-2.3991,-2.4561,-2.5403,-2.6399,0.0,-2.8349,-2.8458,-2.8109,-2.8109,-2.6811,-2.4979,-2.5283,-2.4691,-2.3785,-2.4064,-2.3947,-2.3649,-2.3271,-2.3153,-2.3105,-2.2835,-2.3189,-2.3703,-2.3753,-2.3976,-2.419,-2.419,-2.419,-2.4113,-2.3816,-2.3714,-2.3703,-2.3735,-2.3714,-2.3795,-2.4123,-2.419,-2.419,-2.419,-2.3917,-2.3703,-2.3703,-2.3703,-2.3692,-2.366,-2.3392,-2.3189,-2.3153,-2.2634,-2.2296,-2.2296,-2.2296,-2.2296,-2.2296,-2.2296,-2.2426,-2.2682,-2.2733,-2.291,-2.3236,-2.3288,-2.3437,-2.3753,-2.3753,-2.3907,-2.419,-2.419,-2.419,-0.3711,-0.385,-0.4922,-0.7106,-0.9711,-1.2223,-1.4082,-1.5151,-1.5562,-1.4967,-1.4959,-1.5084,-1.5162,-1.6477,-1.8092,-1.9693,-2.1603,-2.4045,-2.7325,-2.8978,-3.0759,-3.3167,-3.2382,-3.1046,-2.9502,-2.6868,-2.4064,-2.1253,-2.096,-2.1587,-2.311,-2.2649,-2.3177,-2.4968,-2.7149,-2.8353,-2.851,-2.7933,-2.7165,-2.6179,-2.5526,-2.493,-2.4369,-2.3837,-2.3724,-2.3948,-2.4649,-2.5531,0.0,-2.7326,-2.7767,-2.7991,-2.811,-2.697,-2.5302,-2.5633,-2.4893,-2.3753,-2.4084,-2.4103,-2.3907,-2.338,-2.32,-2.3129,-2.281,-2.3033,-2.3437,-2.3631,-2.3937,-2.419,-2.419,-2.419,-2.417,-2.4026,-2.3855,-2.3764,-2.3966,-2.3837,-2.3795,-2.4123,-2.419,-2.419,-2.419,-2.3917,-2.3703,-2.3703,-2.3703,-2.3639,-2.3426,-2.3271,-2.3129,-2.2923,-2.2544,-2.2296,-2.2296,-2.2296,-2.2296,-2.2296,-2.2296,-2.2349,-2.245,-2.2612,-2.2772,-2.2898,-2.3093,-2.3277,-2.3403,-2.3599,-2.3774,-2.3907,-2.4103,-2.419,-0.4823,-0.434,-0.4703,-0.5896,-0.8294,-1.0648,-1.1868,-1.3309,-1.4278,-1.3863,-1.4113,-1.4595,-1.5162,-1.6179,-1.7538,-1.9258,-2.1282,-2.3585,-2.641,-2.854,-3.08,-3.3434,-3.3436,-3.2848,-3.194,-2.9573,-2.7171,-2.4966,-2.5362,-2.6036,-2.674,-2.5462,-2.5206,-2.6243,-2.7659,-2.8307,-2.81,-2.7557,-2.679,-2.5744,-2.5373,-2.4851,-2.4158,-2.3773,-2.3595,-2.3638,-2.4178,-2.4831,0.0,-2.6435,-2.7122,-2.7662,-2.7754,-2.6796,-2.5385,-2.5492,-2.4842,-2.3923,-2.4018,-2.4278,-2.4405,-2.3504,-2.32,-2.3117,-2.2717,-2.2878,-2.3247,-2.3488,-2.3858,-2.419,-2.419,-2.419,-2.419,-2.419,-2.4016,-2.3907,-2.4151,-2.3927,-2.3774,-2.4006,-2.3976,-2.3907,-2.3907,-2.3703,-2.3555,-2.3555,-2.3555,-2.3477,-2.3224,-2.3117,-2.296,-2.2733,-2.2463,-2.2296,-2.2296,-2.2296,-2.2296,-2.2296,-2.2296,-2.2296,-2.2296,-2.2473,-2.2573,-2.2573,-2.2819,-2.3014,-2.32,-2.3444,-2.366,-2.3847,-2.4094,-2.4151,-0.7257,-0.5557,-0.4653,-0.5351,-0.657,-0.7838,-0.8593,-1.0342,-1.1839,-1.1839,-1.289,-1.398,-1.4606,-1.5652,-1.707,-1.9082,-2.1095,-2.3554,-2.6826,-2.9487,-3.1832,-3.3847,-3.4953,-3.5478,-3.5273,-3.3294,-3.1777,-3.1156,-3.0129,-2.9465,-2.9269,-2.9127,-2.8884,-2.8588,-2.8776,-2.847,-2.7628,-2.7397,-2.659,-2.5221,-2.5202,-2.4652,-2.3595,-2.3595,-2.3595,-2.3638,-2.4178,-2.4634,0.0,-2.608,-2.6734,-2.7089,-2.6901,-2.6106,-2.5042,-2.4587,-2.4412,-2.4324,-2.3876,-2.4437,-2.5147,-2.3676,-2.32,-2.3087,-2.248,-2.2708,-2.32,-2.32,-2.3682,-2.419,-2.419,-2.419,-2.419,-2.419,-2.4208,-2.4208,-2.419,-2.3927,-2.3703,-2.3703,-2.3444,-2.32,-2.32,-2.32,-2.32,-2.32,-2.32,-2.32,-2.32,-2.291,-2.2708,-2.2708,-2.2463,-2.2296,-2.2296,-2.2296,-2.2296,-2.2296,-2.2296,-2.2296,-2.2296,-2.231,-2.231,-2.231,-2.231,-2.2611,-2.32,-2.32,-2.3544,-2.419,-2.419,-2.4016,-0.7836,-0.5932,-0.4653,-0.5324,-0.623,-0.71,-0.7791,-0.9191,-1.0503,-1.1006,-1.2186,-1.3311,-1.398,-1.5027,-1.6464,-1.8573,-2.0421,-2.2775,-2.6202,-2.8441,-3.0638,-3.3111,-3.4432,-3.4903,-3.4332,-3.3332,-3.233,-3.1411,-3.1025,-3.0558,-2.9948,-2.9477,-2.9098,-2.8818,-2.8294,-2.7799,-2.7397,-2.7066,-2.6317,-2.5202,-2.5202,-2.4652,-2.3595,-2.3595,-2.3595,-2.3595,-2.3773,-2.4127,0.0,-2.4439,-2.5169,-2.6235,-2.5222,-2.4785,-2.4645,-2.4195,-2.3857,-2.3584,-2.3667,-2.4081,-2.4423,-2.3504,-2.32,-2.3087,-2.248,-2.2554,-2.296,-2.3414,-2.3865,-2.419,-2.419,-2.419,-2.419,-2.419,-2.419,-2.4141,-2.3907,-2.3756,-2.3621,-2.3403,-2.3271,-2.32,-2.32,-2.32,-2.3117,-2.288,-2.3057,-2.3051,-2.2651,-2.2652,-2.2621,-2.2453,-2.2349,-2.2296,-2.2296,-2.2296,-2.2296,-2.2296,-2.2296,-2.2296,-2.2296,-2.2296,-2.2296,-2.2296,-2.2296,-2.2388,-2.2584,-2.2989,-2.3544,-2.419,-2.419,-2.3896,-0.7913,-0.6279,-0.4921,-0.5085,-0.567,-0.6306,-0.6704,-0.7885,-0.9184,-1.0175,-1.1272,-1.2406,-1.3592,-1.4573,-1.5811,-1.7683,-1.9285,-2.1373,-2.448,-2.6917,-2.9669,-3.3184,-3.4191,-3.4479,-3.4163,-3.3593,-3.278,-3.1744,-3.1763,-3.1288,-3.008,-2.9384,-2.8886,-2.853,-2.7852,-2.7347,-2.7083,-2.6657,-2.6016,-2.5202,-2.4992,-2.445,-2.3595,-2.3595,-2.3595,-2.3595,-2.3595,-2.3794,0.0,-2.3602,-2.42,-2.5301,-2.4294,-2.4016,-2.4171,-2.3835,-2.3623,-2.348,-2.3354,-2.3741,-2.414,-2.3295,-2.294,-2.2786,-2.2415,-2.2487,-2.2848,-2.3511,-2.3847,-2.4036,-2.417,-2.419,-2.419,-2.419,-2.419,-2.4103,-2.3774,-2.3599,-2.3403,-2.3081,-2.2928,-2.2857,-2.2857,-2.2857,-2.2781,-2.2577,-2.2734,-2.2708,-2.2349,-2.2453,-2.249,-2.2324,-2.2296,-2.2296,-2.2296,-2.2296,-2.2296,-2.2296,-2.2296,-2.2296,-2.2296,-2.2296,-2.2296,-2.2296,-2.2296,-2.2349,-2.245,-2.3075,-2.3671,-2.419,-2.3937,-2.3599,0.0,-0.6494,-0.5351,-0.4732,-0.5003,-0.5433,-0.5433,-0.6467,0.0,-0.921,-1.0122,-1.129,-1.3224,-1.4112,-1.5027,-1.6424,-1.7753,-1.9481,-2.2019,-2.5274,-2.9069,-3.3653,-3.4126,-3.4224,-3.46,-3.3981,-3.3149,-3.2156,-3.2319,-3.1635,-2.978,-2.894,-2.8311,-2.7823,-2.7376,-2.7003,-2.6657,-2.6227,-2.5707,-2.5144,-2.4652,-2.4116,-2.3595,-2.3595,-2.3595,0.0,-2.3595,0.0,0.0,-2.3375,-2.3688,-2.4273,-2.3883,-2.3687,-2.3638,-2.3418,-2.3591,-2.3831,-2.3055,-2.346,-2.4138,-2.3049,-2.2527,-2.2296,-2.2296,-2.2487,-2.2835,-2.3488,-2.3682,-2.3785,-2.4103,-2.419,-2.419,-2.419,-2.419,-2.4094,-2.3735,-2.3414,-2.3093,-2.2733,-2.2477,-2.2296,-2.2296,-2.2296,-2.2296,-2.2296,-2.2296,-2.2296,-2.2296,-2.2296,-2.2296,-2.2296,-2.2296,-2.2296,-2.2296,-2.2296,-2.2296,-2.2296,-2.2296,-2.2296,-2.2296,-2.2296,-2.2296,-2.2296,-2.2296,-2.244,-2.2708,-2.3335,-2.3806,-2.4103,-2.35,-2.3177,-0.6158,0.0,-0.546,-0.5296,-0.5003,-0.4732,0.0,-0.5378,-0.6252,-0.7143,-0.8531,-0.9933,-1.1136,-1.244,-1.3727,-1.5002,-1.5963,-1.7623,-2.0682,-2.5788,-2.9958,-3.2012,-3.317,-3.3813,-3.3857,-3.3524,-3.2873,-3.1861,-3.1893,-3.123,-2.9565,-2.8326,-2.7423,-2.6866,-2.6076,-2.5839,-2.6156,-2.6067,-2.5524,-2.4592,-2.4471,-2.4116,-2.3595,-2.3595,-2.3595,-2.3595,-2.3595,0.0,-2.3526,-2.2511,-2.2709,-2.3514,-2.2352,-2.245,-2.3198,-2.2899,-2.3006,-2.334,-2.356,-2.3557,-2.3401,-2.2927,-2.2561,-2.2296,-2.2296,-2.2487,-2.2784,-2.32,-2.3511,-2.3785,-2.4103,-2.419,-2.419,-2.419,-2.419,-2.4044,-2.3455,-2.3265,-2.3038,-2.249,-2.2349,-2.2296,-2.2296,-2.2296,-2.2296,-2.2296,-2.2296,-2.2296,-2.2296,-2.2296,-2.2296,-2.2296,-2.2296,-2.2296,-2.2296,-2.2296,-2.2296,-2.2296,-2.2296,-2.2296,-2.2296,-2.2296,-2.2296,-2.2296,-2.2296,-2.244,-2.2708,-2.286,-2.3105,-2.3426,-2.3271,-2.3069,-0.6118,-0.583,-0.5561,-0.523,-0.4872,-0.4597,-0.4597,-0.4814,-0.5351,-0.6382,-0.7339,-0.8379,-0.9584,-1.0771,-1.1922,-1.3056,-1.3877,-1.5693,-1.9474,-2.4518,-2.8541,-3.0454,-3.1836,-3.2781,-3.3148,-3.2752,-3.2115,-3.1261,-3.1409,-3.0769,-2.9022,-2.7816,-2.6876,-2.62,-2.5533,-2.5335,-2.5633,-2.5392,-2.4973,-2.441,-2.4158,-2.3879,-2.3595,-2.3595,-2.3595,-2.3595,-2.3595,0.0,-2.3505,-2.2218,-2.2234,-2.2974,-2.1821,-2.1764,-2.228,-2.2359,-2.2586,-2.2907,-2.2859,-2.2809,-2.276,-2.2628,-2.2443,-2.2296,-2.2296,-2.2398,-2.2577,-2.2873,-2.32,-2.3555,-2.3886,-2.4084,-2.419,-2.419,-2.4084,-2.3827,-2.3311,-2.3081,-2.284,-2.2391,-2.2296,-2.2296,-2.2296,-2.2296,-2.2296,-2.2296,-2.2296,-2.2296,-2.2296,-2.2296,-2.2296,-2.2296,-2.2296,-2.2296,-2.2296,-2.2296,-2.2296,-2.2296,-2.2296,-2.2296,-2.2296,-2.2296,-2.2296,-2.2296,-2.2296,-2.244,-2.2708,-2.2708,-2.2873,-2.3189,-2.3045,-2.2855,-0.629,-0.5987,-0.5513,-0.4952,-0.476,-0.4684,-0.466,-0.4583,-0.4811,-0.5869,-0.6236,-0.6721,-0.7952,-0.9013,-0.9958,-1.0743,-1.1762,-1.3899,-1.8008,-2.2338,-2.6074,-2.8705,-3.0086,-3.124,-3.2256,-3.1567,-3.0841,-3.0333,-3.0703,-3.0176,-2.8363,-2.7295,-2.6369,-2.5599,-2.5192,-2.4969,-2.4969,-2.4592,-2.4348,-2.4266,-2.3815,-2.3595,-2.3595,-2.3595,-2.3595,-2.3595,0.0,0.0,-2.3505,-2.2218,-2.2024,-2.2459,-2.1688,-2.1312,-2.1265,-2.1794,-2.2182,-2.2425,-2.1928,-2.2213,-2.2786,-2.2668,-2.2564,-2.2465,-2.2465,-2.2381,-2.2349,-2.2573,-2.2873,-2.32,-2.3533,-2.3827,-2.4054,-2.4054,-2.3827,-2.3533,-2.3189,-2.291,-2.2625,-2.2349,-2.2296,-2.2296,-2.2296,-2.2296,-2.2296,-2.2296,-2.2296,-2.2296,-2.2296,-2.2296,-2.2296,-2.2296,-2.2296,-2.2296,-2.2296,-2.2296,-2.2296,-2.2296,-2.2296,-2.2296,-2.2296,-2.2296,-2.2296,-2.2296,-2.2296,-2.2412,-2.2634,-2.2634,-2.2789,-2.3063,-2.2776,-2.2634,-0.4818,-0.4926,-0.5084,-0.5306,-0.5039,-0.4657,-0.4556,-0.4508,-0.4377,-0.3892,-0.4544,-0.5105,-0.4935,-0.6822,-0.8301,-0.7995,-1.0176,-1.2799,-1.5274,-2.007,-2.4074,-2.6147,-2.7495,-2.8932,-3.0681,-2.9463,-2.8645,-2.8878,-2.9496,-2.9218,-2.7798,-2.6609,-2.5546,-2.4625,-2.4122,-2.3858,-2.3858,-2.4204,-2.4163,-2.3709,-2.3638,-2.3595,-2.3595,-2.3595,-2.3595,-2.3595,0.0,-2.3595,-2.3505,-2.2218,-2.1754,-2.1789,-2.1102,-2.082,-2.0847,-2.1281,-2.1463,-2.1607,-2.2296,-2.3661,-2.5,-2.4372,-2.3731,-2.3224,-2.3224,-2.2801,-2.231,-2.2349,-2.255,-2.286,-2.3189,-2.3305,-2.3357,-2.3357,-2.3305,-2.3177,-2.286,-2.2733,-2.2625,-2.2349,-2.2296,-2.2296,-2.2296,-2.2296,-2.2296,-2.2296,-2.2296,-2.2296,-2.2296,-2.2296,-2.2296,-2.2296,-2.2296,-2.2296,-2.2296,-2.2296,-2.2296,-2.2296,-2.2296,-2.2296,-2.2296,-2.2296,-2.2296,-2.2296,-2.2296,-2.2307,-2.236,-2.236,-2.2388,-2.2443,-2.2388,-2.236,-0.4598,-0.4937,-0.5221,-0.4485,-0.4627,-0.4911,-0.484,-0.4765,-0.462,-0.4235,-0.4568,-0.4846,-0.47,-0.5328,-0.6071,-0.6602,-0.8803,-1.0979,-1.2478,-1.6281,-1.9697,-2.1872,-2.324,-2.4756,-2.664,-2.6765,-2.6818,-2.6965,-2.8171,-2.8376,-2.7179,-2.5794,-2.4709,-2.3991,-2.373,-2.3595,-2.3595,-2.3837,-2.3837,-2.3595,-2.3595,-2.3595,-2.3595,-2.3595,-2.3595,-2.3595,0.0,-2.3415,-2.3047,-2.2084,-2.1485,-2.1096,-2.0423,-2.0154,-2.0302,-2.1467,-2.1827,-2.1923,-2.3357,-2.4363,-2.4949,-2.4609,-2.4068,-2.3547,-2.3547,-2.2892,-2.2191,-2.2406,-2.2581,-2.2733,-2.2898,-2.3069,-2.32,-2.32,-2.3057,-2.2898,-2.2733,-2.2586,-2.245,-2.2321,-2.2296,-2.2296,-2.2296,-2.2296,-2.2296,-2.2296,-2.2296,-2.2296,-2.2296,-2.2296,-2.2296,-2.2296,-2.2296,-2.2296,-2.2296,-2.2296,-2.2296,-2.2296,-2.2296,-2.2296,-2.2296,-2.2296,-2.2296,-2.2296,-2.2296,-2.2296,-2.2296,-2.2296,-2.2296,-2.2296,-2.2296,-2.2296,-0.4653,-0.502,-0.5197,-0.3743,-0.4068,-0.4697,-0.4475,-0.4329,-0.4225,-0.4035,-0.3856,-0.3752,-0.387,-0.3664,-0.4058,-0.5906,-0.7529,-0.8926,-0.9862,-1.227,-1.4363,-1.5428,-1.7446,-1.9178,-2.0282,-2.3006,-2.4767,-2.4959,-2.7031,-2.7804,-2.6675,-2.5318,-2.4348,-2.3794,-2.3794,-2.3858,-2.397,-2.3858,-2.3709,-2.3595,-2.3595,-2.3595,-2.3595,-2.3595,-2.3595,-2.3595,-2.3595,-2.3325,-2.2853,-2.2024,-2.1395,-2.0857,-2.0022,-1.9813,-2.0104,-2.1494,-2.217,-2.2603,-2.3994,-2.4559,-2.4662,-2.4662,-2.4265,-2.3781,-2.3781,-2.2959,-2.2047,-2.2362,-2.244,-2.2472,-2.2569,-2.2807,-2.303,-2.3205,-2.305,-2.2905,-2.3095,-2.2847,-2.2641,-2.2641,-2.2553,-2.2463,-2.2463,-2.2343,-2.2226,-2.2226,-2.2091,-2.2005,-2.2005,-2.2077,-2.2135,-2.2135,-2.2237,-2.2296,-2.2296,-2.2296,-2.2296,-2.2296,-2.2296,-2.2296,-2.2296,-2.2296,-2.2296,-2.2296,-2.2296,-2.2296,-2.2296,-2.2296,-2.2296,-2.2296,-2.2296,-2.2296,-0.4519,-0.4632,-0.46,-0.378,-0.3645,-0.3475,-0.2601,-0.2386,-0.2186,-0.1518,-0.0733,-0.02,-0.0335,-0.1121,-0.2736,-0.5714,-0.6342,-0.6778,-0.7791,-0.875,-0.8363,-0.5682,-0.9502,-1.1901,-1.0722,-1.7342,-2.2104,-2.3014,-2.6326,-2.772,-2.6395,-2.558,-2.491,-2.4348,-2.4348,-2.4592,-2.5086,-2.4592,-2.4095,-2.3595,-2.3595,-2.3595,-2.3595,-2.3595,-2.3595,-2.3595,-2.3595,-2.358,-2.343,-2.2203,-2.1665,-2.15,-2.0202,-2.0079,-2.0628,-2.0775,-2.1877,-2.334,-2.3452,-2.4207,-2.5137,-2.5137,-2.4647,-2.4079,-2.4079,-2.3101,-2.2013,-2.2047,-2.1874,-2.1777,-2.222,-2.2349,-2.2533,-2.3226,-2.3381,-2.3539,-2.4215,-2.396,-2.3605,-2.3605,-2.3253,-2.2955,-2.2955,-2.2432,-2.2017,-2.2017,-2.1504,-2.1086,-2.1086,-2.1414,-2.1658,-2.1658,-2.2032,-2.2296,-2.2296,-2.2296,-2.2296,-2.2296,-2.2296,-2.2296,-2.2296,-2.2296,-2.2296,-2.2296,-2.2296,-2.2296,-2.2296,-2.2296,-2.2296,-2.2296,-2.2296,-2.2296,-0.4491,-0.4172,-0.3661,-0.2901,-0.238,-0.1962,-0.1589,-0.2022,-0.2239,-0.1287,-0.0844,-0.0457,0.0035,-0.1271,-0.261,-0.3227,-0.34,-0.3404,-0.3231,-0.271,-0.1483,0.0725,-0.0191,-0.3009,-0.8105,-1.2513,-1.7688,-2.4101,-2.6535,-2.733,-2.6349,-2.5268,-2.4612,-2.441,-2.4654,-2.5032,-2.5575,-2.5373,-2.5013,-2.4463,-2.3876,-2.3595,-2.3595,-2.3595,-2.3595,-2.3595,-2.3595,-2.3146,-2.2383,-2.1904,-2.1201,-2.0412,-1.9902,-1.9839,-2.0124,-2.0557,-2.1333,-2.2279,-2.2645,-2.3298,-2.4023,-2.4438,-2.4163,-2.3673,-2.3673,-2.3099,-2.2374,-2.208,-2.1938,-2.1956,-2.2427,-2.2778,-2.3173,-2.3915,-2.3836,-2.365,-2.3948,-2.3603,-2.326,-2.326,-2.3119,-2.2992,-2.2992,-2.2787,-2.2488,-2.206,-2.1789,-2.147,-2.1055,-2.1134,-2.1228,-2.1228,-2.1598,-2.1988,-2.2282,-2.2296,-2.2296,-2.2296,-2.2296,-2.2296,-2.2296,-2.2296,-2.2296,-2.2296,-2.2296,-2.2296,-2.2296,-2.2296,-2.2296,-2.2296,-2.2296,-2.2296,-0.4625,-0.4076,-0.3402,-0.2454,-0.164,-0.0866,0.0033,-0.0846,-0.1554,-0.0476,-0.0256,-0.0072,0.0466,-0.0842,-0.1785,-0.1254,-0.1003,-0.0483,0.0621,0.2753,0.5138,0.7654,0.7362,0.3916,-0.3816,-1.0792,-1.7612,-2.4365,-2.6523,-2.7114,-2.6185,-2.5188,-2.4637,-2.4637,-2.5035,-2.5606,-2.637,-2.6067,-2.5698,-2.5231,-2.4017,-2.3503,-2.3595,-2.3595,-2.349,-2.331,-2.331,-2.2697,-2.168,-2.147,-2.0787,-1.9892,-1.9892,-2.0102,-2.0487,-2.0941,-2.1484,-2.2039,-2.2441,-2.2835,-2.3218,-2.3681,-2.3584,-2.3283,-2.3283,-2.2894,-2.2421,-2.2095,-2.1937,-2.2054,-2.2865,-2.3117,-2.3385,-2.4373,-2.4199,-2.3876,-2.4122,-2.3779,-2.3424,-2.3424,-2.3309,-2.3195,-2.3195,-2.3042,-2.2764,-2.2282,-2.2034,-2.1659,-2.1004,-2.1013,-2.1117,-2.1182,-2.143,-2.1794,-2.2268,-2.2296,-2.2296,-2.2296,-2.2296,-2.2296,-2.2296,-2.2296,-2.2296,-2.2296,-2.2296,-2.2296,-2.2296,-2.2296,-2.2296,-2.2296,-2.2296,-2.2296,-0.4873,-0.4446,-0.4049,-0.2553,-0.1643,-0.0364,0.245,0.1505,0.0287,0.139,0.1582,0.1515,0.1335,0.0572,-0.0036,-0.0175,0.0542,0.1726,0.3401,0.7083,1.1228,1.554,1.2529,0.8169,0.327,-1.2603,-2.2801,-2.3301,-2.6098,-2.7204,-2.587,-2.5422,-2.5202,-2.5202,-2.5593,-2.637,-2.7582,-2.6682,-2.6065,-2.5776,-2.3978,-2.3283,-2.358,-2.358,-2.3272,-2.2688,-2.2688,-2.2313,-2.1635,-2.0976,-2.0549,-2.0297,-2.0297,-2.099,-2.198,-2.198,-2.2408,-2.2976,-2.2976,-2.2976,-2.2976,-2.2992,-2.2992,-2.2992,-2.2992,-2.2518,-2.2012,-2.2013,-2.1811,-2.1959,-2.3506,-2.3259,-2.2981,-2.446,-2.4452,-2.4295,-2.5022,-2.4756,-2.4389,-2.4389,-2.3948,-2.3595,-2.3595,-2.3107,-2.2703,-2.2703,-2.2113,-2.147,-2.0778,-2.1057,-2.1371,-2.1572,-2.1582,-2.1794,-2.2268,-2.2296,-2.2296,-2.2296,-2.2296,-2.2296,-2.2296,-2.2296,-2.2296,-2.2296,-2.2296,-2.2296,-2.2296,-2.2296,-2.2296,-2.2296,-2.2296,-2.2296,-0.4732,-0.4107,-0.3465,-0.2454,-0.1181,0.0317,0.2301,0.1309,0.0287,0.139,0.0994,0.0705,0.1372,0.0688,0.018,0.0771,0.2144,0.3932,0.6226,0.9137,1.1466,1.2729,1.0895,0.5732,-0.3965,-1.1386,-1.849,-2.5446,-2.7025,-2.7136,-2.587,-2.5422,-2.5202,-2.5202,-2.5836,-2.6467,-2.7102,-2.7156,-2.6649,-2.5575,-2.4607,-2.3635,-2.2683,-2.2375,-2.2158,-2.1994,-2.1994,-2.162,-2.0946,-2.0273,-2.0127,-2.0297,-2.0297,-2.0709,-2.1294,-2.1294,-2.1422,-2.1598,-2.1598,-2.1598,-2.1661,-2.2139,-2.2298,-2.2298,-2.2298,-2.2488,-2.2572,-2.1907,-2.1999,-2.2616,-2.3957,-2.3849,-2.3753,-2.5285,-2.4957,-2.4362,-2.4585,-2.422,-2.3837,-2.3837,-2.3724,-2.3595,-2.3595,-2.3445,-2.3197,-2.2763,-2.2523,-2.1999,-2.0838,-2.0805,-2.096,-2.1167,-2.1181,-2.1477,-2.224,-2.2296,-2.2296,-2.2296,-2.2296,-2.2296,-2.2296,-2.2296,-2.2296,-2.2296,-2.2296,-2.2296,-2.2296,-2.2296,-2.2296,-2.2296,-2.2296,-2.2296,-0.5334,-0.4425,-0.3457,-0.2107,-0.0562,0.0973,0.2319,0.215,0.1617,0.1508,0.1045,0.0694,0.0935,0.0431,0.0391,0.1657,0.334,0.528,0.7536,0.9289,1.0105,0.9399,0.6119,0.0436,-0.8379,-1.2872,-1.8195,-2.5402,-2.6152,-2.5967,-2.5282,-2.5019,-2.4748,-2.4499,-2.5231,-2.585,-2.6339,-2.6656,-2.6405,-2.5613,-2.4679,-2.3484,-2.2111,-2.2,-2.1706,-2.1291,-2.1021,-2.0677,-2.0273,-2.0056,-2.0193,-2.0583,-2.0749,-2.1086,-2.1524,-2.1524,-2.1524,-2.1524,-2.1524,-2.1524,-2.1574,-2.2,-2.2115,-2.2115,-2.2115,-2.2394,-2.2606,-2.2044,-2.2385,-2.3163,-2.4211,-2.4312,-2.4393,-2.543,-2.5028,-2.4348,-2.4137,-2.3837,-2.3595,-2.3595,-2.3595,-2.3595,-2.3595,-2.3595,-2.3475,-2.3122,-2.2853,-2.2418,-2.1605,-2.1261,-2.1095,-2.1119,-2.1546,-2.1892,-2.2024,-2.2461,-2.2615,-2.2313,-2.2296,-2.2296,-2.2296,-2.2296,-2.2296,-2.2296,-2.2296,-2.2296,-2.2296,-2.2296,-2.2296,-2.2296,-2.2296,-2.2296,-0.6121,-0.4969,-0.3798,-0.1624,0.016,0.1636,0.2509,0.3455,0.3619,0.1704,0.1389,0.1155,0.0176,0.0,0.0554,0.2287,0.3922,0.5536,0.7223,0.7608,0.7027,0.5144,-0.0921,-0.668,-1.1062,-1.6283,-2.0689,-2.3806,-2.4067,-2.4147,-2.4209,-2.4173,-2.388,-2.3249,-2.3975,-2.4675,-2.527,-2.5457,-2.5589,-2.568,-2.4387,-2.3115,-2.1908,-2.2074,-2.1602,-2.0569,-1.9959,-1.9711,-1.9782,-2.0158,-2.06,-2.1086,-2.146,-2.1899,-2.2296,-2.2296,-2.2296,-2.2296,-2.2296,-2.2296,-2.2296,-2.2296,-2.2296,-2.2296,-2.2296,-2.2296,-2.2313,-2.2381,-2.2885,-2.3594,-2.4389,-2.4745,-2.4951,-2.5196,-2.4831,-2.4266,-2.3773,-2.3638,-2.3595,-2.3595,-2.3595,-2.3595,-2.3595,-2.3595,-2.3595,-2.3595,-2.3116,-2.2763,-2.2703,-2.2179,-2.1696,-2.1417,-2.2368,-2.2694,-2.1864,-2.2739,-2.3061,-2.2431,-2.233,-2.2296,-2.2296,-2.2296,-2.2296,-2.2296,-2.2296,-2.2296,-2.2296,-2.2296,-2.2296,-2.2296,-2.2296,-2.2296,-0.4345,-0.3766,-0.3197,-0.1526,0.064,0.2386,0.2626,0.3414,0.3532,0.1692,0.0785,0.0281,0.0035,0.0,0.0339,0.1442,0.1999,0.2716,0.39,0.2777,0.053,-0.2921,-0.7217,-1.1693,-1.6318,-1.935,-2.1494,-2.2696,-2.3185,-2.3272,-2.2924,-2.2511,-2.2214,-2.2083,-2.2493,-2.3031,-2.368,-2.4601,-2.5035,0.0,-2.4496,-2.3685,-2.2637,-2.1587,-2.0677,-1.9899,-1.9768,-1.9874,-2.0193,-2.0263,-2.0749,-2.1476,-2.1567,-2.1899,-2.2296,-2.2296,-2.2296,-2.2296,-2.2296,-2.2296,-2.2296,-2.2296,-2.2296,-2.2296,-2.2296,-2.2296,-2.2415,-2.3004,-2.3274,-2.3697,-2.5017,-2.5393,-2.5497,-2.5761,-2.5105,-2.4369,-2.4246,-2.39,-2.3595,-2.3595,-2.3595,-2.3595,-2.3595,-2.3595,-2.3595,-2.3595,-2.349,-2.3236,-2.2763,-2.2568,-2.237,-2.2105,-2.2316,-2.2675,-2.3194,-2.2961,-2.2884,-2.3158,-2.2632,-2.2296,-2.2296,-2.2296,-2.2296,-2.2296,-2.2296,-2.2296,-2.2296,-2.2296,-2.2296,-2.2296,-2.2296,-2.2296,-0.4384,-0.3696,-0.3005,-0.1479,0.0511,0.212,0.2059,0.2388,0.2435,0.1509,0.0953,0.0481,0.0069,0.0,0.0168,0.0691,0.0607,0.0464,0.0329,-0.2102,-0.5095,-0.8397,-1.204,-1.5421,-1.8356,-1.9846,-2.0805,-2.1173,-2.1458,-2.154,-2.1365,-2.0803,-2.0351,-2.0026,-2.0378,-2.0912,-2.1649,-2.3059,-2.4066,-2.4702,-2.4495,-2.364,-2.2196,-2.1065,-2.0249,-1.9708,-1.9708,-1.9836,-2.0052,-2.0449,-2.0894,-2.1353,-2.1764,-2.2092,-2.2296,-2.2296,-2.2296,-2.2296,-2.2296,-2.2533,-2.2835,-2.2835,-2.3071,-2.3291,-2.2936,-2.2835,-2.2835,-2.2868,-2.3122,-2.3663,-2.478,-2.5143,-2.5346,-2.5867,-2.5373,-2.4697,-2.4471,-2.397,-2.3595,-2.3595,-2.3595,-2.3595,-2.3595,-2.3595,-2.3595,-2.3595,-2.3595,-2.349,-2.3182,-2.3137,-2.2966,-2.253,-2.297,-2.334,-2.3397,-2.3554,-2.357,-2.3397,-2.3038,-2.2682,-2.2313,-2.2296,-2.2296,-2.2296,-2.2296,-2.2296,-2.2296,-2.2296,-2.2296,-2.2296,-2.2296,-2.2296,-0.4664,-0.3708,-0.2882,-0.1886,-0.0534,0.0536,0.0378,0.0539,0.0759,0.0866,0.1087,0.1058,0.0332,0.0199,0.0132,0.0,-0.0805,-0.1945,-0.354,-0.6876,-1.0077,-1.2487,-1.5666,-1.8018,-1.8959,-1.9442,-1.9697,-1.9729,-1.9733,-1.9677,-1.9592,-1.9034,-1.8416,-1.7752,-1.8154,-1.885,-1.9814,-2.149,-2.3038,-2.4497,-2.4335,-2.328,-2.1483,-2.0749,-2.0158,-1.9708,-1.9708,-1.9729,-1.9871,-2.0665,-2.1039,-2.1166,-2.1991,-2.2296,-2.2296,-2.2296,-2.2381,-2.2496,-2.2496,-2.297,-2.3594,-2.3594,-2.4,-2.4389,-2.378,-2.3594,-2.3477,-2.3021,-2.3249,-2.3796,-2.4568,-2.4813,-2.5045,-2.5704,-2.5449,-2.495,-2.4491,-2.4053,-2.3724,-2.3616,-2.3595,-2.3595,-2.3595,-2.3595,-2.3595,-2.3595,-2.3595,-2.3595,-2.3595,-2.3595,-2.34,-2.2912,-2.3707,-2.404,-2.3512,-2.4212,-2.4414,-2.3819,-2.3663,-2.3257,-2.2516,-2.2496,-2.2431,-2.2296,-2.2296,-2.2296,-2.2296,-2.2296,-2.2296,-2.2296,-2.2296,-2.2296,-0.3102,-0.2455,-0.2586,-0.3629,-0.3746,-0.3585,-0.357,-0.252,-0.1406,-0.0891,0.0248,0.109,0.0966,0.0966,0.0527,-0.0735,-0.302,-0.5552,-0.8043,-1.1317,-1.4194,-1.6077,-1.773,-1.8936,-1.9548,-1.9657,-1.9505,-1.9079,-1.9022,-1.8611,-1.7644,-1.7082,-1.648,-1.5868,-1.6431,-1.751,-1.9131,-2.0739,-2.2394,-2.4072,-2.3762,-2.2882,-2.1498,-2.1086,-2.0465,-1.9708,-1.9708,-1.9909,-2.0246,-2.078,-2.1213,-2.1567,-2.2092,-2.2296,-2.2296,-2.2296,-2.2699,-2.3241,-2.3241,-2.3746,-2.4355,-2.4355,-2.4423,-2.4474,-2.4372,-2.4355,-2.4474,-2.5017,-2.4912,-2.4793,-2.5589,-2.546,-2.5169,-2.5265,-2.491,-2.4491,-2.441,-2.4348,-2.4158,-2.3702,-2.3595,-2.3595,-2.3595,-2.3595,-2.3595,-2.3595,-2.3595,-2.3595,-2.3595,-2.3595,-2.3565,-2.349,-2.3614,-2.4039,-2.4853,-2.4484,-2.4512,-2.5257,-2.4711,-2.4017,-2.3274,-2.3241,-2.2953,-2.2313,-2.2296,-2.2296,-2.2296,-2.2296,-2.2296,-2.2296,-2.2296,-2.2296,-0.3795,-0.4012,-0.4962,-0.6447,-0.6771,-0.6806,-0.7178,-0.608,-0.4777,-0.4138,-0.2895,-0.1302,0.0732,0.1108,0.0365,-0.1914,-0.4601,-0.7528,-1.0698,-1.3644,-1.5996,-1.7437,-1.8387,-1.9114,-1.9639,-1.9708,-1.935,-1.8516,-1.8458,-1.7814,-1.6387,-1.575,-1.5165,-1.4564,-1.5131,-1.6216,-1.7805,-1.975,-2.1636,-2.343,-2.3069,-2.2288,-2.1211,-2.0781,-2.0278,-1.9708,-1.9708,-1.9927,-2.0348,-2.0813,-2.1244,-2.1658,-2.212,-2.2296,-2.2296,-2.2296,-2.2767,-2.3393,-2.3393,-2.4154,-2.5069,-2.4778,-2.4963,-2.5213,-2.4493,-2.4463,-2.4597,-2.4246,-2.4162,-2.4293,-2.4798,-2.4531,-2.4241,-2.4658,-2.4556,-2.4307,-2.4012,-2.3948,-2.3879,-2.3638,-2.3595,-2.3595,-2.3595,-2.3595,-2.3595,-2.3595,-2.3595,-2.3595,-2.3595,-2.3595,-2.3595,-2.3595,-2.3595,-2.4032,-2.5105,-2.4894,-2.4964,-2.5561,-2.5304,-2.4795,-2.4051,-2.3613,-2.3427,-2.3528,-2.2733,-2.2296,-2.2296,-2.2296,-2.2296,-2.2296,-2.2296,-2.2296,-0.5314,-0.6216,-0.762,-0.9149,-0.9563,-0.9736,-1.0418,-0.9442,-0.8229,-0.7626,-0.6334,-0.4478,-0.1692,-0.0559,-0.0853,-0.3363,-0.6211,-0.9285,-1.2602,-1.5135,-1.699,-1.7973,-1.8574,-1.9062,-1.946,-1.9621,-1.9314,-1.838,-1.8185,-1.7423,-1.5884,-1.5253,-1.4641,-1.405,-1.4755,-1.5763,-1.7117,-1.9496,-2.1389,-2.277,-2.2479,-2.1792,-2.0813,-2.0466,-2.0072,-1.9708,-1.9708,-1.9927,-2.0348,-2.0813,-2.1244,-2.1658,-2.212,-2.2296,-2.2296,-2.2296,-2.2885,-2.3678,-2.3678,-2.4566,-2.5631,-2.524,-2.541,-2.5609,-2.4668,-2.462,-2.4705,-2.3809,-2.3704,-2.3926,-2.4121,-2.3783,-2.3504,-2.4076,-2.4199,-2.4116,-2.3858,-2.3702,-2.3638,-2.3773,-2.3702,-2.3638,-2.3773,-2.3702,-2.3595,-2.3595,-2.3595,-2.3595,-2.3595,-2.3595,-2.3595,-2.3595,-2.3595,-2.397,-2.493,-2.5008,-2.5148,-2.5479,-2.5631,-2.5362,-2.4622,-2.4052,-2.3918,-2.4286,-2.3108,-2.2542,-2.266,-2.2542,-2.2482,-2.2482,-2.2601,-2.266,-0.7243,-0.8371,-0.9703,-1.1186,-1.2029,-1.2603,-1.3086,-1.2253,-1.1261,-1.083,-0.9334,-0.7967,-0.7503,-0.5035,-0.3547,-0.5056,-0.8126,-1.1283,-1.401,-1.6034,-1.7463,-1.8027,-1.8574,-1.8912,-1.8949,-1.9406,-1.946,-1.8893,-1.84,-1.7599,-1.6421,-1.5862,-1.5276,-1.4675,-1.574,-1.6775,-1.7744,-2.0575,-2.2062,-2.2149,-2.2121,-2.1498,-2.0348,-2.0314,-2.0072,-1.9708,-1.9708,-1.9927,-2.0348,-2.0813,-2.1244,-2.1658,-2.212,-2.2296,-2.2296,-2.2296,-2.3207,-2.444,-2.444,-2.5129,-2.5965,-2.5947,-2.5619,-2.524,-2.5154,-2.5157,-2.5176,-2.5106,-2.4741,-2.4362,-2.4388,-2.3987,-2.3593,-2.3623,-2.3638,-2.3773,-2.4246,-2.3964,-2.3752,-2.4266,-2.3948,-2.3752,-2.4266,-2.3943,-2.3595,-2.3595,-2.3595,-2.3595,-2.3595,-2.3595,-2.3595,-2.3595,-2.3595,-2.3837,-2.4389,-2.445,-2.4661,-2.5176,-2.5695,-2.5617,-2.4824,-2.4741,-2.4412,-2.3737,-2.3231,-2.3165,-2.3622,-2.3181,-2.2952,-2.297,-2.3422,-2.3622,-0.9384,-1.0872,-1.2407,-1.3323,-1.4072,-1.4699,-1.5269,-1.5023,-1.4519,-1.3939,-1.326,-1.2478,-1.1494,-0.7937,-0.5908,-0.8222,-1.0027,-1.2106,-1.4823,-1.6111,-1.6993,-1.7524,-1.7767,-1.8145,-1.8836,-1.9062,-1.9114,-1.8912,-1.8708,-1.7979,-1.6485,-1.6219,-1.5674,-1.4721,-1.5806,-1.7234,-1.8943,-2.0572,-2.1381,-2.1381,-2.1381,-2.1007,-2.0297,-2.0035,-1.9854,-1.9708,-1.9708,-1.9927,-2.0314,-2.0483,-2.0975,-2.1628,-2.1794,-2.2032,-2.2296,-2.2296,-2.3224,-2.4444,-2.4111,-2.4878,-2.5888,-2.5202,-2.4835,-2.4617,-2.4266,-2.441,-2.4597,-2.4266,-2.4287,-2.4307,-2.397,-2.373,-2.3595,-2.3595,-2.3595,-2.3659,-2.3858,-2.4012,-2.4266,-2.4812,-2.4772,-2.4592,-2.443,-2.4225,-2.3991,-2.3659,-2.3595,-2.3595,-2.3595,-2.3595,-2.3595,-2.3595,-2.3595,-2.3815,-2.4348,-2.441,-2.4632,-2.5163,-2.5373,-2.5354,-2.5077,-2.4588,-2.4459,-2.4654,-2.3702,-2.322,-2.3243,-2.3081,-2.2992,-2.2992,-2.3171,-2.3243,-1.1481,-1.3121,-1.4699,-1.5093,-1.5682,-1.6287,-1.6676,-1.6727,-1.6672,-1.6586,-1.6401,-1.6006,-1.5244,-1.2103,-1.0027,-1.1214,-1.1884,-1.3033,-1.5274,-1.5964,-1.6411,-1.6972,-1.7188,-1.7646,-1.8535,-1.8798,-1.8968,-1.9151,-1.9006,0.0,-1.7307,-1.7073,-1.6705,-1.6127,-1.6839,-1.8068,-1.9816,-2.0451,-2.078,-2.078,-2.078,-2.0532,-2.0089,-1.9836,-1.9708,-1.9708,-1.9708,-1.9927,-2.0297,-2.0297,-2.0716,-2.1399,-2.1399,-2.1658,-2.2077,-2.2077,-2.2847,-2.3872,-2.3736,-2.432,-2.5048,-2.4554,-2.4266,-2.4053,-2.3724,-2.3858,-2.4053,-2.3702,-2.3858,-2.4053,-2.3702,-2.3595,-2.3595,-2.3595,-2.3595,-2.3659,-2.3837,-2.4012,-2.4287,-2.4831,-2.4792,-2.4612,-2.443,-2.4246,-2.4012,-2.3659,-2.3595,-2.3595,-2.3595,-2.3595,-2.3595,-2.3595,-2.3595,-2.373,-2.4095,-2.4137,-2.4287,-2.4652,-2.4831,-2.4914,-2.4914,-2.4467,-2.4432,-2.4934,-2.3915,-2.3323,-2.3207,-2.3207,-2.3207,-2.3222,-2.3378,-2.3472,0.0,0.0,0.0,-1.6455,-1.687,-1.7312,-1.7333,-1.7333,-1.7626,-1.8669,-1.8496,-1.8302,-1.8817,-1.7572,-1.5815,-1.3845,-1.3639,-1.4171,-1.542,-1.5588,-1.5798,-1.6402,-1.693,-1.7463,-1.8027,-1.8554,-1.908,-1.9603,-1.9188,-1.8893,-1.8874,-1.838,-1.8361,-1.8874,-1.8893,-1.9328,-2.028,-2.0297,-2.0297,-2.028,-2.0297,-2.0089,-1.9708,-1.9708,-1.9708,-1.9708,-1.9708,-1.9927,-2.028,-2.028,-2.055,-2.0975,-2.0975,-2.1228,-2.1582,-2.1582,-2.2041,-2.2781,-2.3424,-2.3554,-2.351,-2.4172,-2.4012,-2.3595,-2.3595,-2.3595,-2.3595,-2.3595,-2.3595,-2.3595,-2.3595,-2.3595,-2.3595,-2.3595,-2.3595,-2.373,-2.4266,-2.397,-2.3752,-2.4307,-2.3991,-2.3815,-2.4307,-2.397,-2.3616,-2.3595,-2.3595,-2.3595,-2.3595,-2.3595,-2.3595,-2.3595,-2.3595,-2.3595,-2.3595,-2.3595,-2.3595,-2.3595,-2.4095,-2.4369,-2.4369,-2.4369,-2.4369,-2.4369,-2.3858,-2.3595,-2.3595,-2.3595,-2.3595,-2.3616,-2.4137,-2.4369,-1.5323,0.0,0.0,0.0,0.0,0.0,-1.7787,-1.7887,-1.8066,-1.8746,-1.9095,-1.9188,-1.8949,-1.8521,-1.7766,-1.6443,-1.5205,-1.4698,-1.5499,-1.5231,-1.5163,-1.5776,-1.5983,-1.6446,-1.7422,-1.7666,-1.7967,0.0,-1.8746,-1.8727,-1.8341,-1.8185,-1.8361,-1.8874,-1.8893,-1.921,-1.9856,-2.0158,-2.0158,-1.9874,-2.0158,-2.0089,-1.9708,-1.9708,-1.9708,-1.9708,-1.9708,-1.9764,-1.9874,-1.9874,-2.0122,-2.05,-2.05,-2.0764,-2.1166,-2.1166,-2.1633,-2.2295,-2.2584,-2.2998,-2.3451,-2.3736,-2.3709,-2.3595,-2.3595,-2.3595,-2.3595,-2.3595,-2.3595,-2.3595,-2.3595,-2.3595,-2.3595,-2.3595,-2.3595,-2.3638,-2.3794,-2.3702,-2.3879,-2.4796,-2.4871,-2.4677,-2.445,-2.4266,-2.4053,-2.3659,-2.3595,-2.3595,-2.3595,-2.3595,-2.3595,-2.3595,-2.3595,-2.3595,-2.3595,-2.3595,-2.3595,-2.3595,-2.3745,-2.3815,-2.3815,-2.3815,-2.3815,-2.3815,-2.3681,-2.3595,-2.3595,-2.3595,-2.3595,-2.3595,-2.3752,-2.3815,-1.6796,-1.7733,-1.8438,-1.8438,0.0,0.0,-1.8086,-1.8283,-1.8458,-1.8554,-1.8987,-1.9207,-1.8669,-1.838,-1.8027,-1.7415,-1.5828,-1.4903,-1.5521,-1.4869,-1.4641,-1.5499,-1.561,-1.6058,-1.7175,-1.7312,-1.7524,-1.8066,-1.84,-1.8535,-1.8438,-1.865,-1.8912,-1.9225,-1.9225,-1.9387,-1.9708,-1.9929,-1.9929,-1.9708,-1.9929,-1.9927,-1.9708,-1.9708,-1.9708,-1.9708,-1.9708,-1.9708,-1.9708,-1.9708,-1.9839,-2.0052,-2.0052,-2.0313,-2.0715,-2.0715,-2.0985,-2.1441,-2.2071,-2.2463,-2.2797,-2.3402,-2.3595,-2.3595,-2.3595,-2.3595,-2.3595,-2.3595,-2.3595,-2.3595,-2.3595,-2.3595,-2.3595,-2.3595,-2.3595,-2.3595,-2.3595,-2.3595,-2.3773,-2.441,-2.4532,-2.443,-2.4116,-2.4074,-2.3948,-2.3638,-2.3595,-2.3595,-2.3595,-2.3595,-2.3595,-2.3595,-2.3595,-2.3595,-2.3595,-2.3595,-2.3595,-2.3595,-2.3595,-2.3595,-2.3595,-2.3595,-2.3595,-2.3595,-2.3595,-2.3595,-2.3595,-2.3595,-2.3595,-2.3595,-2.3595,-2.3595,-1.797,-1.8517,-1.8987,-1.8987,-1.8949,0.0,-1.838,-1.8554,-1.8688,-1.8283,-1.8516,-1.865,-1.8125,-1.7666,-1.7353,-1.7229,-1.5894,-1.5028,-1.5432,-1.4457,-1.4156,-1.5365,-1.5499,-1.5949,-1.7105,-1.7209,-1.7415,-1.7887,-1.7987,-1.8283,-1.8874,-1.935,-1.9639,-1.9708,-1.9708,-1.9708,-1.9708,-1.9708,-1.9708,-1.9708,-1.9708,-1.9708,-1.9708,-1.9708,-1.9708,-1.9708,-1.9708,-1.9708,-1.9708,-1.9708,-1.9708,-1.9708,-1.9708,-1.9927,-2.0229,-2.0229,-2.0229,-2.0414,-2.1686,-2.1941,-2.1904,-2.3101,-2.355,-2.3595,-2.3595,-2.3595,-2.3595,-2.3595,-2.3595,-2.3595,-2.3595,-2.3595,-2.3595,-2.3595,-2.3595,-2.3595,-2.3595,-2.3595,-2.3595,-2.3595,-2.3595,-2.3595,-2.3595,-2.3595,-2.3595,-2.3595,-2.3595,-2.3595,-2.3595,-2.3595,-2.3595,-2.3595,-2.3595,-2.3595,-2.3595,-2.3595,-2.3595,-2.3595,-2.3595,-2.3595,-2.3595,-2.3595,-2.3595,-2.3595,-2.3595,-2.3595,-2.3595,-2.3595,-2.3595,-2.3595,-2.3595,-2.3595,-1.8693,-1.9136,-1.9548,-1.9548,-1.9225,0.0,-1.9314,-1.8798,-1.8361,-1.8669,-1.8477,-1.8086,-1.7544,-1.7727,-1.7666,-1.6795,-1.633,-1.5784,-1.4983,-1.3836,-1.3515,-1.4721,-1.488,-1.5332,-1.6539,-1.6659,-1.6689,-1.6795,-1.7209,-1.7887,-1.8855,-1.9006,-1.9244,-1.969,-1.9708,-1.9708,-1.9708,-1.9708,-1.9708,-1.9708,-1.9708,-1.9708,-1.9708,-1.9708,-1.9708,-1.9708,-1.9708,-1.9708,-1.9708,-1.9708,-1.9708,-1.9708,-1.9708,-1.9747,-1.9836,-1.9836,-1.9836,-1.9924,-2.0734,-2.1323,-2.1829,-2.2628,-2.3191,-2.3595,-2.3595,-2.3595,-2.3595,-2.3595,-2.3595,-2.3595,-2.3595,-2.3595,-2.3595,-2.3595,-2.3595,-2.3595,-2.3595,-2.3595,-2.3595,-2.3595,-2.3595,-2.3595,-2.3595,-2.3595,-2.3595,-2.3595,-2.3595,-2.3595,-2.3595,-2.3595,-2.3595,-2.3595,-2.3595,-2.3595,-2.3595,-2.3595,-2.3595,-2.3595,-2.3595,-2.3595,-2.3595,-2.3595,-2.3595,-2.3595,-2.3595,-2.3595,-2.3595,-2.3595,-2.3595,-2.3595,-2.3595,-2.3595,-1.9299,-1.9497,-1.9708,-1.9708,-1.9497,0.0,0.0,-1.9281,-1.8893,-1.8893,-1.8477,-1.8027,-1.7747,-1.7706,-1.7605,-1.7353,-1.7024,-1.6608,-1.6031,-1.471,-1.4131,-1.5028,-1.5141,-1.5511,-1.6402,-1.65,-1.65,-1.65,-1.6993,-1.7646,-1.8458,-1.8746,-1.9151,-1.969,-1.9708,-1.9708,-1.9708,-1.9708,-1.9708,-1.9708,-1.9708,-1.9708,-1.9708,-1.9708,-1.9708,-1.9708,-1.9708,-1.9708,-1.9708,-1.9708,-1.9708,-1.9708,-1.9708,-1.9708,-1.9708,-1.9708,-1.9708,-1.9813,-2.0483,-2.0912,-2.1321,-2.1979,-2.2643,-2.3152,-2.3152,-2.3355,-2.3595,-2.3595,-2.3595,-2.3595,-2.3595,-2.3595,-2.3595,-2.3595,-2.3595,-2.3595,-2.3595,-2.3595,-2.3595,-2.3595,-2.3595,-2.3595,-2.3595,-2.3595,-2.3595,-2.3595,-2.3595,-2.3595,-2.3595,-2.3595,-2.3595,-2.3595,-2.3595,-2.3595,-2.3595,-2.3595,-2.3595,-2.3595,-2.3595,-2.3595,-2.3595,-2.3595,-2.3595,-2.3595,-2.3595,-2.3595,-2.3595,-2.3595,-2.3595,-2.3595,-2.3595,-2.3595,-1.9818,-1.9874,-1.9925,-1.9729,-1.9764,-1.98,0.0,0.0,0.0,-1.8987,-1.8477,-1.8106,-1.8106,-1.7747,-1.7605,-1.8027,-1.7686,-1.7403,-1.7491,-1.6337,-1.5594,-1.586,-1.5915,-1.6102,-1.6616,-1.6552,-1.65,-1.65,-1.6888,-1.7422,-1.8066,-1.8516,-1.9043,-1.969,-1.9708,-1.9708,-1.9708,-1.9708,-1.9708,-1.9708,-1.9708,-1.9708,-1.9708,-1.9708,-1.9708,-1.9708,-1.9708,-1.9708,-1.9708,-1.9708,-1.9708,-1.9708,-1.9708,-1.9708,-1.9708,-1.9708,-1.9708,-1.9783,-2.0318,-2.0583,-2.0778,-2.1335,-2.2059,-2.2718,-2.2838,-2.3206,-2.3595,-2.3595,-2.3595,-2.3595,-2.3595,-2.3595,-2.3595,-2.3595,-2.3595,-2.3595,-2.3595,-2.3595,-2.3595,-2.3595,-2.3595,-2.3595,-2.3595,-2.3595,-2.3595,-2.3595,-2.3595,-2.3595,-2.3595,-2.3595,-2.3595,-2.3595,-2.3595,-2.3595,-2.3595,-2.3595,-2.3595,-2.3595,-2.3595,-2.3595,-2.3595,-2.3595,-2.3595,-2.3595,-2.3595,-2.3595,-2.3595,-2.3595,-2.3595,-2.3595,-2.3595,-2.3595,-2.0229,-2.0549,-2.0665,-1.9892,-1.9965,-2.0141,-1.9782,0.0,-1.8968,-1.8912,0.0,-1.8106,-1.8106,0.0,0.0,-1.8086,-1.8033,-1.8143,-1.8565,-1.8441,-1.8001,-1.7124,-1.7014,-1.706,-1.7209,-1.6774,-1.65,-1.65,-1.6552,-1.7034,-1.8046,-1.8165,-1.865,-1.9672,-1.9708,-1.9708,-1.9708,-1.9708,-1.9708,-1.9708,-1.9708,-1.9708,-1.9708,-1.9708,-1.9708,-1.9708,-1.9708,-1.9708,-1.9708,-1.9708,-1.9708,-1.9708,-1.9708,-1.9708,-1.9708,-1.9708,-1.9708,-1.9708,-1.9798,-2.0198,-2.0703,-2.0778,-2.1665,-2.2808,-2.3347,-2.355,-2.3595,-2.3595,-2.3595,-2.3595,-2.3595,-2.3595,-2.3595,-2.3595,-2.3595,-2.3595,-2.3595,-2.3595,-2.3595,-2.3595,-2.3595,-2.3595,-2.3595,-2.3595,-2.3595,-2.3595,-2.3595,-2.3595,-2.3595,-2.3595,-2.3595,-2.3595,-2.3595,-2.3595,-2.3595,-2.3595,-2.3595,-2.3595,-2.3595,-2.3595,-2.3595,-2.3595,-2.3595,-2.3595,-2.3595,-2.3595,-2.3595,-2.3595,-2.3595,-2.3595,-2.3595,-2.3595,-1.9947,-2.0087,-2.0208,-2.0087,-2.0176,-2.0331,-2.0431,-2.028,-2.0112,-2.0112,0.0,0.0,0.0,0.0,0.0,0.0,-1.9786,-1.9913,-2.031,-2.0361,-1.9892,-1.8635,0.0,0.0,-1.7759,-1.7244,-1.6837,-1.6522,-1.65,-1.6972,-1.8046,-1.8106,-1.8593,-1.9672,-1.9708,-1.9708,-1.9708,-1.9708,-1.9708,-1.9708,-1.9708,-1.9708,-1.9708,-1.9708,-1.9708,-1.9708,-1.9708,-1.9708,-1.9708,-1.9708,-1.9708,-1.9708,-1.9708,-1.9708,-1.9708,-1.9708,-1.9708,-1.9708,-1.9708,-1.9869,-2.0243,-2.1036,-2.1919,-2.2808,-2.3415,-2.3595,-2.3595,-2.3595,-2.3595,-2.3595,-2.3595,-2.3595,-2.3595,-2.3595,-2.3595,-2.3595,-2.3595,-2.3595,-2.3595,-2.3595,-2.3595,-2.3595,-2.3595,-2.3595,-2.3595,-2.3595,-2.3595,-2.3595,-2.3595,-2.3595,-2.3595,-2.3595,-2.3595,-2.3595,-2.3595,-2.3595,-2.3595,-2.3595,-2.3595,-2.3595,-2.3595,-2.3595,-2.3595,-2.3595,-2.3595,-2.3595,-2.3595,-2.3595,-2.3804,-2.4156,-2.3789,-2.3595,-2.0015,-2.0139,-2.0261,0.0,0.0,0.0,0.0,0.0,0.0,0.0,-2.07,0.0,0.0,0.0,-2.0553,-2.0943,0.0,-2.1165,-2.1602,-2.1659,-2.1236,-2.0097,0.0,0.0,0.0,-1.8011,-1.7429,-1.6774,-1.671,-1.7055,-1.7847,-1.8027,-1.8516,-1.9442,-1.9621,-1.9708,-1.9708,-1.9708,-1.9708,-1.9708,-1.9708,-1.9708,-1.9708,-1.9708,-1.9708,-1.969,-1.9548,-1.9479,-1.9479,-1.9479,-1.9387,-1.9281,-1.9584,-1.9603,-1.9497,-1.9639,-1.9708,-1.9708,-1.9708,-1.9704,-1.9901,-2.104,-2.1889,-2.2541,-2.3163,-2.3465,-2.3595,-2.3595,-2.3595,-2.3595,-2.3595,-2.3595,-2.3595,-2.3595,-2.3595,-2.3595,-2.3595,-2.3595,-2.3595,-2.3595,-2.3595,-2.3595,-2.3595,-2.3595,-2.3595,-2.3595,-2.3595,-2.3595,-2.3595,-2.3595,-2.3595,-2.3595,-2.3595,-2.3595,-2.3595,-2.3595,-2.3595,-2.3595,-2.3595,-2.353,-2.3355,-2.3508,-2.3508,-2.3355,-2.3508,-2.3684,-2.3879,-2.3879,-2.4216,-2.4844,-2.3999,-2.3699,0.0,0.0,0.0,-2.1071,0.0,0.0,0.0,0.0,-2.0991,0.0,0.0,0.0,-2.0991,-2.0991,-2.0975,-2.0991,-2.0991,0.0,0.0,-2.2065,-2.1924,-2.1482,-2.0686,-2.0001,0.0,-1.9067,-1.8349,0.0,-1.7271,-1.7291,-1.7333,-1.7827,-1.8361,-1.8912,-1.9424,-1.9708,-1.9708,-1.9708,-1.9708,-1.9708,-1.9708,-1.9708,-1.9708,-1.9708,-1.9708,-1.9672,-1.9151,-1.893,-1.893,-1.893,-1.8612,-1.8263,-1.9281,-1.9387,-1.8987,-1.9512,-1.9708,-1.9708,-1.9708,-1.9692,-1.9821,-2.0522,-2.1204,-2.1852,-2.253,-2.3143,-2.3595,-2.3595,-2.3595,-2.3595,-2.3595,-2.3595,-2.3595,-2.3595,-2.3595,-2.3595,-2.3595,-2.3595,-2.3595,-2.3595,-2.3595,-2.3595,-2.3595,-2.3595,-2.3595,-2.3595,-2.3595,-2.3595,-2.3595,-2.3595,-2.3595,-2.3595,-2.3595,-2.3595,-2.3595,-2.3595,-2.3595,-2.3595,-2.3595,-2.3334,-2.274,-2.3275,-2.3334,-2.274,-2.3312,-2.3924,-2.4575,-2.4575,-2.4903,-2.5555,-2.4208,-2.3954,0.0,0.0,-2.0862,-2.1291,0.0,0.0,0.0,0.0,0.0,0.0,0.0,0.0,-2.1871,-2.1871,-2.1871,-2.1871,-2.1871,-2.2013,0.0,-2.2542,-2.2502,-2.2317,-2.1805,-2.125,-2.0782,0.0,0.0,-1.8349,-1.8037,0.0,0.0,-1.8337,-1.8707,-1.8888,-1.9424,-1.9708,-1.9708,-1.9708,-1.9708,-1.9708,-1.9708,-1.9708,-1.9708,-1.9708,-1.9708,-1.9672,-1.9132,-1.8893,-1.8874,-1.8516,-1.8263,-1.8185,-1.8893,-1.9062,-1.8968,-1.9497,-1.9708,-1.9639,-1.9281,-1.9701,-2.0333,-2.0196,-2.0859,-2.1833,-2.2486,-2.283,-2.3076,-2.3486,-2.3595,-2.3595,-2.3595,-2.3595,-2.3595,-2.3595,-2.3595,-2.3595,-2.3595,-2.3595,-2.3595,-2.3595,-2.3595,-2.3595,-2.3595,-2.3595,-2.3595,-2.3595,-2.3595,-2.3595,-2.3595,-2.3595,-2.3595,-2.3595,-2.3595,-2.3595,-2.3595,-2.3231,-2.2815,-2.2363,-2.234,-2.2446,-2.2694,-2.3327,-2.3758,-2.3954,-2.4588,-2.5046,-2.5247,-2.5247,-2.5615,-2.6243,-2.5345,-2.5061,-2.0382,-2.055,0.0,-2.1628,-2.1838,0.0,-2.2223,0.0,-2.2296,0.0,0.0,0.0,0.0,-2.2296,-2.2296,-2.2296,-2.2296,-2.2385,0.0,-2.284,-2.2933,-2.2885,-2.2459,-2.1972,-2.146,-2.0605,-1.9818,-1.9141,-1.8921,-1.87,0.0,0.0,-1.933,-1.9461,-1.9619,-1.9764,-1.9909,-1.9764,-1.9708,-1.9708,-1.9708,-1.9708,-1.9708,-1.9708,-1.9708,-1.9657,-1.893,-1.8612,-1.8574,-1.8046,-1.7706,-1.7605,-1.8341,-1.8612,-1.8669,-1.9225,-1.9281,-1.9124,-1.8945,-1.9423,-2.0065,-1.9898,-2.0541,-2.151,-2.2161,-2.2498,-2.283,-2.3421,-2.3595,-2.3595,-2.3595,-2.3595,-2.3595,-2.3595,-2.3595,-2.3595,-2.3595,-2.3595,-2.3595,-2.3595,-2.3595,-2.3595,-2.3595,-2.3595,-2.3595,-2.3595,-2.3595,-2.3595,-2.3595,-2.3595,-2.3595,-2.3595,-2.3595,-2.3508,-2.3312,-2.2703,-2.2146,-2.1734,-2.1697,-2.1878,-2.2295,-2.3203,-2.3878,-2.4243,-2.5141,-2.5719,-2.5959,-2.5959,-2.6303,-2.6956,-2.6497,-2.6303]},{"header":{"parameterUnit":"m.s-1","parameterCategory":1,"la1":30.6,"la2":29.2853,"lo1":-89.7004,"lo2":-87.6739,"dy":0.0162,"dx":0.0183,"nx":112,"ny":82,"refTime":"2024-07-23T06:00:00:Z","depth":0,"parameterNumber":3,"parameterNumberName":"V-component_of_WINDS"},"data":[0.0,0.0,0.0,0.0,0.0,0.0,0.0,0.0,0.0,0.0,0.0,0.0,0.0,0.0,0.0,0.0,0.0,0.0,0.0,0.0,0.0,0.0,0.0,0.0,0.0,0.0,0.0,0.0,0.0,0.0,0.0,0.0,0.0,0.0,0.0,0.0,0.0,0.0,0.0,0.0,0.0,0.0,0.0,0.0,0.0,0.0,0.0,0.0,0.0,0.0,0.0,0.0,0.0,0.0,0.0,0.0,0.0,0.0,0.0,0.0,0.0,0.0,0.0,0.0,0.0,0.0,0.0,0.0,0.0,0.0,0.0,0.0,0.0,0.0,0.0,0.0,0.0,0.0,0.0,0.0,0.0,0.0,0.0,0.0,0.0,0.0,0.0,0.0,0.0,0.0,0.1826,0.0167,0.0,0.0,0.0,0.0,0.0,0.0,0.0,0.0,0.0,0.0,0.0,0.0,0.0,0.0,0.0,0.0,0.0,0.0,0.0,0.0,0.0,0.0,0.0,0.0,0.0,0.0,0.0,0.0,0.0,0.0,0.0,0.0,0.0,0.0,0.0,0.0,0.0,0.0,0.0,0.0,0.0,0.0,0.0,0.0,0.0,0.0,0.0,0.0,0.0,0.0,0.0,0.0,0.0,0.0,0.0,0.0,0.0,0.0,0.0,0.0,0.0,0.0,0.0,0.0,0.0,0.0,0.0,0.0,0.0,0.0,0.0,0.0,0.0,0.0,0.0,0.0,0.0,0.0,0.0,0.0,0.0,0.0,0.0,0.0,0.0,0.0,0.0,0.0,0.0,0.0,0.0,0.0,0.0,0.0,0.0,0.0,0.0,0.0,0.0,0.0,0.0,0.0,0.0,0.0,0.0,0.0,0.0,0.0,0.0,0.0,0.1668,0.0167,0.0,0.0,0.0,0.0,0.0,0.0,0.0,0.0,0.0,0.0,0.0,0.0,0.0,0.0,0.0,0.0,0.0,0.0,0.0,0.0,0.0,0.0,0.0,0.0,0.0,0.0,0.0,0.0,0.0,0.0,0.0,0.0,0.0,0.0,0.0,0.0,0.0,0.0,0.0,0.0,0.0,0.0,0.0,0.0,0.0,0.0,0.0,0.0,0.0,0.0,0.0,0.0,0.0,0.0,0.0,0.0,0.0,0.0,0.0,0.0,0.0,0.0,0.0,0.0,0.0,0.0,0.0,0.0,0.0,0.0,0.0,0.0,0.0,0.0,0.0,0.0,0.0,0.0,0.0,0.0,0.0,0.0,0.0,0.0,0.0,0.0,0.0,0.0,0.0,0.0,0.0,0.0,0.0,0.0,0.0,0.0,0.0,0.0,0.0,0.0,0.0,0.0,0.0,0.0,0.0,0.0,0.0,0.0,0.0,0.1571,0.0752,0.0066,0.0,0.0,0.0,0.0,0.0,0.0,0.0,0.0,0.0,0.0,0.0,0.0,0.0,0.0,0.0,0.0,0.0,0.0,0.0,0.0,0.0,0.0,0.0,0.0,0.0,0.0,0.0,0.0,0.0,0.0,0.0,0.0,0.0,0.0,0.0,0.0,0.0,0.0,0.0,0.0,0.0,0.0,0.0,0.0,0.0,0.0,0.0,0.0,0.0,0.0,0.0,0.0,0.0,0.0,0.0,0.0,0.0,0.0,0.0,0.0,0.0,0.0,0.0,0.0,0.0,0.0,0.0,0.0,0.0,0.0,0.0,0.0,0.0,0.0,0.0,0.0,0.0,0.0,0.0,0.0,0.0,0.0,0.0,0.0,0.0,0.0,0.0,0.0,0.0,0.0,0.0,0.0,0.0,0.0,0.0,0.0,0.0,0.0,0.0,0.0,0.0,0.0,0.0,0.0,0.0,0.0,0.0,0.0,0.0,0.0995,0.0,0.0,0.0,0.0,0.0,0.0,0.0,0.0,0.0,0.0,0.0,0.0,0.0,0.0,0.0,0.0,0.0,0.0,0.0,0.0,0.0,0.0,0.0,0.0,0.0,0.0,0.0,0.0,0.0,0.0,0.0,0.0,0.0,0.0,0.0,0.0,0.0,0.0,0.0,0.0,0.0,0.0,0.0,0.0,0.0,0.0,0.0,0.0,0.0,0.0,0.0,0.0,0.0,0.0,0.0,0.0,0.0,0.0,0.0,0.0,0.0,0.0,0.0,0.0,0.0,0.0,0.0,0.0,0.0,0.0,0.0,0.0,0.0,0.0,0.0,0.0,0.0,0.0,0.0,0.0,0.0,0.0,0.0,0.0,0.0,0.0,0.0,0.0,0.0,0.0,0.0,0.0,0.0,0.0,0.0,0.0,0.0,0.0,0.0,0.0,0.0,0.0,0.0,0.0,0.0,0.0,0.0,0.0,0.0,0.0,0.0,0.0909,0.0,0.0,0.0,0.0,0.0,0.0,0.0,0.0,0.0,0.0,0.0,0.0,0.0,0.0,0.0,0.0,0.0,0.0,0.0,0.0,0.0,0.0,0.0,0.0,0.0,0.0,0.0,0.0,0.0,0.0,0.0,0.0,0.0,0.0,0.0,0.0,0.0,0.0,0.0,0.0,0.0,0.0,0.0,0.0,0.0,0.0,0.0,0.0,0.0,0.0,0.0,0.0,0.0,0.0,0.0,0.0,0.0,0.0,0.0,0.0,0.0,0.0,0.0,0.0,0.0,0.0,0.0,0.0,0.0,0.0,0.0,0.0,0.0,0.0,0.0,0.0,0.0,0.0,0.0,0.0,0.0,0.0,0.0,0.0,0.0,0.0,0.0,0.0,0.0,0.0,0.0,0.0,0.0,0.0,0.0,0.0,0.0,0.0,0.0,0.0,0.0,0.0,0.0,0.0,0.0,0.0,0.0,0.0,0.0,0.0,0.0,0.0904,0.0,0.0,0.0,0.0,0.0,0.0,0.0,0.0,0.0,0.0,0.0,0.0,0.0,0.0,0.0,0.0,0.0,0.0,0.0,0.0,0.0,0.0,0.0,0.0,0.0,0.0,0.0,0.0,0.0,0.0,0.0,0.0,0.0,0.0,0.0,0.0,0.0,0.0,0.0,0.0,0.0,0.0,0.0,0.0,0.0,0.0,0.0,0.0,0.0,0.0,0.0,0.0,0.0,0.0,0.0,0.0,0.0,0.0,0.0,0.0,0.0,0.0,0.0,0.0,0.0,0.0,0.0,0.0,0.0,0.0,0.0,0.0,0.0,0.0,0.0,0.0,0.0,0.0,0.0,0.0,0.0,0.0,0.0,0.0,0.0,0.0,0.0,0.0,0.0,0.0,0.0,0.0,0.0,0.0,0.0,0.0,0.0,0.0,0.0,0.0,0.0,0.0,0.0,0.0,0.0,0.0,0.0,0.0,0.0,0.0,0.177,0.0766,0.0,0.0,0.0,0.0,0.0,0.0224,0.0251,0.0028,0.0,0.0,0.0,0.0,0.0,0.0,0.0,0.0,0.0,0.0,0.0,0.0,0.0,0.0,0.0,0.0,0.0,0.0,0.0,0.0,0.0,0.0,0.0,0.0,0.0,0.0,0.0,0.0,0.0,0.0,0.0,0.0,0.0,0.0,0.0,0.0,0.0,0.0,0.0,0.0,0.0,0.0,0.0,0.0,0.0,0.0,0.0,0.0,0.0,0.0,0.0,0.0,0.0,0.0,0.0,0.0,0.0,0.0,0.0,0.0,0.0,0.0,0.0,0.0,0.0,0.0,0.0,0.0,0.0,0.0,0.0,0.0,0.0,0.0,0.0,0.0,0.0,0.0,0.0,0.0,0.0,0.0,0.0,0.0,0.0,0.0,0.0,0.0,0.0,0.0,0.0,0.0,0.0,0.0,0.0,0.0,0.0,0.0,0.0,0.0,0.0,0.0,0.108,0.0448,0.0,0.0,0.0,0.0,0.0,0.0671,0.0799,0.0,0.0,0.0,0.0,0.0,0.0,0.0,0.0,0.0,0.0,0.0,0.0,0.0,0.0,0.0,0.0,0.0,0.0,0.0,0.0,0.0,0.0,0.0,0.0,0.0,0.0,0.0,0.0,0.0,0.0,0.0,0.0,0.0,0.0,0.0,0.0,0.0,0.0,0.0,0.0,0.0,0.0,0.0,0.0,0.0,0.0,0.0,0.0,0.0,0.0,0.0,0.0,0.0,0.0,0.0,0.0,0.0,0.0,0.0,0.0,0.0,0.0,0.0,0.0,0.0,0.0,0.0,0.0,0.0,0.0,0.0,0.0,0.0,0.0,0.0,0.0,0.0,0.0,0.0,0.0,0.0,0.0,0.0,0.0,0.0,0.0,0.0,0.0,0.0,0.0,0.0,0.0,0.0,0.0,0.0,0.0,0.0,0.0,0.0,0.0,0.0,0.0,0.0,0.1018,0.0469,0.0,0.0,0.0,0.0224,0.0727,0.0978,0.1185,0.1384,0.0,0.0,0.0,0.0,0.0,0.0,0.0,0.0,0.0,0.0,0.0,0.0,0.0,0.0,0.0,0.0,0.0,0.0,0.0,0.0,0.0,0.0,0.0,0.0,0.0,0.0,0.0,0.0,0.0,0.0,0.0,0.0,0.0,0.0,0.0,0.0,0.0,0.0,0.0,0.0,0.0,0.0,0.0,0.0,0.0,0.0,0.0,0.0,0.0,0.0,0.0,0.0,0.0,0.0,0.0,0.0,0.0,0.0,0.0,0.0,0.0,0.0,0.0,0.0,0.0,0.0,0.0,0.0,0.0,0.0,0.0,0.0,0.0,0.0,0.0,0.0,0.0,0.0,0.0,0.0,0.0,0.0,0.0,0.0,0.0,0.0,0.0,0.0,0.0,0.0,0.0,0.0,0.0,0.0,0.0,0.0,0.0,0.0,0.0,0.0,0.0,0.0,0.0608,0.0274,0.0,0.0,0.0252,0.0615,0.1062,0.1675,0.2024,0.2009,0.0,0.0,0.0,0.0,0.0,0.0,0.0,0.0,0.0,0.0,0.0,0.0,0.0,0.0,0.0,0.0,0.0,0.0,0.0,0.0,0.0,0.0,0.0,0.0,0.0,0.0,0.0,0.0,0.0,0.0,0.0,0.0,0.0,0.0,0.0,0.0,0.0,0.0,0.0,0.0,0.0,0.0,0.0,0.0,0.0,0.0,0.0,0.0,0.0,0.0,0.0,0.0,0.0,0.0,0.0,0.0,0.0,0.0,0.0,0.0,0.0,0.0,0.0,0.0,0.0,0.0,0.0,0.0,0.0,0.0,0.0,0.0,0.0,0.0,0.0,0.0,0.0,0.0,0.0,0.0,0.0,0.0,0.0,0.0,0.0,0.0,0.0,0.0,0.0,0.0,0.0,0.0,0.0,0.0,0.0,0.0,0.0,0.0,0.0,0.0,0.0,0.0,0.0,0.0,0.0028,0.0084,0.0699,0.1146,0.1312,0.2593,0.3064,0.2259,0.0,0.0,0.0,0.0,0.0,0.0,0.0,0.0,0.0,0.0,0.0,0.0,0.0,0.0,0.0,0.0,0.0,0.0,0.0,0.0,0.0,0.0,0.0,0.0,0.0,0.0,0.0,0.0,0.0,0.0,0.0,0.0,0.0,0.0,0.0,0.0,0.0,0.0,0.0,0.0,0.0,0.0,0.0,0.0,0.0,0.0,0.0,0.0,0.0,0.0,0.0,0.0,0.0,0.0,0.0,0.0,0.0,0.0,0.0,0.0,0.3408,0.0,0.0,0.0,0.0,0.0,0.0,0.0,0.0,0.0,0.0,0.0,0.0,0.0,0.0,0.0,0.0,0.0,0.0,0.0,0.0,0.0,0.0,0.0,0.0,0.0,0.0,0.0,0.0,0.0,0.0,0.0,0.0,0.0,0.0,0.0,0.0,0.0,0.0,0.0,0.0,0.0,0.0,0.0,0.0224,0.0811,0.1006,0.1591,0.2815,0.3206,0.3507,0.371,0.391,0.0,0.0,0.0,0.0,0.0,0.0,0.0,0.0,0.0,0.0,0.0,0.0,0.0,0.0,0.0,0.0,0.0,0.0,0.0,0.0,0.0,0.0,0.0,0.0,0.0,0.0,0.0,0.0,0.0,0.0,0.0,0.0,0.0,0.0,0.0,0.0,0.0,0.0,0.0,0.0,0.0,0.0,0.0,0.0,0.0,0.0,0.0,0.0,0.0,0.0,0.0,0.0,0.0,0.0,0.0,0.0,0.0,0.0,0.0,0.0,0.4095,0.0,0.0,0.0,0.0,0.0,0.0,0.0,0.0,0.0,0.0,0.0,0.0,0.0,0.0,0.0,0.0,0.0,0.0,0.0,0.0,0.0,0.0,0.0,0.0,0.0,0.0,0.0,0.0,0.0,0.0,0.0,0.0,0.0,0.0,0.0,0.0,0.0,0.0,0.0,0.0,0.0,0.0,0.028,0.1034,0.1424,0.212,0.3289,0.3735,0.4014,0.4177,0.4123,0.0,0.0,0.0,0.0,0.0,0.0,0.0,0.0,0.0,0.0,0.0,0.0,0.0,0.0,0.0,0.0,0.0,0.0,0.0,0.0,0.0,0.0,0.0,0.0,0.0,0.0,0.0,0.0,0.0,0.0,0.0,0.0,0.0,0.0,0.0,0.0,0.0,0.0,0.0,0.0,0.0,0.0,0.0,0.0,0.0,0.0,0.0,0.0,0.0,0.0,0.0,0.0,0.0,0.6055,0.6537,0.6563,0.7567,0.8048,0.7993,0.7109,0.647,0.5874,0.4436,0.0,0.0,0.0,0.0,0.0,0.0,0.0,0.0,0.0,0.0,0.0,0.0,0.0,0.0,0.0,0.0,0.0,0.0,0.0,0.0,0.0,0.0,0.0,0.0,0.3984,0.3348,0.2725,0.0,0.0,0.0,0.0,0.0,0.0,0.0,0.0,0.0,0.0,0.0,0.0,0.011,0.0476,0.1202,0.1952,0.2704,0.3511,0.4153,0.444,0.4267,0.421,0.414,0.0,0.0,0.0,0.0,0.0,0.0,0.0,0.0,0.0,0.0,0.0,0.0,0.0,0.0,0.0,0.0,0.0,0.0,0.0,0.0,0.0,0.0,0.0,0.0,0.0,0.0,0.0,0.0,0.0,0.0,0.0,0.0,-0.6013,-0.7069,0.0,0.0,0.0,0.0,0.0,0.0,0.0,0.0,0.0,0.0,0.0,0.0,0.0,0.5052,0.5069,0.5369,0.5433,0.537,0.7087,0.7866,0.7812,0.9447,1.0184,1.0152,0.9263,0.0,0.5931,0.5084,0.0,0.0,0.0,0.0,0.0,0.0,0.0,0.0,0.0,0.0,0.0,0.0,0.0,0.0,0.0,0.0,0.0,0.0,0.0,0.0,0.0,0.0,0.4467,0.4484,0.4405,0.4312,0.0,0.3137,0.2182,0.2065,0.1526,0.0,0.0,0.0,0.0,0.0,0.0,0.0,0.0,0.0558,0.1229,0.1981,0.2702,0.3483,0.4294,0.4436,0.4481,0.4464,0.4291,0.4187,0.4167,0.4045,0.0,0.0,0.0,0.0,0.0,0.0,0.0,0.0,0.0,0.0,0.0,0.0,0.0,0.0,0.0,0.0,0.0,0.0,0.0,0.0,0.0,0.0,0.0,0.0,0.0,0.0,0.0,0.0,0.0,-0.3764,-0.5413,-0.6119,-0.8528,-0.9525,0.0,0.0,0.0,0.0,0.0,0.0,0.0,0.0,0.0,0.5127,0.523,0.5338,0.5508,0.5562,0.5827,0.6251,0.7493,0.832,0.878,1.004,1.0593,1.0593,1.0206,0.9141,0.7588,0.6184,0.5513,0.5245,0.0,0.0,0.0,0.0,0.4545,0.4607,0.4518,0.4545,0.4547,0.4123,0.0,0.0,0.0,0.0,0.0,0.0,0.0,0.0,0.0,0.0,0.4491,0.4491,0.4491,0.4491,0.4491,0.3959,0.3357,0.0,0.259,0.2128,0.1257,0.0,0.0,0.0,0.0,0.0162,0.0557,0.0895,0.1535,0.2702,0.3093,0.3622,0.4436,0.4491,0.4491,0.4491,0.4429,0.4368,0.4368,0.4614,0.4517,0.0,0.0,0.0,0.0,0.0,0.0,0.0,0.0,0.0,0.0,0.0,0.0,0.0,0.0,0.0,0.0,0.0,0.0,0.0,0.0,0.0,0.0,0.0,0.0,0.0,0.0,0.0,0.0,-0.3344,-0.479,-0.5542,-0.8398,-0.9825,0.0,0.0,0.0,0.0,0.0,0.0,-0.058,0.1091,0.2934,0.5038,0.5389,0.5637,0.5857,0.5793,0.6174,0.6974,0.7736,0.8532,0.9338,1.0206,1.0593,1.0593,1.0593,1.0146,0.9266,0.7375,0.6358,0.589,0.4924,0.4525,0.4494,0.4535,0.4597,0.4651,0.4576,0.4597,0.4641,0.4528,0.4491,0.4491,0.4491,0.0,0.0,0.0,0.0,0.4491,0.4491,0.4491,0.4491,0.4491,0.4491,0.4491,0.4491,0.4491,0.4322,0.0,0.3483,0.3037,0.187,0.0,0.0,0.0,0.0575,0.076,0.1308,0.1535,0.2091,0.3204,0.3483,0.3846,0.446,0.4491,0.4491,0.4491,0.4491,0.4491,0.4491,0.5045,0.5064,0.4505,0.0,0.0,0.0,0.0,0.0,0.0,0.0,0.0,0.0,0.0,0.0,0.0,0.0,0.0,0.0,0.0,0.0,0.0,0.0,0.0,0.0,0.0,0.0,0.0,0.0,0.0,0.0,0.0,0.0,-0.5828,-0.8964,0.0,0.0,0.0,0.0,-1.148,-0.9515,-0.7117,-0.4206,-0.0604,0.2247,0.4213,0.537,0.5966,0.5979,0.6159,0.6528,0.7101,0.7958,0.8706,0.9338,1.0206,1.0593,1.0593,1.0593,1.0579,1.0382,0.8417,0.6986,0.5903,0.5024,0.4617,0.4508,0.4655,0.4621,0.4522,0.4658,0.4617,0.4501,0.4491,0.4491,0.4491,0.4491,0.4491,0.0,0.0,0.4491,0.4491,0.4491,0.4491,0.4491,0.4491,0.4491,0.4491,0.4491,0.4491,0.4491,0.0,0.3876,0.3345,0.3204,0.0,0.2143,0.2091,0.2088,0.2115,0.2147,0.276,0.3234,0.3372,0.4015,0.446,0.4491,0.4491,0.4491,0.4491,0.4491,0.4491,0.4491,0.5128,0.5422,0.5254,0.6011,0.0,0.0,0.0,0.0,0.0,0.0,0.0,0.0,0.0,0.0,0.0,0.0,0.0,0.0,0.0,0.0,0.0,0.0,0.0,0.0,0.0,0.0,0.0,0.0,0.0,0.0,0.0,0.0,-0.6672,-0.9802,0.0,-1.2348,-1.4104,-1.4599,-1.3083,-1.1027,-0.8398,-0.5065,-0.1484,0.1683,0.4322,0.5448,0.6078,0.6176,0.6768,0.7359,0.795,0.8822,0.9564,1.0142,1.046,1.0593,1.0593,1.0593,1.0486,1.0151,0.8544,0.7516,0.6812,0.5304,0.4657,0.4655,0.4782,0.4802,0.4752,0.4707,0.4657,0.4621,0.4522,0.4491,0.4491,0.4491,0.4491,0.4491,0.4491,0.4491,0.4491,0.4491,0.4491,0.4491,0.4491,0.4491,0.4491,0.4491,0.4491,0.4491,0.4491,0.4294,0.3959,0.3456,0.3121,0.276,0.2258,0.2202,0.2369,0.2843,0.3148,0.3511,0.4042,0.4349,0.4491,0.4491,0.4491,0.4491,0.4491,0.4491,0.4491,0.4491,0.5605,0.595,0.5449,0.7098,0.7355,0.0,0.0,0.0,0.0,0.0,0.0,0.0,0.0,0.0,0.0,0.0,0.0,0.0,0.0,0.0,0.0,0.0,0.0,0.0,0.0,0.0,0.0,0.0,0.0,0.0,-0.2807,-0.5181,-0.7174,-1.0535,-1.3021,-1.3941,-1.5903,-1.6543,-1.5255,-1.2788,-0.9717,-0.5926,-0.1778,0.1919,0.4989,0.6064,0.6681,0.6795,0.732,0.786,0.8398,0.9337,1.0067,1.0593,1.0593,1.0593,1.0593,1.0593,1.0419,1.0005,0.8831,0.7974,0.726,0.5509,0.4809,0.4785,0.4904,0.4897,0.4819,0.4667,0.4641,0.4627,0.4525,0.4491,0.4491,0.4491,0.4491,0.4491,0.4491,0.4653,0.4842,0.4842,0.5034,0.5144,0.4897,0.4842,0.4787,0.4546,0.4491,0.4491,0.4491,0.4491,0.4349,0.3846,0.3735,0.3539,0.3037,0.2982,0.3148,0.3649,0.3707,0.3901,0.4432,0.4491,0.4491,0.4491,0.4491,0.4491,0.4491,0.4491,0.4491,0.4491,0.5761,0.6289,0.5869,0.7708,0.8139,0.7076,0.0,0.0,0.0,0.0,0.0,0.0,0.0,0.0,0.0,0.0,0.0,0.0,0.0,0.0,0.0,0.0,0.0,0.0,0.0,0.0,0.0,0.0,0.0,-0.1241,-0.3663,-0.5929,-0.7386,-1.1194,-1.423,-1.5659,-1.812,-1.9165,-1.8064,-1.4894,-1.1192,-0.6992,-0.1505,0.2963,0.6104,0.7257,0.7821,0.7783,0.7859,0.8073,0.8403,0.9452,1.0193,1.0593,1.0593,1.0593,1.0593,1.0593,1.0419,1.0053,0.9315,0.8359,0.72,0.5751,0.5078,0.4972,0.5115,0.5009,0.476,0.4626,0.4546,0.4543,0.4543,0.4515,0.4491,0.4491,0.4519,0.4543,0.4543,0.5003,0.5538,0.5538,0.6064,0.6421,0.5706,0.5515,0.5324,0.468,0.4519,0.4491,0.4491,0.4491,0.4491,0.4491,0.4491,0.4491,0.4491,0.4491,0.0,0.4491,0.4491,0.4491,0.4491,0.4491,0.4491,0.4491,0.4491,0.4491,0.4491,0.4491,0.4491,0.4491,0.5606,0.6358,0.6664,0.7818,0.8409,0.8402,0.0,0.0,0.0,0.0,0.0,0.0,0.0,0.0,0.0,0.0,0.0,0.0,0.0,0.0,0.0,0.0,0.0,0.0,0.0,0.0,0.0,0.0121,-0.1508,-0.2329,-0.5147,-0.816,-1.0974,-1.3875,-1.6224,-1.7725,-1.8994,-1.9188,-1.78,-1.4771,-1.1054,-0.6615,-0.1359,0.2948,0.6104,0.796,0.8542,0.7821,0.9248,0.9458,0.8438,1.0158,1.0849,1.0593,1.0593,1.0593,1.0593,1.0593,1.0419,1.0036,0.9462,0.8904,0.8296,0.7345,0.6568,0.6087,0.6898,0.6932,0.6535,0.6165,0.5687,0.5218,0.5218,0.4893,0.4491,0.4491,0.4842,0.5218,0.5218,0.5737,0.6312,0.6312,0.6448,0.6561,0.634,0.59,0.546,0.5273,0.4842,0.4491,0.4491,0.4491,0.4491,0.4491,0.4491,0.4491,0.4491,0.4491,0.0,0.4491,0.4491,0.4491,0.4491,0.4491,0.4491,0.4491,0.4491,0.4491,0.4491,0.4491,0.4491,0.4491,0.577,0.7031,0.8182,0.8515,0.8584,0.0,0.0,0.0,0.0,0.0,0.0,0.0,0.0,0.0,0.0,0.0,0.0,0.0,0.0,0.0,0.0,0.0,0.0,0.0,0.0,0.0,0.0,-0.0755,-0.25,-0.3717,-0.6503,-0.9358,-1.2011,-1.4934,-1.7116,-1.8052,-1.9238,-1.9285,-1.7649,-1.4613,-1.0683,-0.5804,-0.0659,0.3971,0.7972,0.9299,0.9847,0.9643,1.0302,1.0094,0.9034,1.0536,1.1002,1.0593,1.0593,1.0593,1.0593,1.0593,1.0419,1.008,0.9926,0.9424,0.0,0.0,0.0,0.0,0.0,0.7456,0.7073,0.6731,0.6118,0.5515,0.5515,0.5058,0.4543,0.4842,0.5191,0.5569,0.5869,0.6502,0.7074,0.7074,0.7289,0.745,0.7128,0.6502,0.5869,0.5569,0.4976,0.4491,0.4491,0.4491,0.0,0.4491,0.4491,0.4491,0.4491,0.4491,0.4491,0.4491,0.4491,0.4598,0.4893,0.468,0.4625,0.4893,0.4653,0.0,0.0,0.0,0.4703,0.5195,0.6103,0.0,0.0,0.0,0.0,0.0,0.0,0.0,0.0,0.885,0.9139,0.0,0.0,0.0,0.0,0.0,0.0,0.0,0.0,0.0,0.0,0.0,0.0,0.0,0.0,0.0,0.0,-0.1308,-0.334,-0.5193,-0.7611,-0.9863,-1.1606,-1.4877,-1.7082,-1.7307,-1.8859,-1.9066,-1.7265,-1.4309,-1.0355,-0.5136,0.0,0.0,0.0,0.0,1.1063,1.2048,1.1063,1.0349,0.991,1.0648,1.0874,1.0593,1.0593,1.0593,1.0593,1.0593,1.0419,1.014,1.0472,0.9982,0.8952,0.8329,0.8147,0.8191,0.7687,0.7365,0.7128,0.6909,0.0,0.0,0.5756,0.53,0.4842,0.5433,0.5678,0.5896,0.6529,0.7262,0.783,0.783,0.8315,0.8639,0.799,0.7208,0.6421,0.576,0.503,0.4491,0.4491,0.4491,0.4491,0.4491,0.4491,0.4491,0.4491,0.4491,0.4491,0.4491,0.457,0.4842,0.5433,0.0,0.0,0.5569,0.5085,0.4708,0.4625,0.4546,0.4992,0.6076,0.6425,0.7136,0.8297,0.8625,0.8804,0.8804,0.8883,0.891,0.8936,0.9439,0.9869,0.0,0.0,0.0,0.0,0.0,0.0,0.0,0.0,0.0,0.0,0.0,0.0,0.0,0.0,0.0,-0.1532,-0.2394,-0.3573,-0.6088,-0.804,-1.0032,-1.2321,-1.4409,-1.6014,-1.6919,-1.7328,-1.6969,-1.5562,-1.3723,-1.0871,-0.6691,-0.2785,0.1667,0.6915,0.8665,1.0028,1.1075,1.1414,1.1028,0.991,0.0,0.0,1.0593,1.0593,1.0593,1.0593,1.0593,1.0419,1.014,1.0472,1.0458,1.0127,0.906,0.9063,0.9627,0.9039,0.8798,0.8716,0.847,0.7883,0.7283,0.7283,0.6772,0.6209,0.634,0.6799,0.0,0.745,0.8017,0.8593,0.8593,0.8699,0.8752,0.8619,0.7563,0.6561,0.6421,0.5386,0.4491,0.4491,0.4491,0.4491,0.4491,0.4491,0.4491,0.4491,0.4491,0.4491,0.4491,0.4976,0.5351,0.5483,0.5928,0.6231,0.6367,0.6258,0.5932,0.5351,0.4787,0.4855,0.5595,0.6261,0.6999,0.7811,0.8481,0.8804,0.8804,0.9335,0.9614,0.9588,0.9185,0.9139,0.0,0.0,0.0,0.0,0.0,0.0,0.0,0.0,0.0,0.0,0.0,0.6514,0.3879,0.0,0.0837,-0.1602,-0.2387,-0.3309,-0.51,-0.7214,-0.9344,-1.1399,-1.3446,-1.4591,-1.4309,-1.4897,-1.4814,-1.363,-1.2392,-1.0539,-0.7851,-0.4289,0.0,0.5173,0.7372,0.9436,1.1471,1.1601,1.132,1.0642,1.0745,1.0734,1.0593,1.0593,1.0593,1.0593,1.0593,1.0506,1.0347,1.0526,1.0711,1.0748,0.9657,0.953,0.9846,0.9371,0.9124,0.8978,0.8858,0.8315,0.7696,0.7696,0.7208,0.6669,0.7047,0.7396,0.7777,0.8156,0.8507,0.8804,0.8804,0.8804,0.8804,0.8804,0.767,0.6588,0.6588,0.55,0.4491,0.4491,0.4491,0.4491,0.4491,0.4491,0.4491,0.4491,0.4491,0.4625,0.4948,0.5296,0.5787,0.6519,0.661,0.675,0.7128,0.6804,0.6448,0.6064,0.5741,0.5878,0.6578,0.6961,0.7509,0.8235,0.8619,0.8804,0.8804,0.9133,0.9309,0.9283,0.8956,0.9227,0.0,0.0,0.0,0.0,0.0,0.0,0.0,1.6215,1.3973,1.2206,0.9136,0.6143,0.4176,0.2349,0.0653,-0.0801,-0.1808,-0.2811,-0.3849,-0.6019,-0.8038,-0.9591,-1.192,-1.2896,-1.1686,-1.2215,-1.2349,-1.1577,-1.0816,-0.9898,-0.8718,-0.5703,-0.1735,0.3177,0.5588,0.8365,1.1587,1.1297,1.1279,1.1655,1.0932,1.0681,1.0839,1.0681,1.0593,1.0586,1.0472,1.058,1.0825,1.0616,1.0854,1.1241,1.0213,0.9822,0.9759,0.9293,0.8984,0.8804,0.8804,0.8401,0.791,0.791,0.7503,0.7128,0.7723,0.791,0.8049,0.8646,0.8804,0.8804,0.8804,0.8804,0.8804,0.8804,0.767,0.6588,0.6588,0.55,0.4491,0.4491,0.4491,0.4491,0.4491,0.4491,0.4491,0.4491,0.4491,0.4732,0.5406,0.5624,0.6222,0.7557,0.7289,0.7262,0.7857,0.7235,0.6804,0.6804,0.6669,0.6858,0.745,0.7616,0.799,0.856,0.8725,0.8804,0.8804,0.8804,0.8804,0.8804,0.8804,0.9411,2.4492,2.3227,2.1801,2.1164,1.9626,1.8249,0.0,1.5431,1.2754,1.211,0.8719,0.5661,0.5032,0.2937,0.0967,0.0,-0.087,-0.2041,-0.3747,-0.4932,-0.5982,-0.7005,-0.9356,-1.0922,-1.0965,-0.973,-0.9039,-0.941,-0.9377,-0.9312,-0.922,-0.7925,-0.5272,-0.106,0.2023,0.5518,0.9478,0.9893,1.0882,1.2538,1.1224,1.0982,1.1648,1.0926,1.0593,1.0566,1.0037,1.0511,1.1612,1.0695,1.1084,1.2115,1.0745,1.023,1.0111,0.9199,0.8838,0.8804,0.8804,0.8752,0.8672,0.8672,0.8619,0.856,0.8646,0.8672,0.8699,0.8778,0.8804,0.8804,0.8804,0.8804,0.8804,0.8804,0.767,0.6588,0.6588,0.55,0.4491,0.4491,0.4491,0.4491,0.4491,0.4491,0.4491,0.4491,0.4491,0.4732,0.5406,0.6064,0.6804,0.7616,0.8209,0.8593,0.8672,0.7996,0.7584,0.7584,0.6966,0.6642,0.6723,0.7343,0.775,0.783,0.8454,0.8804,0.8804,0.8804,0.8804,0.8804,0.8804,0.9173,2.3951,2.3139,2.2013,2.0831,1.9753,1.865,1.7389,1.5479,1.3472,1.1704,0.8808,0.6249,0.5178,0.2979,0.1172,0.0803,-0.0402,-0.1742,-0.3045,-0.4433,-0.5456,-0.5855,-0.6317,-0.6874,-0.7583,-0.6605,-0.6043,-0.6339,-0.6967,-0.7821,-0.8939,-0.8116,-0.622,-0.3209,0.0304,0.4074,0.8069,0.9289,1.0492,1.1703,1.0948,1.1014,1.1803,1.1437,1.1436,1.1639,1.1396,1.1451,1.1707,1.1283,1.1608,1.2252,1.1256,1.0767,1.0439,0.9234,0.8804,0.8804,0.8804,0.8804,0.8804,0.8804,0.8804,0.8804,0.8804,0.8804,0.8804,0.8804,0.8804,0.8804,0.8804,0.8804,0.8804,0.8804,0.7996,0.7128,0.6696,0.5792,0.4976,0.457,0.4491,0.4491,0.4491,0.4491,0.4491,0.4491,0.4491,0.4897,0.6009,0.6421,0.7047,0.8209,0.8619,0.8804,0.8804,0.8507,0.8348,0.8348,0.8049,0.7883,0.7883,0.8182,0.8348,0.8348,0.8646,0.8804,0.8804,0.8804,0.8804,0.8804,0.8804,0.9031,2.3214,2.2618,2.1742,2.0392,1.937,1.8321,1.6735,1.5325,1.373,1.1671,0.9203,0.7034,0.5837,0.3639,0.1924,0.1706,0.0402,-0.1005,-0.2142,-0.3199,-0.3853,-0.3843,-0.2453,-0.1791,-0.2566,-0.2623,-0.2775,-0.3174,-0.4197,-0.5751,-0.7901,-0.7413,-0.6343,-0.4675,-0.0892,0.2845,0.6515,0.8463,0.9957,1.1022,1.0946,1.1351,1.2143,1.2143,1.2238,1.2385,1.2307,1.2159,1.2025,1.1816,1.2077,1.2541,1.1757,1.1173,1.0661,0.951,0.8956,0.8804,0.8804,0.8804,0.8804,0.8804,0.8804,0.8804,0.8804,0.8804,0.8804,0.8804,0.8804,0.8804,0.8804,0.8804,0.8804,0.8804,0.8235,0.7563,0.702,0.6172,0.5351,0.4869,0.4625,0.4491,0.4491,0.4491,0.4491,0.4491,0.4653,0.5226,0.6453,0.6966,0.7616,0.8699,0.8804,0.8804,0.8804,0.8804,0.8804,0.8804,0.8804,0.8804,0.8804,0.8804,0.8804,0.8804,0.8804,0.8804,0.8804,0.8804,0.8804,0.8804,0.8804,0.8891,2.243,2.1457,2.0559,1.9808,1.8034,1.6485,1.64,1.4563,1.272,1.2265,0.9872,0.7783,0.7476,0.5392,0.3496,0.2765,0.1842,0.0636,-0.1106,-0.0669,-0.0166,-0.0165,0.2435,0.4224,0.411,0.2476,0.0981,-0.0072,-0.1189,-0.3055,-0.5853,-0.6019,-0.5926,-0.5647,-0.1933,0.1527,0.4662,0.7063,0.9214,1.1098,1.1553,1.2174,1.2948,1.2948,1.2759,1.2368,1.2048,1.228,1.2805,1.2098,1.2447,1.3355,1.222,1.1375,1.0712,1.0012,0.9361,0.8804,0.8804,0.8804,0.8804,0.8804,0.8804,0.8804,0.8804,0.8804,0.8804,0.8804,0.8804,0.8804,0.8804,0.8804,0.8804,0.8804,0.8235,0.7696,0.767,0.6519,0.5487,0.5487,0.4948,0.4491,0.4491,0.4491,0.4491,0.4491,0.5054,0.5733,0.6507,0.7857,0.8752,0.8804,0.8804,0.8804,0.8804,0.8804,0.8804,0.8804,0.8804,0.8804,0.8804,0.8804,0.8804,0.8804,0.8804,0.8804,0.8804,0.8804,0.8804,0.8804,0.8804,0.8811,2.2591,2.1361,1.9936,1.8712,1.7384,1.6099,1.4948,1.3692,1.2511,1.148,0.9475,0.7728,0.7211,0.531,0.3727,0.3473,0.2742,0.1805,0.06,0.1162,0.2025,0.2872,0.5496,0.7784,0.923,0.7395,0.5555,0.4202,0.2217,-0.0308,-0.3537,-0.518,-0.6176,-0.662,-0.3666,-0.0326,0.3223,0.5944,0.8415,1.071,1.253,1.3537,1.3816,1.4362,1.42,1.3534,1.3414,1.3186,1.2894,1.2624,1.2753,1.3051,1.2665,1.2089,1.1391,1.0712,1.0038,0.9413,0.8956,0.8804,0.8804,0.8804,0.8804,0.8804,0.8804,0.8804,0.8804,0.8804,0.8804,0.8804,0.8804,0.8804,0.8804,0.8804,0.8619,0.8295,0.7803,0.731,0.6821,0.6335,0.5655,0.5164,0.5164,0.4787,0.4818,0.5741,0.6095,0.6502,0.7235,0.8587,0.9465,0.9465,0.9865,0.9943,0.951,0.9465,0.9283,0.8831,0.8804,0.8804,0.8804,0.8804,0.8804,0.8804,0.8804,0.8804,0.8804,0.8804,0.8804,0.8804,0.8804,0.8804,2.2474,2.1087,1.9419,1.794,1.6494,1.5094,1.376,1.2725,1.1762,1.0661,0.9235,0.799,0.7363,0.5766,0.4433,0.4241,0.3931,0.3409,0.2527,0.4095,0.5741,0.6876,1.0052,1.2708,1.4098,1.3421,1.1602,0.8429,0.5693,0.215,-0.2382,-0.4736,-0.6579,-0.8005,-0.5476,-0.219,0.1753,0.4754,0.7975,1.1432,1.3309,1.4353,1.4658,1.5167,1.4859,1.391,1.3785,1.3199,1.231,1.2187,1.2157,1.2181,1.2403,1.2064,1.1391,1.0965,1.0389,0.9732,0.9158,0.8865,0.8824,0.8904,0.8891,0.8804,0.8804,0.8804,0.8804,0.8804,0.8804,0.8804,0.8804,0.8982,0.9113,0.8857,0.8982,0.8975,0.8235,0.7883,0.7563,0.7074,0.6389,0.5814,0.5542,0.5136,0.525,0.6426,0.7036,0.762,0.8349,0.9235,0.9891,1.0141,1.0542,1.0644,1.0185,0.9935,0.9614,0.9185,0.8929,0.8804,0.8804,0.8804,0.8804,0.8804,0.8804,0.8804,0.8804,0.8804,0.8804,0.8804,0.8804,0.8804,2.2138,2.0654,1.9031,1.7551,1.5423,1.3541,1.2942,1.1796,1.0686,1.009,0.9363,0.8679,0.8143,0.6866,0.5713,0.5109,0.532,0.5369,0.4717,0.7909,1.071,1.1692,1.5858,1.8687,1.8723,2.0289,1.8828,1.2809,0.9172,0.4348,-0.2207,-0.4743,-0.7263,-1.0019,-0.7541,-0.4159,0.0034,0.3708,0.8059,1.3009,1.3846,1.4658,1.541,1.541,1.4734,1.358,1.3267,1.242,1.128,1.0944,1.0788,1.0864,1.1491,1.1366,1.0788,1.0762,1.0338,0.9736,0.9364,0.9044,0.8871,0.9104,0.9011,0.8824,0.8811,0.8804,0.8804,0.8804,0.8804,0.8804,0.8804,0.9283,0.964,0.8956,0.9309,0.9614,0.8936,0.8235,0.775,0.775,0.7155,0.6421,0.5678,0.5569,0.5814,0.6534,0.7821,0.8973,0.971,0.9865,1.0141,1.0788,1.0889,1.0889,1.0838,1.0269,0.9865,0.9814,0.9211,0.8831,0.8804,0.8804,0.8804,0.8804,0.8804,0.8804,0.8804,0.8804,0.8804,0.8804,0.8804,0.8804,2.277,2.0968,1.8881,1.7363,1.5318,1.3551,1.3001,1.2159,1.1571,1.1951,1.1418,1.0681,1.0092,0.8544,0.7153,0.6563,0.6608,0.6865,0.7371,1.0147,1.3043,1.5469,1.8914,2.1693,2.3165,2.4693,2.4,2.0061,1.3057,0.6154,-0.0336,-0.5915,-1.0629,-1.4294,-1.2347,-0.8667,-0.3267,0.497,1.0425,1.3009,1.4421,1.5196,1.541,1.541,1.4734,1.358,1.3267,1.242,1.128,1.0944,1.0788,1.0813,1.099,1.0939,1.0737,1.0244,0.9943,0.9765,0.9638,0.9379,0.9078,0.8938,0.8984,0.9064,0.8871,0.8804,0.8804,0.8804,0.8804,0.8804,0.8804,0.9283,0.964,0.8956,0.9309,0.9614,0.8936,0.8646,0.8507,0.8507,0.791,0.7182,0.6448,0.6312,0.6556,0.7316,0.8145,0.8973,0.971,1.0661,1.1366,1.1541,1.2039,1.2147,1.1591,1.1391,1.0864,0.9865,0.964,0.9309,0.8831,0.8804,0.8804,0.8804,0.8804,0.8804,0.8804,0.8804,0.8804,0.8804,0.8804,0.8804,2.3378,2.1664,1.9588,1.7932,1.5551,1.3387,1.2565,1.1812,1.1446,1.2097,1.2137,1.1955,1.1552,0.9417,0.7517,0.6983,0.6696,0.6873,0.7918,1.1661,1.5178,1.7602,2.1447,2.4514,2.617,2.7297,2.7206,2.5445,1.6211,0.7224,-0.0686,-0.7832,-1.3692,-1.7999,-1.5782,-1.0461,-0.197,0.5891,1.0898,1.3009,1.4972,1.5719,1.541,1.5729,1.4936,1.3298,0.0,1.1739,1.0215,1.0129,0.9876,0.959,1.0297,1.0498,1.0312,0.9943,0.9788,0.9795,0.9767,0.9729,0.9687,0.9651,0.9547,0.9435,0.9286,0.9035,0.8804,0.8804,0.8804,0.8804,0.8804,0.9283,0.964,0.8956,0.9309,0.9614,0.8936,0.8804,0.8804,0.8804,0.8209,0.7563,0.7155,0.7074,0.731,0.8019,0.8725,0.9551,1.0559,1.1341,1.1913,1.2236,1.2642,1.2715,1.232,1.1996,1.1491,1.0745,1.0389,0.9935,0.9263,0.9237,0.9113,0.8811,0.8804,0.8804,0.8804,0.8804,0.8804,0.8804,0.8804,0.8804,2.4012,2.2561,2.0752,1.8892,1.6089,1.3466,1.2252,1.1594,1.1368,1.199,1.2805,1.3385,1.3233,1.0546,0.8206,0.7731,0.7093,0.7052,0.8057,1.2777,1.6859,1.8783,2.3186,2.6612,2.7992,2.8866,2.9307,2.9173,1.8131,0.7405,-0.1768,-1.038,-1.6825,-2.081,-1.7376,-1.0137,0.0966,0.652,1.0523,1.3039,1.5371,1.6179,1.5584,1.6312,1.5409,1.3253,1.2597,1.1045,0.8968,0.9048,0.8611,0.8026,0.9446,0.9865,0.9666,0.9666,0.9666,0.9666,0.971,1.0012,1.0393,1.0652,1.0334,0.9848,0.9803,0.9335,0.8804,0.8804,0.8804,0.8804,0.8804,0.9283,0.964,0.8956,0.9387,0.9744,0.9087,0.8929,0.891,0.8804,0.8289,0.7857,0.7857,0.7931,0.819,0.8764,0.9455,1.0338,1.1516,1.174,1.208,1.2822,1.2905,1.2905,1.2905,1.232,1.1888,1.1814,1.1266,1.0585,0.984,0.9788,0.9491,0.8804,0.8804,0.8804,0.8804,0.8804,0.8804,0.8804,0.8804,0.8804,2.465,2.3449,2.1808,1.9657,1.7185,1.4917,1.3712,1.3653,1.4112,1.5102,1.6292,1.7107,1.6915,1.4901,1.3036,1.229,1.1662,1.1396,1.1812,1.418,1.692,1.9713,2.2875,2.5854,2.8498,3.054,3.1393,3.0619,1.6662,0.5505,-0.0692,-1.3609,-2.0905,-2.106,-1.4577,-0.7571,-0.0164,0.6718,1.1143,1.3039,1.5371,1.6425,1.634,1.7062,1.6504,1.4848,1.3845,0.0,0.9719,0.8881,0.8281,0.7919,0.8193,0.8597,0.8982,0.8982,0.8982,0.8996,0.9234,0.9923,1.0716,1.078,1.0532,1.0146,0.987,0.9335,0.8804,0.8804,0.8804,0.8804,0.8804,0.9283,0.964,0.8956,0.9736,1.044,0.9762,0.964,0.9465,0.891,0.8699,0.8619,0.8619,0.9073,0.9477,0.9599,1.0185,1.0712,1.0939,1.1466,1.208,1.2822,1.2905,1.2905,1.2905,1.2774,1.2452,1.1839,1.169,1.1091,0.9865,0.9788,0.9491,0.8804,0.8804,0.8804,0.8804,0.8804,0.8804,0.8804,0.8804,0.8804,2.5089,2.4112,2.2788,2.1199,1.8617,1.6222,1.519,1.4966,1.5239,1.6257,1.7543,1.834,1.7888,1.5804,1.3752,1.2568,1.1375,1.0598,1.0719,1.2549,1.4753,1.7063,2.047,2.3905,2.7187,2.9846,3.1201,3.082,1.4945,0.3652,-0.004,-1.5239,-2.2484,-1.9434,-1.2629,-0.5524,0.1773,0.752,1.1484,1.3636,1.5957,1.6866,1.6539,1.766,1.733,1.5808,1.4788,1.2998,1.0735,0.9671,0.8883,0.8369,0.8369,0.8634,0.9004,0.9004,0.8911,0.8877,0.9352,0.9843,1.0389,1.1091,1.1209,1.0992,1.0462,0.9865,0.9237,0.891,0.8804,0.8804,0.8804,0.9035,0.9211,0.8883,0.9562,1.009,0.9413,0.9562,0.9614,0.8929,0.8804,0.8804,0.8804,0.9361,0.9788,0.9788,1.0064,1.0415,1.0762,1.1091,1.1541,1.2236,1.2666,1.2905,1.2905,1.2905,1.274,1.2393,1.2369,1.1907,1.0889,1.0517,1.002,0.9335,0.8982,0.8804,0.8804,0.8804,0.8804,0.8804,0.8804,0.8804,2.5342,2.4677,2.3732,2.262,2.0215,1.7863,1.6883,1.6417,1.6468,1.7277,1.8342,1.899,1.8567,1.6409,1.4282,1.2871,1.1393,1.0173,0.95,1.1008,1.2565,1.3585,1.687,2.038,2.3647,2.6531,2.8454,2.9163,1.3168,0.0805,-0.5073,-1.7504,-2.2107,-1.6984,-1.042,-0.3378,0.409,0.8505,1.1943,1.4453,1.6599,1.7385,1.7034,1.834,1.8186,1.6832,1.5697,1.3935,0.0,1.059,0.959,0.8795,0.8795,0.9053,0.9425,0.9266,0.9106,0.9061,0.9458,0.9692,0.9987,1.1191,1.1591,1.1516,1.1141,1.044,0.9684,0.9159,0.8903,0.8804,0.8804,0.8804,0.8831,0.8982,0.9413,0.9666,0.914,0.9439,0.9614,0.8929,0.8804,0.8804,0.8804,0.9361,0.9788,0.9788,0.9788,0.9987,1.0517,1.0712,1.099,1.1541,1.2378,1.2905,1.2905,1.2905,1.2905,1.2905,1.2905,1.2559,1.1839,1.1291,1.0686,1.0038,0.9484,0.9159,0.9008,0.9008,0.8936,0.8804,0.8804,0.8804,2.5298,2.5198,2.4617,2.3115,2.1795,2.0469,1.9053,1.8841,1.9055,1.9514,1.9912,2.0266,2.0651,1.9064,1.7413,1.6546,1.5817,1.4424,1.1814,1.1977,1.1997,1.0916,1.2212,1.4126,1.6507,1.9135,2.1736,2.4242,1.1472,-0.434,-2.2527,-2.2326,-1.9299,-1.4142,-0.7091,-0.0652,0.5014,0.9401,1.2786,1.5216,1.6813,1.7934,1.8528,1.9333,1.9254,1.8424,1.6894,1.4898,0.0,1.106,0.9799,0.8795,0.8795,0.9363,1.0124,0.9453,0.9416,0.964,0.9087,0.9283,0.9917,1.0636,1.0889,1.099,1.1541,1.0813,0.9788,0.9718,0.9263,0.8804,0.8804,0.8804,0.8956,0.9562,0.9762,0.9788,0.971,0.9762,0.9614,0.8929,0.8804,0.8804,0.8804,0.9361,0.9788,0.9788,0.9788,0.9814,0.9891,1.0415,1.0813,1.0889,1.2098,1.2905,1.2905,1.2905,1.2905,1.2905,1.2905,1.2559,1.1839,1.174,1.1391,1.0712,1.0644,1.0312,0.9718,0.9718,0.9387,0.8804,0.8804,0.8804,2.5019,2.5196,2.4889,2.3989,2.274,2.1494,2.0586,2.0106,1.9963,2.0365,2.0589,2.0667,2.0537,1.9421,1.8092,1.682,1.5623,1.4093,1.1952,1.0835,0.9809,0.8655,0.8942,0.9677,1.0884,1.3213,1.3066,0.9213,0.405,-0.4098,-1.5995,-1.6343,-1.372,-0.8354,-0.2047,0.3544,0.8276,1.157,1.4141,1.6042,1.7096,1.7988,1.8741,1.9475,1.9643,1.9307,1.824,1.6699,0.0,1.3254,1.211,1.1273,1.0755,1.0828,1.1166,1.0487,1.0026,0.9718,0.9035,0.8982,0.9387,1.044,1.0788,1.0939,1.1591,1.1141,1.0312,0.9909,0.9309,0.8804,0.8804,0.8804,0.8857,0.9133,0.9517,0.9692,0.929,0.951,0.9614,0.8929,0.8804,0.8804,0.8804,0.9361,0.9788,0.9788,0.9788,0.9943,1.0338,1.0636,1.0939,1.1366,1.2304,1.2905,1.2905,1.2905,1.2905,1.2905,1.2905,1.2774,1.2476,1.2055,1.1665,1.1416,1.1015,1.0669,1.0389,0.9987,0.9666,0.9387,0.8982,0.8804,2.467,2.5096,2.507,2.4676,2.3667,2.2641,2.2203,2.1508,2.1019,2.1296,2.1271,2.1039,2.0537,1.967,1.8441,1.6667,1.5533,1.4066,1.1655,1.0212,0.865,0.6613,0.5858,0.535,0.5095,0.7168,0.5559,-0.1636,-0.0692,-0.2249,-0.7857,-0.7967,-0.6197,-0.2556,0.2724,0.7321,1.1104,1.3181,1.508,1.6838,1.7357,1.8097,1.9044,1.9553,1.9798,1.9747,1.9018,1.7958,0.0,1.5032,1.3969,1.3231,1.2285,1.2036,1.2108,1.1316,1.0705,1.0124,0.937,0.9017,0.9125,1.0403,1.0788,1.0965,1.1857,1.15,1.0686,1.0244,0.9458,0.8804,0.8804,0.8804,0.8804,0.8804,0.9159,0.9387,0.891,0.9335,0.9666,0.9185,0.9263,0.9387,0.9387,0.9788,1.009,1.009,1.009,1.0269,1.0737,1.0965,1.1291,1.174,1.2452,1.2905,1.2905,1.2905,1.2905,1.2905,1.2905,1.2905,1.2905,1.2393,1.2129,1.2129,1.1658,1.1225,1.0788,1.0346,0.9891,0.9484,0.9008,0.891,2.4209,2.4935,2.5259,2.504,2.4627,2.4212,2.4017,2.3296,2.2682,2.2682,2.2102,2.1476,2.1055,2.0215,1.8875,1.6661,1.6556,1.5333,1.118,1.0696,0.9165,0.4757,0.2713,0.0852,-0.1193,0.0654,0.0,-0.4795,-0.0657,0.0675,-0.2496,0.1399,0.3387,0.2658,0.6809,1.0292,1.2846,1.3772,1.5352,1.7578,1.7605,1.8367,1.9798,1.9798,1.9798,1.9747,1.9018,1.8228,0.0,1.5904,1.4819,1.3989,1.2831,1.2592,1.276,1.1694,1.1286,1.1149,1.0135,0.9534,0.9371,1.0448,1.0788,1.1074,1.2461,1.1916,1.0788,1.0788,0.984,0.8804,0.8804,0.8804,0.8804,0.8804,0.8811,0.8811,0.8804,0.9335,0.9788,0.9788,1.0346,1.0788,1.0788,1.0788,1.0788,1.0788,1.0788,1.0788,1.0788,1.1391,1.1789,1.1789,1.2452,1.2905,1.2905,1.2905,1.2905,1.2905,1.2905,1.2905,1.2905,1.2881,1.2881,1.2881,1.2881,1.2181,1.0788,1.0788,1.0115,0.8804,0.8804,0.9159,2.4028,2.4828,2.5259,2.5046,2.4755,2.4459,2.4248,2.3711,2.3181,2.2946,2.2386,2.1828,2.1476,2.0636,1.984,1.9317,1.8795,1.7674,1.5473,1.391,1.1303,0.6736,0.03,-0.4208,-0.5476,-0.6215,-0.6358,-0.5645,-0.3022,-0.0733,0.0882,0.4537,0.6718,0.7052,1.0089,1.2377,1.3772,1.4619,1.5891,1.7605,1.7605,1.8367,1.9798,1.9798,1.9798,1.9798,1.9553,1.902,0.0,1.7432,1.654,1.5647,1.4635,1.4022,1.3591,1.2528,1.1636,1.0841,1.0076,0.9425,0.9131,1.0403,1.0788,1.1074,1.2461,1.2246,1.1291,1.0364,0.9491,0.8804,0.8804,0.8804,0.8804,0.8804,0.8804,0.8936,0.9387,0.9658,0.9935,1.0389,1.0636,1.0788,1.0788,1.0788,1.0965,1.1408,1.1091,1.1149,1.2107,1.1981,1.1996,1.251,1.2774,1.2905,1.2905,1.2905,1.2905,1.2905,1.2905,1.2905,1.2905,1.2905,1.2905,1.2905,1.2905,1.2666,1.223,1.1275,1.0115,0.8804,0.8804,0.9413,2.4085,2.4723,2.5168,2.5135,2.493,2.4716,2.4591,2.4176,2.3692,2.3263,2.2795,2.2265,2.17,2.1007,2.0512,2.0522,2.0014,1.9287,1.8239,1.6294,1.2632,0.6263,-0.1381,-0.6663,-0.8044,-1.003,-1.0022,-0.7147,-0.4287,-0.1127,0.24,0.6514,0.9316,1.0525,1.2401,1.3784,1.4628,1.5429,1.6415,1.7605,1.7868,1.8635,1.9798,1.9798,1.9798,1.9798,1.9798,1.9527,0.0,1.8233,1.7663,1.7186,1.5664,1.4861,1.438,1.328,1.2232,1.1294,1.0735,1.02,0.9907,1.0863,1.1375,1.1767,1.2618,1.2369,1.1516,1.0192,0.9484,0.9106,0.8857,0.8804,0.8804,0.8804,0.8804,0.8982,0.9666,0.9987,1.0389,1.104,1.14,1.1584,1.1584,1.1584,1.1733,1.2163,1.1866,1.1916,1.2774,1.251,1.2403,1.2856,1.2905,1.2905,1.2905,1.2905,1.2905,1.2905,1.2905,1.2905,1.2905,1.2905,1.2905,1.2905,1.2905,1.2774,1.2476,1.1099,0.9865,0.8804,0.9309,0.9987,0.0,2.4667,2.504,2.5224,2.5152,2.5022,2.5022,2.4674,0.0,2.3682,2.3349,2.2895,2.2063,2.1576,2.1213,2.0975,2.0925,2.0663,2.0,1.7944,1.3171,0.4132,-0.2237,-0.6846,-0.9271,-1.1205,-1.1293,-0.888,-0.4542,-0.0587,0.2704,0.7754,1.1367,1.3122,1.3986,1.4776,1.5468,1.6151,1.6894,1.7688,1.8367,1.9097,1.9798,1.9798,1.9798,0.0,1.9798,0.0,0.0,1.8428,1.8217,1.8416,1.611,1.5236,1.5132,1.4002,1.3077,1.2339,1.1969,1.1601,1.132,1.1681,1.2295,1.2905,1.2905,1.2369,1.1541,1.0244,0.984,0.964,0.8982,0.8804,0.8804,0.8804,0.8804,0.9008,0.971,1.0364,1.1015,1.174,1.2427,1.2905,1.2905,1.2905,1.2905,1.2905,1.2905,1.2905,1.2905,1.2905,1.2905,1.2905,1.2905,1.2905,1.2905,1.2905,1.2905,1.2905,1.2905,1.2905,1.2905,1.2905,1.2905,1.2905,1.2905,1.2535,1.1789,1.0542,0.9588,0.8982,1.0218,1.0838,2.4814,0.0,2.5016,2.5052,2.5152,2.5224,0.0,2.5034,2.473,2.4406,2.4515,2.4741,2.4866,2.4481,2.4637,2.6115,2.6113,2.5641,2.4867,1.9521,1.2949,0.5609,-0.0941,-0.6611,-1.1083,-1.2618,-1.1843,-0.8166,-0.4341,0.0102,0.5313,0.9822,1.3007,1.4701,1.6097,1.662,1.6265,1.6407,1.7135,1.8447,1.8608,1.9097,1.9798,1.9798,1.9798,1.9798,1.9798,0.0,1.9697,1.8598,1.8104,1.7962,1.6616,1.6051,1.5832,1.4729,1.3892,1.3205,1.256,1.1713,1.1005,1.1619,1.2314,1.2905,1.2905,1.2369,1.1641,1.0788,1.0192,0.964,0.8982,0.8804,0.8804,0.8804,0.8804,0.914,1.032,1.0695,1.1174,1.2403,1.2774,1.2905,1.2905,1.2905,1.2905,1.2905,1.2905,1.2905,1.2905,1.2905,1.2905,1.2905,1.2905,1.2905,1.2905,1.2905,1.2905,1.2905,1.2905,1.2905,1.2905,1.2905,1.2905,1.2905,1.2905,1.2535,1.1789,1.1491,1.099,1.0338,1.0636,1.1065,2.4884,2.5254,2.5614,2.5704,2.5814,2.5904,2.5904,2.5507,2.504,2.4676,2.4776,2.5042,2.5463,2.5451,2.6011,2.7918,2.8218,2.7879,2.6989,2.1835,1.5216,0.7347,0.0035,-0.6595,-1.2229,-1.4114,-1.3057,-0.8523,-0.4135,0.0873,0.67,1.1027,1.4103,1.5743,1.698,1.7413,1.7006,1.733,1.7895,1.8688,1.9044,1.9423,1.9798,1.9798,1.9798,1.9798,1.9798,0.0,1.9723,1.8643,1.8288,1.8274,1.6896,1.6326,1.6187,1.526,1.4528,1.3866,1.3298,1.2513,1.1816,1.219,1.2569,1.2905,1.2905,1.2608,1.2163,1.1466,1.0788,1.009,0.9439,0.9035,0.8804,0.8804,0.9035,0.9536,1.0593,1.104,1.1575,1.27,1.2905,1.2905,1.2905,1.2905,1.2905,1.2905,1.2905,1.2905,1.2905,1.2905,1.2905,1.2905,1.2905,1.2905,1.2905,1.2905,1.2905,1.2905,1.2905,1.2905,1.2905,1.2905,1.2905,1.2905,1.2905,1.2535,1.1789,1.1789,1.1466,1.0813,1.1116,1.1458,2.4881,2.5678,2.6503,2.6395,2.649,2.6563,2.6428,2.5827,2.5189,2.4803,2.4895,2.5193,2.561,2.6084,2.6991,2.8637,2.9205,2.914,2.8267,2.4592,1.847,0.9051,0.0821,-0.6712,-1.3485,-1.5653,-1.4505,-0.9274,-0.3804,0.1879,0.7866,1.2117,1.5109,1.6704,1.7517,1.7934,1.7934,1.8447,1.8768,1.8874,1.9501,1.9798,1.9798,1.9798,1.9798,1.9798,0.0,0.0,1.9723,1.8643,1.848,1.8721,1.7098,1.6501,1.6465,1.5725,1.5139,1.4633,1.4071,1.3579,1.3189,1.312,1.3027,1.3003,1.3003,1.2954,1.2774,1.2129,1.1466,1.0788,1.0141,0.9536,0.9113,0.9113,0.9536,1.0141,1.0813,1.1391,1.203,1.2774,1.2905,1.2905,1.2905,1.2905,1.2905,1.2905,1.2905,1.2905,1.2905,1.2905,1.2905,1.2905,1.2905,1.2905,1.2905,1.2905,1.2905,1.2905,1.2905,1.2905,1.2905,1.2905,1.2905,1.2905,1.2905,1.2584,1.1972,1.1972,1.1674,1.1124,1.1699,1.1972,2.5228,2.642,2.7264,2.5648,2.5921,2.6409,2.5673,2.5404,2.5308,2.5288,2.627,2.738,2.8165,2.9114,3.0188,3.1481,3.179,3.1777,3.1578,2.7498,2.0652,1.0201,0.1561,-0.7079,-1.6099,-1.7442,-1.5271,-0.9279,-0.3003,0.3555,1.0532,1.4148,1.6749,1.8305,1.9059,1.9449,1.9449,1.8953,1.9006,1.9631,1.9747,1.9798,1.9798,1.9798,1.9798,1.9798,0.0,1.9798,1.9723,1.8643,1.8254,1.8243,1.7512,1.7239,1.7146,1.6477,1.6174,1.5915,1.4723,1.4393,1.4434,1.4036,1.3701,1.3408,1.3408,1.3164,1.2881,1.2774,1.2212,1.1491,1.0813,1.0559,1.0491,1.0491,1.0559,1.0838,1.1491,1.174,1.203,1.2774,1.2905,1.2905,1.2905,1.2905,1.2905,1.2905,1.2905,1.2905,1.2905,1.2905,1.2905,1.2905,1.2905,1.2905,1.2905,1.2905,1.2905,1.2905,1.2905,1.2905,1.2905,1.2905,1.2905,1.2905,1.2905,1.2847,1.2715,1.2715,1.2666,1.2569,1.2666,1.2715,2.5269,2.6159,2.686,2.6102,2.6929,2.7852,2.7448,2.7024,2.6713,2.6737,2.7296,2.8021,2.8858,3.0217,3.1789,3.3576,3.3734,3.3542,3.3264,3.0142,2.2809,0.9004,0.1676,-0.7128,-1.9489,-1.9715,-1.6194,-0.9153,-0.2001,0.5195,1.2422,1.5884,1.8159,1.9254,1.9605,1.9798,1.9798,1.9475,1.9475,1.9798,1.9798,1.9798,1.9798,1.9798,1.9798,1.9798,0.0,1.9648,1.9296,1.853,1.8028,1.7702,1.7137,1.6911,1.6885,1.681,1.6373,1.5746,1.535,1.4856,1.4404,1.4172,1.4248,1.443,1.443,1.4374,1.424,1.3899,1.2841,1.174,1.1416,1.1065,1.0788,1.0788,1.1091,1.1416,1.174,1.2104,1.2476,1.2822,1.2905,1.2905,1.2905,1.2905,1.2905,1.2905,1.2905,1.2905,1.2905,1.2905,1.2905,1.2905,1.2905,1.2905,1.2905,1.2905,1.2905,1.2905,1.2905,1.2905,1.2905,1.2905,1.2905,1.2905,1.2905,1.2905,1.2905,1.2905,1.2905,1.2905,1.2905,1.2905,2.5259,2.5825,2.6427,2.6633,2.7632,2.8641,2.9072,2.8541,2.8063,2.8485,2.8569,2.874,2.9395,3.0956,3.2757,3.4597,3.486,3.467,3.4253,3.1964,2.4566,0.902,0.1988,-0.7099,-2.1141,-2.0714,-1.651,-0.9146,-0.1033,0.6675,1.3812,1.6917,1.8768,1.9527,1.9527,1.9449,1.9281,1.9449,1.9631,1.9798,1.9798,1.9798,1.9798,1.9798,1.9798,1.9798,1.9798,1.9572,1.9133,1.848,1.7953,1.7501,1.6763,1.6588,1.6757,1.7059,1.6631,1.5937,1.626,1.5721,1.4928,1.4928,1.5236,1.5629,1.5629,1.5559,1.5402,1.4942,1.3583,1.2233,1.2095,1.1683,1.1326,1.1412,1.1808,1.2211,1.2312,1.2926,1.3437,1.3437,1.3585,1.3732,1.3732,1.3591,1.352,1.352,1.3405,1.332,1.332,1.32,1.3104,1.3104,1.2968,1.2905,1.2905,1.2905,1.2905,1.2905,1.2905,1.2905,1.2905,1.2905,1.2905,1.2905,1.2905,1.2905,1.2905,1.2905,1.2905,1.2905,1.2905,1.2905,2.5303,2.5937,2.6597,2.6687,2.6784,2.7319,2.9005,2.871,2.8569,3.0235,3.0538,3.0546,3.074,3.2109,3.3365,3.3917,3.4639,3.5074,3.4783,3.2232,2.5643,1.2799,0.3179,-0.708,-1.9,-1.905,-1.5694,-0.9357,-0.0287,0.7916,1.4744,1.6731,1.8015,1.8768,1.8768,1.8447,1.777,1.8447,1.9123,1.9798,1.9798,1.9798,1.9798,1.9798,1.9798,1.9798,1.9798,1.9786,1.966,1.8631,1.8179,1.8041,1.6914,1.6848,1.7348,1.7355,1.7519,1.7708,1.7753,1.7588,1.7357,1.7357,1.7138,1.686,1.686,1.6213,1.5485,1.5437,1.4582,1.3542,1.2958,1.2774,1.2846,1.3208,1.333,1.3487,1.384,1.4504,1.5038,1.5038,1.5647,1.6148,1.6148,1.567,1.5309,1.5309,1.4883,1.456,1.456,1.4073,1.3732,1.3732,1.3238,1.2905,1.2905,1.2905,1.2905,1.2905,1.2905,1.2905,1.2905,1.2905,1.2905,1.2905,1.2905,1.2905,1.2905,1.2905,1.2905,1.2905,1.2905,1.2905,2.5308,2.5976,2.6684,2.6757,2.7201,2.8056,2.9704,2.9853,3.0132,3.1868,3.2215,3.2223,3.2305,3.3276,3.4119,3.4302,3.452,3.4559,3.434,3.2191,2.5621,1.2068,0.4488,-0.4307,-1.6212,-1.6124,-1.2704,-0.6345,0.1885,0.9111,1.4907,1.7164,1.8421,1.8688,1.8201,1.7609,1.6847,1.7114,1.7636,1.8392,1.9334,1.9798,1.9798,1.9798,1.9798,1.9798,1.9798,1.9422,1.8781,1.838,1.779,1.7089,1.6663,1.6647,1.6886,1.725,1.7198,1.6941,1.7298,1.7044,1.6666,1.6993,1.7315,1.7557,1.7557,1.7605,1.7363,1.5896,1.5183,1.4705,1.4014,1.3551,1.3379,1.3773,1.4216,1.4599,1.4748,1.5401,1.5949,1.5949,1.6188,1.64,1.64,1.6217,1.593,1.5554,1.5328,1.5069,1.4743,1.4491,1.4352,1.4352,1.3826,1.331,1.2929,1.2905,1.2905,1.2905,1.2905,1.2905,1.2905,1.2905,1.2905,1.2905,1.2905,1.2905,1.2905,1.2905,1.2905,1.2905,1.2905,1.2905,2.5264,2.5734,2.6285,2.6704,2.7294,2.8346,3.0469,3.1024,3.1641,3.359,3.3554,3.3086,3.2868,3.3544,3.4055,3.3785,3.4028,3.4059,3.351,3.1462,2.5682,1.4024,0.8194,0.0922,-0.9812,-0.9258,-0.6432,-0.2078,0.4796,1.0783,1.5347,1.7352,1.8355,1.8355,1.7571,1.6549,1.5302,1.524,1.5555,1.6229,1.765,1.8863,1.9798,1.9798,1.971,1.956,1.956,1.9045,1.8191,1.8016,1.725,1.6216,1.6216,1.6205,1.6223,1.6657,1.6597,1.6382,1.6758,1.6552,1.6182,1.6543,1.7017,1.7426,1.7426,1.7647,1.7556,1.5943,1.5254,1.491,1.4672,1.4235,1.3982,1.4537,1.5232,1.5803,1.5928,1.6573,1.7136,1.7136,1.7326,1.7478,1.7478,1.7324,1.7076,1.6677,1.6454,1.6173,1.5613,1.5372,1.5028,1.4456,1.405,1.3552,1.2954,1.2905,1.2905,1.2905,1.2905,1.2905,1.2905,1.2905,1.2905,1.2905,1.2905,1.2905,1.2905,1.2905,1.2905,1.2905,1.2905,1.2905,2.5217,2.5216,2.5382,2.6518,2.6864,2.7791,3.1134,3.2054,3.2909,3.5383,3.4514,3.3051,3.2179,3.2768,3.3066,3.205,3.312,3.3628,3.2361,2.9935,2.5978,1.9757,1.4702,0.8646,0.077,0.2081,0.3357,0.3171,0.8417,1.3012,1.6244,1.7147,1.7605,1.7605,1.6819,1.5263,1.2898,1.2655,1.2854,1.3382,1.4586,1.68,1.9786,1.9786,1.9484,1.8995,1.8995,1.8682,1.8154,1.7601,1.6677,1.561,1.561,1.5567,1.5498,1.5498,1.5873,1.6389,1.6389,1.6389,1.6389,1.64,1.64,1.64,1.64,1.5988,1.5521,1.5485,1.4677,1.4023,1.4867,1.4854,1.4817,1.5695,1.6454,1.713,1.7521,1.8194,1.8715,1.8715,1.9307,1.9798,1.9798,1.9346,1.9008,1.9008,1.8555,1.8016,1.7473,1.6825,1.5742,1.3975,1.3815,1.3552,1.2954,1.2905,1.2905,1.2905,1.2905,1.2905,1.2905,1.2905,1.2905,1.2905,1.2905,1.2905,1.2905,1.2905,1.2905,1.2905,1.2905,1.2905,2.5224,2.5749,2.6316,2.6704,2.7748,2.9041,3.0519,3.1555,3.2909,3.5383,3.5044,3.3997,3.3077,3.3176,3.3085,3.2139,3.2175,3.2025,3.1122,2.9312,2.645,2.1992,1.7143,1.2434,0.8062,0.6723,0.6412,0.7057,1.0476,1.364,1.6244,1.7147,1.7605,1.7605,1.6262,1.4371,1.1925,1.0731,1.0632,1.1655,1.2538,1.4733,1.8043,1.8486,1.8593,1.8455,1.8455,1.8141,1.7576,1.7011,1.6298,1.561,1.561,1.5324,1.4945,1.4945,1.5035,1.5193,1.5193,1.5193,1.5273,1.5646,1.5759,1.5759,1.5759,1.593,1.5879,1.4638,1.4321,1.4373,1.4395,1.4722,1.5242,1.6108,1.7273,1.8233,1.8359,1.8965,1.9475,1.9475,1.9643,1.9798,1.9798,1.9673,1.9421,1.9058,1.8857,1.8418,1.7524,1.7227,1.6412,1.4616,1.4422,1.4014,1.3002,1.2905,1.2905,1.2905,1.2905,1.2905,1.2905,1.2905,1.2905,1.2905,1.2905,1.2905,1.2905,1.2905,1.2905,1.2905,1.2905,1.2905,2.5503,2.6092,2.6711,2.7537,2.8608,2.9711,3.0752,3.1744,3.2909,3.4537,3.4203,3.3469,3.2955,3.2907,3.2595,3.1617,3.1444,3.1137,3.0227,2.8587,2.6498,2.386,2.0574,1.7358,1.4332,1.2872,1.2072,1.1981,1.3505,1.5296,1.7214,1.7763,1.7939,1.7718,1.6229,1.4035,1.1079,0.9211,0.8611,0.9291,0.9877,1.2031,1.5482,1.7111,1.7854,1.7865,1.7639,1.735,1.7011,1.6386,1.5776,1.5231,1.4971,1.4526,1.3978,1.3978,1.3978,1.3978,1.3978,1.3978,1.4044,1.4355,1.4465,1.4465,1.4465,1.4717,1.4786,1.3741,1.3785,1.416,1.4119,1.4789,1.5728,1.6712,1.7852,1.8768,1.9071,1.9475,1.9798,1.9798,1.9798,1.9798,1.9798,1.9798,1.9698,1.9359,1.9133,1.877,1.8129,1.784,1.712,1.5556,1.5333,1.4731,1.3364,1.3165,1.3057,1.2915,1.2905,1.2905,1.2905,1.2905,1.2905,1.2905,1.2905,1.2905,1.2905,1.2905,1.2905,1.2905,1.2905,1.2905,2.5868,2.6173,2.6605,2.8606,2.9355,2.9975,3.1443,3.2198,3.2711,3.3198,3.2627,3.2069,3.2187,3.2148,3.1753,3.0774,3.0826,3.0617,2.952,2.7786,2.6223,2.5143,2.4103,2.2282,1.9256,1.915,1.8588,1.6941,1.6774,1.7304,1.866,1.8675,1.8448,1.8082,1.6632,1.4175,1.0597,0.8241,0.6976,0.6791,0.7137,0.9105,1.2522,1.5636,1.7144,1.7297,1.6748,1.6466,1.638,1.582,1.5208,1.456,1.4003,1.342,1.2905,1.2905,1.2905,1.2905,1.2905,1.2905,1.2905,1.2905,1.2905,1.2905,1.2905,1.2905,1.2915,1.2954,1.3213,1.3588,1.4046,1.4979,1.6087,1.7236,1.8124,1.8874,1.9553,1.9747,1.9798,1.9798,1.9798,1.9798,1.9798,1.9798,1.9798,1.9798,1.9397,1.9058,1.9008,1.8569,1.7805,1.662,1.6364,1.567,1.4063,1.373,1.3415,1.2983,1.2925,1.2905,1.2905,1.2905,1.2905,1.2905,1.2905,1.2905,1.2905,1.2905,1.2905,1.2905,1.2905,1.2905,2.5452,2.5584,2.6035,2.7947,2.9329,3.0316,3.0787,3.0866,3.1305,3.2964,3.2686,3.2167,3.2187,3.1641,3.1072,3.0728,2.9992,2.921,2.8425,2.6986,2.558,2.4455,2.3241,2.1876,2.0287,1.9015,1.7956,1.7102,1.65,1.6947,1.8771,1.8351,1.8435,1.9281,1.7495,1.4956,1.1774,0.9045,0.7356,0.0,0.6679,0.8242,1.1194,1.3952,1.5723,1.6697,1.655,1.6238,1.5776,1.5654,1.4971,1.398,1.3839,1.342,1.2905,1.2905,1.2905,1.2905,1.2905,1.2905,1.2905,1.2905,1.2905,1.2905,1.2905,1.2905,1.2974,1.3281,1.3437,1.3682,1.4443,1.4846,1.532,1.6451,1.7743,1.8741,1.89,1.9397,1.9798,1.9798,1.9798,1.9798,1.9798,1.9798,1.9798,1.9798,1.971,1.9497,1.9058,1.8895,1.8399,1.7231,1.7085,1.6474,1.5027,1.4558,1.4092,1.3404,1.3066,1.2905,1.2905,1.2905,1.2905,1.2905,1.2905,1.2905,1.2905,1.2905,1.2905,1.2905,1.2905,1.2905,2.5683,2.589,2.6372,2.8223,2.9253,2.9847,2.991,2.9924,3.0097,3.0725,3.1196,3.15,3.1562,3.1211,3.0722,3.0168,2.9271,2.8336,2.74,2.5989,2.4495,2.307,2.1776,2.0465,1.9091,1.7948,1.738,1.761,1.7261,1.7717,1.9237,1.9188,1.9271,1.9636,1.8349,1.6155,1.304,1.0056,0.7907,0.659,0.6535,0.8487,1.2209,1.4175,1.5608,1.65,1.65,1.6315,1.5986,1.541,1.4801,1.4167,1.36,1.3176,1.2905,1.2905,1.2905,1.2905,1.2905,1.3042,1.3184,1.3184,1.332,1.3447,1.3242,1.3184,1.3184,1.3203,1.335,1.3662,1.4307,1.4884,1.5532,1.6321,1.7357,1.8274,1.8608,1.9281,1.9798,1.9798,1.9798,1.9798,1.9798,1.9798,1.9798,1.9798,1.9798,1.971,1.9409,1.9371,1.9058,1.8204,1.8027,1.735,1.5818,1.5406,1.4728,1.3576,1.3301,1.3096,1.2915,1.2905,1.2905,1.2905,1.2905,1.2905,1.2905,1.2905,1.2905,1.2905,1.2905,1.2905,2.5951,2.6381,2.6857,2.8297,2.8784,2.8901,2.8884,2.9038,2.8994,2.8346,2.9296,3.0294,3.0408,3.0429,3.0156,2.9277,2.8387,2.7392,2.6227,2.4584,2.2901,2.1251,2.0006,1.8739,1.7297,1.6752,1.6935,1.796,1.8043,1.8591,1.985,2.0145,2.0186,2.0021,1.9256,1.7387,1.4363,1.1336,0.8872,0.6967,0.7036,0.9376,1.3752,1.4903,1.582,1.65,1.65,1.6445,1.6272,1.5152,1.4629,1.4445,1.3344,1.2905,1.2905,1.2905,1.2954,1.2988,1.2988,1.3262,1.3588,1.3588,1.3821,1.4046,1.3695,1.3588,1.3555,1.3291,1.3559,1.4017,1.4399,1.5355,1.6265,1.6613,1.7246,1.7961,1.8581,1.9176,1.9643,1.9773,1.9798,1.9798,1.9798,1.9798,1.9798,1.9798,1.9798,1.9798,1.9798,1.9798,1.9635,1.9183,1.8984,1.8239,1.6579,1.6216,1.5404,1.3821,1.3662,1.3428,1.3032,1.2988,1.2983,1.2905,1.2905,1.2905,1.2905,1.2905,1.2905,1.2905,1.2905,1.2905,2.5495,2.6096,2.6554,2.6451,2.7086,2.7699,2.7582,2.7757,2.7992,2.8169,2.8378,2.8534,2.8558,2.8558,2.8433,2.8076,2.6764,2.5436,2.4392,2.227,2.0318,1.8991,1.8121,1.7352,1.6659,1.6531,1.6769,1.7368,1.7431,1.8289,2.0298,1.9957,2.0306,2.1642,2.0246,1.8252,1.5665,1.3212,1.0802,0.8436,0.9003,1.0822,1.3729,1.4492,1.5421,1.65,1.65,1.6194,1.5676,1.4994,1.4376,1.3839,1.3176,1.2905,1.2905,1.2905,1.3105,1.3418,1.3418,1.3675,1.4026,1.4026,1.4065,1.4094,1.4036,1.4026,1.4094,1.4443,1.5043,1.5681,1.6067,1.6772,1.7379,1.7446,1.8015,1.8581,1.8688,1.8768,1.9044,1.9669,1.9798,1.9798,1.9798,1.9798,1.9798,1.9798,1.9798,1.9798,1.9798,1.9798,1.9773,1.971,1.9683,1.9036,1.7524,1.7064,1.6224,1.4729,1.4231,1.3831,1.3437,1.3418,1.3252,1.2915,1.2905,1.2905,1.2905,1.2905,1.2905,1.2905,1.2905,1.2905,2.5204,2.5329,2.5379,2.5385,2.5604,2.5736,2.5452,2.5697,2.5931,2.5763,2.5913,2.6511,2.794,2.8201,2.7888,2.6944,2.5764,2.4433,2.2941,2.1111,1.9491,1.8375,1.7679,1.7097,1.6552,1.65,1.6858,1.7686,1.7747,1.8528,2.0281,2.0387,2.0825,2.1745,2.0874,1.9411,1.7382,1.4715,1.221,0.9885,1.0513,1.2039,1.4273,1.4926,1.5666,1.65,1.65,1.6173,1.5543,1.4949,1.4329,1.3732,1.3128,1.2905,1.2905,1.2905,1.3145,1.3506,1.3506,1.3945,1.4547,1.4962,1.526,1.5488,1.5679,1.5435,1.5184,1.5595,1.5616,1.5701,1.6569,1.7337,1.7938,1.8163,1.8463,1.8821,1.9228,1.9307,1.9423,1.9747,1.9798,1.9798,1.9798,1.9798,1.9798,1.9798,1.9798,1.9798,1.9798,1.9798,1.9798,1.9798,1.9798,1.9202,1.7743,1.7431,1.6602,1.4907,1.4609,1.428,1.3851,1.3633,1.3525,1.3584,1.3125,1.2905,1.2905,1.2905,1.2905,1.2905,1.2905,1.2905,2.4868,2.4477,2.4077,2.4228,2.4047,2.3724,2.3262,2.3591,2.3814,2.3213,2.3537,2.4457,2.6254,2.6986,2.6959,2.5758,2.468,2.3422,2.1772,2.0314,1.9078,1.821,1.7626,1.7126,1.6731,1.6573,1.69,1.7827,1.8027,1.8684,2.0058,2.0566,2.1007,2.143,2.0927,1.9905,1.8355,1.5335,1.2979,1.1322,1.1764,1.303,1.4949,1.5387,1.593,1.65,1.65,1.6173,1.5543,1.4949,1.4329,1.3732,1.3128,1.2905,1.2905,1.2905,1.3213,1.3636,1.3636,1.4363,1.5325,1.5887,1.6384,1.683,1.7073,1.6763,1.6391,1.6632,1.6406,1.6291,1.7206,1.7963,1.8612,1.8895,1.8992,1.9097,1.9449,1.9669,1.9747,1.9553,1.9669,1.9747,1.9553,1.9669,1.9798,1.9798,1.9798,1.9798,1.9798,1.9798,1.9798,1.9798,1.9798,1.9281,1.7988,1.7879,1.7203,1.5614,1.5325,1.5014,1.4576,1.4274,1.4194,1.4377,1.3988,1.3679,1.3481,1.3679,1.3777,1.3777,1.358,1.3481,2.4356,2.3722,2.2998,2.262,2.2271,2.1884,2.1302,2.1769,2.2101,2.1312,2.1924,2.2498,2.2183,2.3689,2.4846,2.4443,2.327,2.2024,2.0918,1.9712,1.8727,1.8185,1.7626,1.7291,1.725,1.6795,1.6731,1.7312,1.7807,1.8545,1.957,2.0076,2.055,2.1007,2.0147,1.9086,1.786,1.4541,1.2802,1.2691,1.274,1.3729,1.5543,1.5588,1.593,1.65,1.65,1.6173,1.5543,1.4949,1.4329,1.3732,1.3128,1.2905,1.2905,1.2905,1.3398,1.4075,1.4075,1.5099,1.6422,1.6451,1.6957,1.755,1.7572,1.7533,1.7506,1.7538,1.8016,1.8525,1.8587,1.9165,1.9709,1.9734,1.9747,1.9553,1.89,1.9319,1.9579,1.8874,1.9307,1.9579,1.8874,1.9345,1.9798,1.9798,1.9798,1.9798,1.9798,1.9798,1.9798,1.9798,1.9798,1.9475,1.8715,1.8635,1.829,1.7506,1.6806,1.6242,1.5815,1.58,1.5589,1.5158,1.5854,1.5846,1.5085,1.5857,1.6221,1.6196,1.5429,1.5085,2.3446,2.2729,2.1929,2.1477,2.1111,2.0751,2.0262,2.0348,2.0496,2.0376,2.0615,2.087,2.1006,2.2571,2.3588,2.2822,2.2324,2.1672,2.059,1.9851,1.9207,1.8669,1.8438,1.8066,1.7374,1.7126,1.7097,1.7291,1.7483,1.8176,1.9516,1.9763,2.0198,2.0975,2.0095,1.8726,1.6907,1.4981,1.4018,1.4018,1.4018,1.4573,1.561,1.6008,1.6293,1.65,1.65,1.6173,1.5588,1.5365,1.4687,1.3779,1.3552,1.3238,1.2905,1.2905,1.3408,1.4184,1.4631,1.5546,1.6652,1.7605,1.8085,1.8382,1.8874,1.8688,1.8409,1.8874,1.8847,1.8821,1.9281,1.9605,1.9798,1.9798,1.9798,1.9721,1.9449,1.9228,1.8874,1.8151,1.8205,1.8447,1.8661,1.8927,1.9254,1.9721,1.9798,1.9798,1.9798,1.9798,1.9798,1.9798,1.9798,1.9501,1.8768,1.8688,1.8394,1.766,1.7357,1.7142,1.6994,1.6741,1.6653,1.6747,1.722,1.6986,1.5974,1.6275,1.64,1.64,1.6112,1.5974,2.2471,2.1623,2.0799,2.049,2.0118,1.9758,1.9482,1.9413,1.9306,1.9122,1.9203,1.9331,1.9468,2.091,2.1938,2.1598,2.1661,2.1425,2.0454,2.007,1.9732,1.9225,1.9006,1.8554,1.7666,1.7415,1.7229,1.7055,1.7188,0.0,1.8764,1.9004,1.9302,1.9738,1.9159,1.795,1.6154,1.5376,1.4994,1.4994,1.4994,1.5332,1.5908,1.6315,1.65,1.65,1.65,1.6173,1.561,1.561,1.5016,1.4097,1.4097,1.3732,1.32,1.32,1.3626,1.4308,1.4977,1.5983,1.7175,1.8335,1.8874,1.9176,1.9643,1.9449,1.9176,1.9669,1.9449,1.9176,1.9669,1.9798,1.9798,1.9798,1.9798,1.9721,1.9475,1.9228,1.8847,1.8124,1.8178,1.8421,1.8661,1.89,1.9228,1.9721,1.9798,1.9798,1.9798,1.9798,1.9798,1.9798,1.9798,1.9605,1.9123,1.9071,1.8847,1.8367,1.8124,1.7977,1.7977,1.7695,1.771,1.795,1.8434,1.8304,1.7527,1.7527,1.7527,1.7539,1.7299,1.7171,0.0,0.0,0.0,1.9567,1.9236,1.8893,1.8874,1.8874,1.8574,1.7524,1.7706,1.7907,1.7394,1.8517,1.9838,2.0769,2.1254,2.1209,2.0417,2.0314,2.0176,1.9764,1.9262,1.8727,1.8185,1.7646,1.7105,1.6595,1.7013,1.7312,1.7333,1.7827,1.7847,1.7333,1.7312,1.6765,1.5632,1.561,1.561,1.5632,1.561,1.5908,1.65,1.65,1.65,1.65,1.65,1.6173,1.5632,1.5632,1.5276,1.4721,1.4721,1.4352,1.3815,1.3815,1.4076,1.4513,1.5067,1.6417,1.7999,1.8548,1.9228,1.9798,1.9798,1.9798,1.9798,1.9798,1.9798,1.9798,1.9798,1.9798,1.9798,1.9798,1.9798,1.9605,1.8874,1.9281,1.9579,1.8821,1.9254,1.9501,1.8821,1.9281,1.9773,1.9798,1.9798,1.9798,1.9798,1.9798,1.9798,1.9798,1.9798,1.9798,1.9798,1.9798,1.9798,1.9798,1.9123,1.8741,1.8741,1.8741,1.8741,1.8741,1.9449,1.9798,1.9798,1.9798,1.9798,1.9773,1.9071,1.8741,2.0197,0.0,0.0,0.0,0.0,0.0,1.8419,1.8322,1.8145,1.7442,1.7118,1.7013,1.725,1.7653,1.8277,1.9295,2.0408,2.0943,2.0382,2.0583,2.0633,2.0193,2.0004,1.96,1.8765,1.8535,1.8243,0.0,1.7442,1.7463,1.7867,1.8027,1.7847,1.7333,1.7312,1.6959,1.6259,1.582,1.582,1.6238,1.582,1.5908,1.65,1.65,1.65,1.65,1.65,1.6402,1.6238,1.6238,1.5898,1.5343,1.5343,1.4983,1.4445,1.4445,1.4695,1.5216,1.6333,1.7252,1.8076,1.9135,1.9631,1.9798,1.9798,1.9798,1.9798,1.9798,1.9798,1.9798,1.9798,1.9798,1.9798,1.9798,1.9798,1.9747,1.9527,1.9669,1.9423,1.814,1.807,1.8301,1.8635,1.8874,1.9176,1.9721,1.9798,1.9798,1.9798,1.9798,1.9798,1.9798,1.9798,1.9798,1.9798,1.9798,1.9798,1.9798,1.9618,1.9501,1.9501,1.9501,1.9501,1.9501,1.9695,1.9798,1.9798,1.9798,1.9798,1.9798,1.9579,1.9501,1.9068,1.8363,1.7767,1.7767,0.0,0.0,1.8125,1.7927,1.7747,1.7646,1.7209,1.6993,1.7524,1.7827,1.8185,1.8798,2.0078,2.0845,2.0365,2.0846,2.1007,2.0382,2.0297,1.9919,1.8991,1.8893,1.8669,1.8145,1.7807,1.7666,1.7767,1.7544,1.7291,1.6972,1.6972,1.6816,1.65,1.6139,1.6139,1.65,1.6139,1.6173,1.65,1.65,1.65,1.65,1.65,1.65,1.65,1.65,1.6281,1.5986,1.5986,1.5622,1.5085,1.5085,1.5211,1.5613,1.6859,1.7629,1.8215,1.942,1.9798,1.9798,1.9798,1.9798,1.9798,1.9798,1.9798,1.9798,1.9798,1.9798,1.9798,1.9798,1.9798,1.9798,1.9798,1.9798,1.9553,1.8688,1.8528,1.8661,1.9097,1.915,1.9307,1.9747,1.9798,1.9798,1.9798,1.9798,1.9798,1.9798,1.9798,1.9798,1.9798,1.9798,1.9798,1.9798,1.9798,1.9798,1.9798,1.9798,1.9798,1.9798,1.9798,1.9798,1.9798,1.9798,1.9798,1.9798,1.9798,1.9798,1.8048,1.7572,1.7209,1.7209,1.725,0.0,1.7827,1.7646,1.7504,1.7927,1.7686,1.7544,1.8086,1.8535,1.8855,1.8968,2.0026,2.0732,2.0433,2.1134,2.1337,2.0483,2.0382,2.0006,1.908,1.8987,1.8798,1.8322,1.8224,1.7927,1.7333,1.6858,1.6552,1.65,1.65,1.65,1.65,1.65,1.65,1.65,1.65,1.65,1.65,1.65,1.65,1.65,1.65,1.65,1.65,1.65,1.65,1.65,1.65,1.6173,1.5698,1.5698,1.5698,1.5842,1.6943,1.7689,1.838,1.9384,1.9761,1.9798,1.9798,1.9798,1.9798,1.9798,1.9798,1.9798,1.9798,1.9798,1.9798,1.9798,1.9798,1.9798,1.9798,1.9798,1.9798,1.9798,1.9798,1.9798,1.9798,1.9798,1.9798,1.9798,1.9798,1.9798,1.9798,1.9798,1.9798,1.9798,1.9798,1.9798,1.9798,1.9798,1.9798,1.9798,1.9798,1.9798,1.9798,1.9798,1.9798,1.9798,1.9798,1.9798,1.9798,1.9798,1.9798,1.9798,1.9798,1.9798,1.747,1.7042,1.6659,1.6659,1.6972,0.0,1.69,1.7415,1.7847,1.7524,1.7727,1.8125,1.865,1.8477,1.8535,1.9406,1.9722,2.0112,2.0764,2.1615,2.184,2.0975,2.0862,2.0532,1.9624,1.9548,1.9497,1.9406,1.8987,1.8322,1.7353,1.7188,1.6951,1.6522,1.65,1.65,1.65,1.65,1.65,1.65,1.65,1.65,1.65,1.65,1.65,1.65,1.65,1.65,1.65,1.65,1.65,1.65,1.65,1.6423,1.6315,1.6315,1.6315,1.6424,1.713,1.7734,1.8317,1.8945,1.9459,1.9798,1.9798,1.9798,1.9798,1.9798,1.9798,1.9798,1.9798,1.9798,1.9798,1.9798,1.9798,1.9798,1.9798,1.9798,1.9798,1.9798,1.9798,1.9798,1.9798,1.9798,1.9798,1.9798,1.9798,1.9798,1.9798,1.9798,1.9798,1.9798,1.9798,1.9798,1.9798,1.9798,1.9798,1.9798,1.9798,1.9798,1.9798,1.9798,1.9798,1.9798,1.9798,1.9798,1.9798,1.9798,1.9798,1.9798,1.9798,1.9798,1.6888,1.6689,1.65,1.65,1.6689,0.0,0.0,1.6909,1.7312,1.7312,1.7727,1.8185,1.8458,1.8496,1.8593,1.8855,1.9074,1.936,1.9841,2.0911,2.14,2.0732,2.0649,2.0398,1.9764,1.9708,1.9708,1.9708,1.9207,1.8554,1.7747,1.7442,1.7055,1.6522,1.65,1.65,1.65,1.65,1.65,1.65,1.65,1.65,1.65,1.65,1.65,1.65,1.65,1.65,1.65,1.65,1.65,1.65,1.65,1.65,1.65,1.65,1.65,1.6588,1.7187,1.7586,1.789,1.8442,1.8958,1.9384,1.9384,1.9597,1.9798,1.9798,1.9798,1.9798,1.9798,1.9798,1.9798,1.9798,1.9798,1.9798,1.9798,1.9798,1.9798,1.9798,1.9798,1.9798,1.9798,1.9798,1.9798,1.9798,1.9798,1.9798,1.9798,1.9798,1.9798,1.9798,1.9798,1.9798,1.9798,1.9798,1.9798,1.9798,1.9798,1.9798,1.9798,1.9798,1.9798,1.9798,1.9798,1.9798,1.9798,1.9798,1.9798,1.9798,1.9798,1.9798,1.6337,1.6238,1.6207,1.6445,1.6402,1.6358,0.0,0.0,0.0,1.7209,1.7727,1.8106,1.8106,1.8458,1.8593,1.8185,1.8435,1.8622,1.8513,1.9513,2.0186,2.0028,2.0008,1.9884,1.9584,1.9639,1.9708,1.9708,1.9299,1.8765,1.8145,1.7686,1.7146,1.6522,1.65,1.65,1.65,1.65,1.65,1.65,1.65,1.65,1.65,1.65,1.65,1.65,1.65,1.65,1.65,1.65,1.65,1.65,1.65,1.65,1.65,1.65,1.65,1.6563,1.7049,1.731,1.7473,1.7903,1.8469,1.902,1.9121,1.9472,1.9798,1.9798,1.9798,1.9798,1.9798,1.9798,1.9798,1.9798,1.9798,1.9798,1.9798,1.9798,1.9798,1.9798,1.9798,1.9798,1.9798,1.9798,1.9798,1.9798,1.9798,1.9798,1.9798,1.9798,1.9798,1.9798,1.9798,1.9798,1.9798,1.9798,1.9798,1.9798,1.9798,1.9798,1.9798,1.9798,1.9798,1.9798,1.9798,1.9798,1.9798,1.9798,1.9798,1.9798,1.9798,1.9798,1.5698,1.531,1.5152,1.6216,1.6095,1.5842,1.638,0.0,1.7229,1.7291,0.0,1.8106,1.8106,0.0,0.0,1.8125,1.8151,1.7985,1.7464,1.7538,1.7962,1.8852,1.8979,1.8989,1.8987,1.9424,1.9708,1.9708,1.9639,1.9169,1.8165,1.8046,1.7544,1.6543,1.65,1.65,1.65,1.65,1.65,1.65,1.65,1.65,1.65,1.65,1.65,1.65,1.65,1.65,1.65,1.65,1.65,1.65,1.65,1.65,1.65,1.65,1.65,1.65,1.6575,1.6948,1.741,1.7473,1.8179,1.9096,1.9547,1.9761,1.9798,1.9798,1.9798,1.9798,1.9798,1.9798,1.9798,1.9798,1.9798,1.9798,1.9798,1.9798,1.9798,1.9798,1.9798,1.9798,1.9798,1.9798,1.9798,1.9798,1.9798,1.9798,1.9798,1.9798,1.9798,1.9798,1.9798,1.9798,1.9798,1.9798,1.9798,1.9798,1.9798,1.9798,1.9798,1.9798,1.9798,1.9798,1.9798,1.9798,1.9798,1.9798,1.9798,1.9798,1.9798,1.9798,1.6117,1.5942,1.5788,1.5942,1.5798,1.5565,1.5466,1.5632,1.5784,1.5784,0.0,0.0,0.0,0.0,0.0,0.0,1.613,1.591,1.527,1.517,1.5717,1.7188,0.0,0.0,1.831,1.8902,1.9369,1.969,1.9708,1.9225,1.8165,1.8106,1.7605,1.6543,1.65,1.65,1.65,1.65,1.65,1.65,1.65,1.65,1.65,1.65,1.65,1.65,1.65,1.65,1.65,1.65,1.65,1.65,1.65,1.65,1.65,1.65,1.65,1.65,1.65,1.6672,1.6986,1.7652,1.8392,1.9096,1.9648,1.9798,1.9798,1.9798,1.9798,1.9798,1.9798,1.9798,1.9798,1.9798,1.9798,1.9798,1.9798,1.9798,1.9798,1.9798,1.9798,1.9798,1.9798,1.9798,1.9798,1.9798,1.9798,1.9798,1.9798,1.9798,1.9798,1.9798,1.9798,1.9798,1.9798,1.9798,1.9798,1.9798,1.9798,1.9798,1.9798,1.9798,1.9798,1.9798,1.9798,1.9798,1.9798,1.9798,1.9974,2.0314,1.9962,1.9798,1.6064,1.5876,1.5688,0.0,0.0,0.0,0.0,0.0,0.0,0.0,1.5005,0.0,0.0,0.0,1.5139,1.4766,0.0,1.4411,1.3564,1.3436,1.3989,1.5421,0.0,0.0,0.0,1.809,1.8731,1.9424,1.9479,1.9151,1.8361,1.8185,1.7686,1.6752,1.6573,1.65,1.65,1.65,1.65,1.65,1.65,1.65,1.65,1.65,1.65,1.6522,1.6659,1.671,1.671,1.671,1.6816,1.6909,1.6616,1.6595,1.6689,1.6552,1.65,1.65,1.65,1.6717,1.7148,1.8129,1.8819,1.938,1.9914,1.9952,1.9798,1.9798,1.9798,1.9798,1.9798,1.9798,1.9798,1.9798,1.9798,1.9798,1.9798,1.9798,1.9798,1.9798,1.9798,1.9798,1.9798,1.9798,1.9798,1.9798,1.9798,1.9798,1.9798,1.9798,1.9798,1.9798,1.9798,1.9798,1.9798,1.9798,1.9798,1.9798,1.9798,1.9875,2.008,1.9901,1.9901,2.008,1.9901,1.9874,2.0037,2.0037,2.0365,2.0893,2.0137,1.9886,0.0,0.0,0.0,1.4583,0.0,0.0,0.0,0.0,1.4698,0.0,0.0,0.0,1.4698,1.4698,1.4721,1.4698,1.4698,0.0,0.0,1.2836,1.3076,1.3718,1.4824,1.5768,0.0,1.6944,1.7719,0.0,1.893,1.8912,1.8874,1.838,1.7847,1.7291,1.6774,1.65,1.65,1.65,1.65,1.65,1.65,1.65,1.65,1.65,1.65,1.6543,1.7055,1.7271,1.7271,1.7271,1.7585,1.7947,1.6909,1.6816,1.7209,1.6701,1.65,1.65,1.65,1.7269,1.8322,1.8887,1.9473,2.0067,2.0599,2.0295,1.9798,1.9798,1.9798,1.9798,1.9798,1.9798,1.9798,1.9798,1.9798,1.9798,1.9798,1.9798,1.9798,1.9798,1.9798,1.9798,1.9798,1.9798,1.9798,1.9798,1.9798,1.9798,1.9798,1.9798,1.9798,1.9798,1.9798,1.9798,1.9798,1.9798,1.9798,1.9798,1.9798,2.0105,2.0746,2.0144,2.0105,2.0746,2.0131,2.0075,2.0666,2.0666,2.0943,2.1443,2.0313,2.01,0.0,0.0,1.4846,1.426,0.0,0.0,0.0,0.0,0.0,0.0,0.0,0.0,1.3501,1.3501,1.3501,1.3501,1.3501,1.3194,0.0,1.2144,1.2218,1.2434,1.3199,1.3932,1.4485,0.0,0.0,1.7719,1.8883,0.0,0.0,1.8619,1.8303,1.7346,1.6774,1.65,1.65,1.65,1.65,1.65,1.65,1.65,1.65,1.65,1.65,1.6543,1.7076,1.7312,1.7333,1.7686,1.7947,1.8027,1.7312,1.7126,1.7229,1.6689,1.65,1.6552,1.6909,1.7817,1.8919,1.9461,2.032,2.1084,2.0877,2.0646,2.0371,1.9927,1.9798,1.9798,1.9798,1.9798,1.9798,1.9798,1.9798,1.9798,1.9798,1.9798,1.9798,1.9798,1.9798,1.9798,1.9798,1.9798,1.9798,1.9798,1.9798,1.9798,1.9798,1.9798,1.9798,1.9798,1.9798,1.9798,1.9798,2.0194,2.0633,2.1037,2.1062,2.0977,2.0795,2.0912,2.0927,2.0731,2.0862,2.1016,2.1232,2.1232,2.1493,2.202,2.1267,2.1029,1.5499,1.5276,0.0,1.3779,1.3481,0.0,1.2992,0.0,1.2905,0.0,0.0,0.0,0.0,1.2905,1.2905,1.2905,1.2905,1.2632,0.0,1.1575,1.1434,1.1441,1.2258,1.3072,1.3606,1.497,1.612,1.686,1.8392,1.9029,0.0,0.0,1.8304,1.7294,1.6756,1.6402,1.6194,1.6402,1.65,1.65,1.65,1.65,1.65,1.65,1.65,1.6531,1.7271,1.7585,1.7626,1.8165,1.8496,1.8593,1.7867,1.7585,1.7524,1.6972,1.6909,1.7144,1.7744,1.8716,1.9847,2.0426,2.1271,2.1936,2.1307,2.0979,2.0646,2.0003,1.9798,1.9798,1.9798,1.9798,1.9798,1.9798,1.9798,1.9798,1.9798,1.9798,1.9798,1.9798,1.9798,1.9798,1.9798,1.9798,1.9798,1.9798,1.9798,1.9798,1.9798,1.9798,1.9798,1.9798,1.9798,1.9901,2.0131,2.0758,2.1293,2.1687,2.1697,2.1736,2.1814,2.1684,2.1642,2.1733,2.1568,2.1581,2.1782,2.1782,2.2071,2.2569,2.2234,2.2071]}]]